<?xml version="1.0" encoding="UTF-8" standalone="no" ?>
<gpx xmlns="http://www.topografix.com/GPX/1/1" xmlns:xsi="http://www.w3.org/2001/XMLSchema-instance" xsi:schemaLocation="http://www.topografix.com/GPX/1/1 http://www.topografix.com/GPX/1/1/gpx.xsd" version="1.1" creator="VisuGPX - https://www.visugpx.com">
  <metadata>
    <name>Mont Colombis Montée par Espinasse retour par Theus</name>
    <desc><![CDATA[Monter par Espinasse en prenant la petite route apres le cimetière , qui après une une montée soutenue se transforme en piste et mène à Vière  d'ou on monte à la cabane des bergers par une belle piste puis au mont Colombis (superbe vue panoramique ) d'où on descend par petite route très pentue qui traverse le curieux village de Theus et ramène au point de départ.
Le dénivelé est de 1200 m]]></desc>
  </metadata>
  <trk>
    <name><![CDATA[16/09/2020 10:37:32]]></name>
    <extensions>
      <line xmlns="http://www.topografix.com/GPX/gpx_style/0/2">
        <color>0000FF</color>
        <width>4</width>
      </line>
    </extensions>
    <trkseg>
      <trkpt lat="44.45613" lon="6.19785">
        <ele>661.3</ele>
        <time>2020-09-16T08:37:32Z</time>
      </trkpt>
      <trkpt lat="44.4561" lon="6.19786">
        <ele>661.4</ele>
        <time>2020-09-16T08:37:34Z</time>
      </trkpt>
      <trkpt lat="44.45606" lon="6.19787">
        <ele>661.7</ele>
        <time>2020-09-16T08:37:51Z</time>
      </trkpt>
      <trkpt lat="44.45608" lon="6.19786">
        <ele>661.6</ele>
        <time>2020-09-16T08:37:54Z</time>
      </trkpt>
      <trkpt lat="44.4564" lon="6.19783">
        <ele>659.5</ele>
        <time>2020-09-16T08:38:04Z</time>
      </trkpt>
      <trkpt lat="44.45713" lon="6.19792">
        <ele>654.1</ele>
        <time>2020-09-16T08:38:19Z</time>
      </trkpt>
      <trkpt lat="44.45761" lon="6.19795">
        <ele>650.6</ele>
        <time>2020-09-16T08:38:29Z</time>
      </trkpt>
      <trkpt lat="44.45834" lon="6.19805">
        <ele>647.6</ele>
        <time>2020-09-16T08:38:39Z</time>
      </trkpt>
      <trkpt lat="44.45878" lon="6.19814">
        <ele>646.8</ele>
        <time>2020-09-16T08:38:44Z</time>
      </trkpt>
      <trkpt lat="44.45913" lon="6.19822">
        <ele>646.1</ele>
        <time>2020-09-16T08:38:48Z</time>
      </trkpt>
      <trkpt lat="44.45956" lon="6.19834">
        <ele>644.1</ele>
        <time>2020-09-16T08:38:53Z</time>
      </trkpt>
      <trkpt lat="44.46036" lon="6.19857">
        <ele>642</ele>
        <time>2020-09-16T08:39:05Z</time>
      </trkpt>
      <trkpt lat="44.46139" lon="6.19886">
        <ele>640.6</ele>
        <time>2020-09-16T08:39:22Z</time>
      </trkpt>
      <trkpt lat="44.46197" lon="6.19913">
        <ele>640</ele>
        <time>2020-09-16T08:39:33Z</time>
      </trkpt>
      <trkpt lat="44.46282" lon="6.19955">
        <ele>640.4</ele>
        <time>2020-09-16T08:39:50Z</time>
      </trkpt>
      <trkpt lat="44.46374" lon="6.19999">
        <ele>640.5</ele>
        <time>2020-09-16T08:40:09Z</time>
      </trkpt>
      <trkpt lat="44.4648" lon="6.20049">
        <ele>640.9</ele>
        <time>2020-09-16T08:40:32Z</time>
      </trkpt>
      <trkpt lat="44.46513" lon="6.2007">
        <ele>641.6</ele>
        <time>2020-09-16T08:40:42Z</time>
      </trkpt>
      <trkpt lat="44.46513" lon="6.20075">
        <ele>641.6</ele>
        <time>2020-09-16T08:40:43Z</time>
      </trkpt>
      <trkpt lat="44.46513" lon="6.2008">
        <ele>641.5</ele>
        <time>2020-09-16T08:40:44Z</time>
      </trkpt>
      <trkpt lat="44.46495" lon="6.20196">
        <ele>641.6</ele>
        <time>2020-09-16T08:41:05Z</time>
      </trkpt>
      <trkpt lat="44.46471" lon="6.20327">
        <ele>640.4</ele>
        <time>2020-09-16T08:41:28Z</time>
      </trkpt>
      <trkpt lat="44.46465" lon="6.20361">
        <ele>640.1</ele>
        <time>2020-09-16T08:41:34Z</time>
      </trkpt>
      <trkpt lat="44.46456" lon="6.20409">
        <ele>640</ele>
        <time>2020-09-16T08:41:42Z</time>
      </trkpt>
      <trkpt lat="44.4643" lon="6.20515">
        <ele>642.6</ele>
        <time>2020-09-16T08:42:01Z</time>
      </trkpt>
      <trkpt lat="44.46389" lon="6.20644">
        <ele>645.3</ele>
        <time>2020-09-16T08:42:25Z</time>
      </trkpt>
      <trkpt lat="44.46335" lon="6.20713">
        <ele>644.8</ele>
        <time>2020-09-16T08:42:44Z</time>
      </trkpt>
      <trkpt lat="44.46285" lon="6.20769">
        <ele>647.3</ele>
        <time>2020-09-16T08:43:04Z</time>
      </trkpt>
      <trkpt lat="44.4625" lon="6.20851">
        <ele>648.2</ele>
        <time>2020-09-16T08:43:26Z</time>
      </trkpt>
      <trkpt lat="44.46241" lon="6.20961">
        <ele>649.5</ele>
        <time>2020-09-16T08:43:50Z</time>
      </trkpt>
      <trkpt lat="44.46252" lon="6.21045">
        <ele>652.8</ele>
        <time>2020-09-16T08:44:11Z</time>
      </trkpt>
      <trkpt lat="44.46262" lon="6.2113">
        <ele>655.7</ele>
        <time>2020-09-16T08:44:33Z</time>
      </trkpt>
      <trkpt lat="44.46272" lon="6.21213">
        <ele>658.2</ele>
        <time>2020-09-16T08:44:55Z</time>
      </trkpt>
      <trkpt lat="44.46283" lon="6.21298">
        <ele>659.8</ele>
        <time>2020-09-16T08:45:15Z</time>
      </trkpt>
      <trkpt lat="44.46296" lon="6.21408">
        <ele>659.7</ele>
        <time>2020-09-16T08:45:39Z</time>
      </trkpt>
      <trkpt lat="44.46308" lon="6.21505">
        <ele>659.8</ele>
        <time>2020-09-16T08:46:01Z</time>
      </trkpt>
      <trkpt lat="44.46322" lon="6.21596">
        <ele>659.4</ele>
        <time>2020-09-16T08:46:19Z</time>
      </trkpt>
      <trkpt lat="44.46342" lon="6.21627">
        <ele>661.1</ele>
        <time>2020-09-16T08:46:30Z</time>
      </trkpt>
      <trkpt lat="44.46377" lon="6.21639">
        <ele>663.1</ele>
        <time>2020-09-16T08:46:44Z</time>
      </trkpt>
      <trkpt lat="44.46426" lon="6.21663">
        <ele>665</ele>
        <time>2020-09-16T08:47:04Z</time>
      </trkpt>
      <trkpt lat="44.46473" lon="6.21675">
        <ele>668.1</ele>
        <time>2020-09-16T08:47:23Z</time>
      </trkpt>
      <trkpt lat="44.4652" lon="6.21681">
        <ele>670.4</ele>
        <time>2020-09-16T08:47:42Z</time>
      </trkpt>
      <trkpt lat="44.46576" lon="6.21687">
        <ele>671.1</ele>
        <time>2020-09-16T08:48:05Z</time>
      </trkpt>
      <trkpt lat="44.46631" lon="6.21683">
        <ele>674.4</ele>
        <time>2020-09-16T08:48:28Z</time>
      </trkpt>
      <trkpt lat="44.46689" lon="6.21681">
        <ele>680.6</ele>
        <time>2020-09-16T08:48:51Z</time>
      </trkpt>
      <trkpt lat="44.46699" lon="6.21653">
        <ele>685.1</ele>
        <time>2020-09-16T08:49:01Z</time>
      </trkpt>
      <trkpt lat="44.46691" lon="6.21603">
        <ele>688.3</ele>
        <time>2020-09-16T08:49:16Z</time>
      </trkpt>
      <trkpt lat="44.46688" lon="6.21564">
        <ele>690.6</ele>
        <time>2020-09-16T08:49:29Z</time>
      </trkpt>
      <trkpt lat="44.46688" lon="6.21522">
        <ele>692.9</ele>
        <time>2020-09-16T08:49:44Z</time>
      </trkpt>
      <trkpt lat="44.46678" lon="6.21492">
        <ele>693.2</ele>
        <time>2020-09-16T08:49:56Z</time>
      </trkpt>
      <trkpt lat="44.46659" lon="6.21451">
        <ele>693.9</ele>
        <time>2020-09-16T08:50:13Z</time>
      </trkpt>
      <trkpt lat="44.46659" lon="6.21418">
        <ele>696.3</ele>
        <time>2020-09-16T08:50:29Z</time>
      </trkpt>
      <trkpt lat="44.46679" lon="6.21409">
        <ele>698.4</ele>
        <time>2020-09-16T08:50:41Z</time>
      </trkpt>
      <trkpt lat="44.46703" lon="6.21394">
        <ele>701.2</ele>
        <time>2020-09-16T08:50:55Z</time>
      </trkpt>
      <trkpt lat="44.46731" lon="6.2138">
        <ele>704.4</ele>
        <time>2020-09-16T08:51:12Z</time>
      </trkpt>
      <trkpt lat="44.4676" lon="6.21359">
        <ele>708.7</ele>
        <time>2020-09-16T08:51:30Z</time>
      </trkpt>
      <trkpt lat="44.46788" lon="6.21339">
        <ele>713.5</ele>
        <time>2020-09-16T08:51:47Z</time>
      </trkpt>
      <trkpt lat="44.46813" lon="6.21322">
        <ele>716.9</ele>
        <time>2020-09-16T08:52:03Z</time>
      </trkpt>
      <trkpt lat="44.46839" lon="6.21307">
        <ele>720.4</ele>
        <time>2020-09-16T08:52:19Z</time>
      </trkpt>
      <trkpt lat="44.46863" lon="6.21295">
        <ele>724.4</ele>
        <time>2020-09-16T08:52:34Z</time>
      </trkpt>
      <trkpt lat="44.46883" lon="6.2128">
        <ele>727.5</ele>
        <time>2020-09-16T08:52:47Z</time>
      </trkpt>
      <trkpt lat="44.46906" lon="6.21247">
        <ele>730.7</ele>
        <time>2020-09-16T08:53:05Z</time>
      </trkpt>
      <trkpt lat="44.46935" lon="6.21245">
        <ele>736</ele>
        <time>2020-09-16T08:53:21Z</time>
      </trkpt>
      <trkpt lat="44.46961" lon="6.21242">
        <ele>740.9</ele>
        <time>2020-09-16T08:53:36Z</time>
      </trkpt>
      <trkpt lat="44.46988" lon="6.2124">
        <ele>745.9</ele>
        <time>2020-09-16T08:53:51Z</time>
      </trkpt>
      <trkpt lat="44.47014" lon="6.21246">
        <ele>748.8</ele>
        <time>2020-09-16T08:54:06Z</time>
      </trkpt>
      <trkpt lat="44.47036" lon="6.21255">
        <ele>752.6</ele>
        <time>2020-09-16T08:54:19Z</time>
      </trkpt>
      <trkpt lat="44.4705" lon="6.21279">
        <ele>758.1</ele>
        <time>2020-09-16T08:54:35Z</time>
      </trkpt>
      <trkpt lat="44.47047" lon="6.21282">
        <ele>758.1</ele>
        <time>2020-09-16T08:54:37Z</time>
      </trkpt>
      <trkpt lat="44.47045" lon="6.21284">
        <ele>758</ele>
        <time>2020-09-16T08:54:38Z</time>
      </trkpt>
      <trkpt lat="44.47044" lon="6.21285">
        <ele>758</ele>
        <time>2020-09-16T08:54:39Z</time>
      </trkpt>
      <trkpt lat="44.47042" lon="6.21286">
        <ele>757.8</ele>
        <time>2020-09-16T08:54:40Z</time>
      </trkpt>
      <trkpt lat="44.4704" lon="6.21288">
        <ele>757.8</ele>
        <time>2020-09-16T08:54:41Z</time>
      </trkpt>
      <trkpt lat="44.47039" lon="6.21289">
        <ele>757.8</ele>
        <time>2020-09-16T08:54:42Z</time>
      </trkpt>
      <trkpt lat="44.47037" lon="6.21289">
        <ele>757.5</ele>
        <time>2020-09-16T08:54:43Z</time>
      </trkpt>
      <trkpt lat="44.4703" lon="6.21294">
        <ele>757.2</ele>
        <time>2020-09-16T08:54:48Z</time>
      </trkpt>
      <trkpt lat="44.47029" lon="6.21296">
        <ele>757.3</ele>
        <time>2020-09-16T08:54:49Z</time>
      </trkpt>
      <trkpt lat="44.47028" lon="6.21297">
        <ele>757.3</ele>
        <time>2020-09-16T08:54:50Z</time>
      </trkpt>
      <trkpt lat="44.47009" lon="6.21317">
        <ele>758.1</ele>
        <time>2020-09-16T08:55:02Z</time>
      </trkpt>
      <trkpt lat="44.46995" lon="6.21351">
        <ele>763.7</ele>
        <time>2020-09-16T08:55:18Z</time>
      </trkpt>
      <trkpt lat="44.4698" lon="6.21377">
        <ele>766</ele>
        <time>2020-09-16T08:55:32Z</time>
      </trkpt>
      <trkpt lat="44.46956" lon="6.21398">
        <ele>762.2</ele>
        <time>2020-09-16T08:55:47Z</time>
      </trkpt>
      <trkpt lat="44.4694" lon="6.21427">
        <ele>761.5</ele>
        <time>2020-09-16T08:56:02Z</time>
      </trkpt>
      <trkpt lat="44.46936" lon="6.21463">
        <ele>765.8</ele>
        <time>2020-09-16T08:56:17Z</time>
      </trkpt>
      <trkpt lat="44.46922" lon="6.215">
        <ele>766.2</ele>
        <time>2020-09-16T08:56:34Z</time>
      </trkpt>
      <trkpt lat="44.46922" lon="6.21543">
        <ele>773.6</ele>
        <time>2020-09-16T08:56:51Z</time>
      </trkpt>
      <trkpt lat="44.46922" lon="6.21579">
        <ele>779.8</ele>
        <time>2020-09-16T08:57:06Z</time>
      </trkpt>
      <trkpt lat="44.46918" lon="6.21619">
        <ele>780.3</ele>
        <time>2020-09-16T08:57:22Z</time>
      </trkpt>
      <trkpt lat="44.46925" lon="6.21659">
        <ele>783.5</ele>
        <time>2020-09-16T08:57:39Z</time>
      </trkpt>
      <trkpt lat="44.46928" lon="6.21698">
        <ele>784.1</ele>
        <time>2020-09-16T08:57:55Z</time>
      </trkpt>
      <trkpt lat="44.4693" lon="6.21736">
        <ele>784.2</ele>
        <time>2020-09-16T08:58:11Z</time>
      </trkpt>
      <trkpt lat="44.46953" lon="6.21761">
        <ele>793.7</ele>
        <time>2020-09-16T08:58:27Z</time>
      </trkpt>
      <trkpt lat="44.46967" lon="6.21796">
        <ele>799.6</ele>
        <time>2020-09-16T08:58:44Z</time>
      </trkpt>
      <trkpt lat="44.46977" lon="6.21809">
        <ele>804.8</ele>
        <time>2020-09-16T08:58:52Z</time>
      </trkpt>
      <trkpt lat="44.46978" lon="6.21807">
        <ele>805.3</ele>
        <time>2020-09-16T08:58:53Z</time>
      </trkpt>
      <trkpt lat="44.46978" lon="6.21805">
        <ele>805.3</ele>
        <time>2020-09-16T08:58:54Z</time>
      </trkpt>
      <trkpt lat="44.46983" lon="6.21782">
        <ele>807.7</ele>
        <time>2020-09-16T08:59:03Z</time>
      </trkpt>
      <trkpt lat="44.46992" lon="6.21755">
        <ele>811.6</ele>
        <time>2020-09-16T08:59:15Z</time>
      </trkpt>
      <trkpt lat="44.47003" lon="6.21717">
        <ele>814</ele>
        <time>2020-09-16T08:59:32Z</time>
      </trkpt>
      <trkpt lat="44.47018" lon="6.21681">
        <ele>819.1</ele>
        <time>2020-09-16T08:59:49Z</time>
      </trkpt>
      <trkpt lat="44.47032" lon="6.2165">
        <ele>823.8</ele>
        <time>2020-09-16T09:00:04Z</time>
      </trkpt>
      <trkpt lat="44.47044" lon="6.21615">
        <ele>826.3</ele>
        <time>2020-09-16T09:00:20Z</time>
      </trkpt>
      <trkpt lat="44.47055" lon="6.21577">
        <ele>827.3</ele>
        <time>2020-09-16T09:00:37Z</time>
      </trkpt>
      <trkpt lat="44.4706" lon="6.21539">
        <ele>826.7</ele>
        <time>2020-09-16T09:00:52Z</time>
      </trkpt>
      <trkpt lat="44.47075" lon="6.21494">
        <ele>828.6</ele>
        <time>2020-09-16T09:01:12Z</time>
      </trkpt>
      <trkpt lat="44.47081" lon="6.21464">
        <ele>821.9</ele>
        <time>2020-09-16T09:01:25Z</time>
      </trkpt>
      <trkpt lat="44.47087" lon="6.21448">
        <ele>818.5</ele>
        <time>2020-09-16T09:01:34Z</time>
      </trkpt>
      <trkpt lat="44.47088" lon="6.21446">
        <ele>818.1</ele>
        <time>2020-09-16T09:01:35Z</time>
      </trkpt>
      <trkpt lat="44.47097" lon="6.21432">
        <ele>815</ele>
        <time>2020-09-16T09:01:43Z</time>
      </trkpt>
      <trkpt lat="44.47099" lon="6.21433">
        <ele>815.6</ele>
        <time>2020-09-16T09:01:44Z</time>
      </trkpt>
      <trkpt lat="44.471" lon="6.21434">
        <ele>816.2</ele>
        <time>2020-09-16T09:01:45Z</time>
      </trkpt>
      <trkpt lat="44.47101" lon="6.21436">
        <ele>817</ele>
        <time>2020-09-16T09:01:46Z</time>
      </trkpt>
      <trkpt lat="44.47102" lon="6.21439">
        <ele>818.3</ele>
        <time>2020-09-16T09:01:47Z</time>
      </trkpt>
      <trkpt lat="44.47102" lon="6.21441">
        <ele>819</ele>
        <time>2020-09-16T09:01:48Z</time>
      </trkpt>
      <trkpt lat="44.47102" lon="6.21444">
        <ele>820.1</ele>
        <time>2020-09-16T09:01:49Z</time>
      </trkpt>
      <trkpt lat="44.471" lon="6.21468">
        <ele>828.2</ele>
        <time>2020-09-16T09:01:59Z</time>
      </trkpt>
      <trkpt lat="44.47102" lon="6.21512">
        <ele>841.7</ele>
        <time>2020-09-16T09:02:16Z</time>
      </trkpt>
      <trkpt lat="44.47102" lon="6.2155">
        <ele>846.2</ele>
        <time>2020-09-16T09:02:31Z</time>
      </trkpt>
      <trkpt lat="44.47102" lon="6.2159">
        <ele>851.2</ele>
        <time>2020-09-16T09:02:47Z</time>
      </trkpt>
      <trkpt lat="44.47101" lon="6.21624">
        <ele>856.1</ele>
        <time>2020-09-16T09:03:01Z</time>
      </trkpt>
      <trkpt lat="44.47087" lon="6.21659">
        <ele>853.9</ele>
        <time>2020-09-16T09:03:17Z</time>
      </trkpt>
      <trkpt lat="44.4709" lon="6.21691">
        <ele>860.3</ele>
        <time>2020-09-16T09:03:30Z</time>
      </trkpt>
      <trkpt lat="44.47092" lon="6.21724">
        <ele>866.1</ele>
        <time>2020-09-16T09:03:44Z</time>
      </trkpt>
      <trkpt lat="44.47086" lon="6.2177">
        <ele>868</ele>
        <time>2020-09-16T09:04:02Z</time>
      </trkpt>
      <trkpt lat="44.47084" lon="6.21784">
        <ele>867.8</ele>
        <time>2020-09-16T09:04:08Z</time>
      </trkpt>
      <trkpt lat="44.47083" lon="6.21787">
        <ele>867.5</ele>
        <time>2020-09-16T09:04:09Z</time>
      </trkpt>
      <trkpt lat="44.47083" lon="6.21789">
        <ele>867.6</ele>
        <time>2020-09-16T09:04:10Z</time>
      </trkpt>
      <trkpt lat="44.47083" lon="6.21792">
        <ele>867.8</ele>
        <time>2020-09-16T09:04:11Z</time>
      </trkpt>
      <trkpt lat="44.47083" lon="6.21794">
        <ele>868</ele>
        <time>2020-09-16T09:04:12Z</time>
      </trkpt>
      <trkpt lat="44.47083" lon="6.21829">
        <ele>870.5</ele>
        <time>2020-09-16T09:04:26Z</time>
      </trkpt>
      <trkpt lat="44.47085" lon="6.2183">
        <ele>871.8</ele>
        <time>2020-09-16T09:04:27Z</time>
      </trkpt>
      <trkpt lat="44.47086" lon="6.21831">
        <ele>872.5</ele>
        <time>2020-09-16T09:04:28Z</time>
      </trkpt>
      <trkpt lat="44.47088" lon="6.21831">
        <ele>873.8</ele>
        <time>2020-09-16T09:04:29Z</time>
      </trkpt>
      <trkpt lat="44.47089" lon="6.2183">
        <ele>874.3</ele>
        <time>2020-09-16T09:04:30Z</time>
      </trkpt>
      <trkpt lat="44.4709" lon="6.21828">
        <ele>874.8</ele>
        <time>2020-09-16T09:04:31Z</time>
      </trkpt>
      <trkpt lat="44.4709" lon="6.21826">
        <ele>874.7</ele>
        <time>2020-09-16T09:04:32Z</time>
      </trkpt>
      <trkpt lat="44.4709" lon="6.21823">
        <ele>874.4</ele>
        <time>2020-09-16T09:04:33Z</time>
      </trkpt>
      <trkpt lat="44.4709" lon="6.21821">
        <ele>874.3</ele>
        <time>2020-09-16T09:04:34Z</time>
      </trkpt>
      <trkpt lat="44.47097" lon="6.21781">
        <ele>875.3</ele>
        <time>2020-09-16T09:04:50Z</time>
      </trkpt>
      <trkpt lat="44.47111" lon="6.2174">
        <ele>879.2</ele>
        <time>2020-09-16T09:05:08Z</time>
      </trkpt>
      <trkpt lat="44.4712" lon="6.21711">
        <ele>880.1</ele>
        <time>2020-09-16T09:05:21Z</time>
      </trkpt>
      <trkpt lat="44.47135" lon="6.2168">
        <ele>884.1</ele>
        <time>2020-09-16T09:05:36Z</time>
      </trkpt>
      <trkpt lat="44.47151" lon="6.21645">
        <ele>887.4</ele>
        <time>2020-09-16T09:05:52Z</time>
      </trkpt>
      <trkpt lat="44.47157" lon="6.21609">
        <ele>884.3</ele>
        <time>2020-09-16T09:06:08Z</time>
      </trkpt>
      <trkpt lat="44.47164" lon="6.21595">
        <ele>885.7</ele>
        <time>2020-09-16T09:06:15Z</time>
      </trkpt>
      <trkpt lat="44.47165" lon="6.21596">
        <ele>886.4</ele>
        <time>2020-09-16T09:06:16Z</time>
      </trkpt>
      <trkpt lat="44.47167" lon="6.21597">
        <ele>887.6</ele>
        <time>2020-09-16T09:06:17Z</time>
      </trkpt>
      <trkpt lat="44.47168" lon="6.21599">
        <ele>888.3</ele>
        <time>2020-09-16T09:06:18Z</time>
      </trkpt>
      <trkpt lat="44.47168" lon="6.21601">
        <ele>888.6</ele>
        <time>2020-09-16T09:06:19Z</time>
      </trkpt>
      <trkpt lat="44.47167" lon="6.21604">
        <ele>888.8</ele>
        <time>2020-09-16T09:06:20Z</time>
      </trkpt>
      <trkpt lat="44.47167" lon="6.21606">
        <ele>889.2</ele>
        <time>2020-09-16T09:06:21Z</time>
      </trkpt>
      <trkpt lat="44.47164" lon="6.21648">
        <ele>895.2</ele>
        <time>2020-09-16T09:06:37Z</time>
      </trkpt>
      <trkpt lat="44.47162" lon="6.2168">
        <ele>899.3</ele>
        <time>2020-09-16T09:06:50Z</time>
      </trkpt>
      <trkpt lat="44.47161" lon="6.21682">
        <ele>899</ele>
        <time>2020-09-16T09:06:51Z</time>
      </trkpt>
      <trkpt lat="44.4716" lon="6.21684">
        <ele>898.7</ele>
        <time>2020-09-16T09:06:52Z</time>
      </trkpt>
      <trkpt lat="44.4716" lon="6.21686">
        <ele>899</ele>
        <time>2020-09-16T09:06:53Z</time>
      </trkpt>
      <trkpt lat="44.47159" lon="6.21689">
        <ele>898.9</ele>
        <time>2020-09-16T09:06:54Z</time>
      </trkpt>
      <trkpt lat="44.47154" lon="6.2172">
        <ele>900.5</ele>
        <time>2020-09-16T09:07:07Z</time>
      </trkpt>
      <trkpt lat="44.47154" lon="6.21722">
        <ele>900.8</ele>
        <time>2020-09-16T09:07:08Z</time>
      </trkpt>
      <trkpt lat="44.47155" lon="6.21724">
        <ele>901.7</ele>
        <time>2020-09-16T09:07:09Z</time>
      </trkpt>
      <trkpt lat="44.47155" lon="6.21726">
        <ele>902</ele>
        <time>2020-09-16T09:07:10Z</time>
      </trkpt>
      <trkpt lat="44.47156" lon="6.21729">
        <ele>903</ele>
        <time>2020-09-16T09:07:11Z</time>
      </trkpt>
      <trkpt lat="44.47156" lon="6.21731">
        <ele>903.2</ele>
        <time>2020-09-16T09:07:12Z</time>
      </trkpt>
      <trkpt lat="44.47156" lon="6.21733">
        <ele>903.5</ele>
        <time>2020-09-16T09:07:13Z</time>
      </trkpt>
      <trkpt lat="44.47156" lon="6.21736">
        <ele>904</ele>
        <time>2020-09-16T09:07:14Z</time>
      </trkpt>
      <trkpt lat="44.47156" lon="6.21742">
        <ele>904.8</ele>
        <time>2020-09-16T09:07:17Z</time>
      </trkpt>
      <trkpt lat="44.47155" lon="6.21745">
        <ele>904.7</ele>
        <time>2020-09-16T09:07:18Z</time>
      </trkpt>
      <trkpt lat="44.47154" lon="6.21748">
        <ele>904.6</ele>
        <time>2020-09-16T09:07:19Z</time>
      </trkpt>
      <trkpt lat="44.47154" lon="6.2175">
        <ele>904.9</ele>
        <time>2020-09-16T09:07:20Z</time>
      </trkpt>
      <trkpt lat="44.47153" lon="6.21753">
        <ele>904.7</ele>
        <time>2020-09-16T09:07:21Z</time>
      </trkpt>
      <trkpt lat="44.47152" lon="6.21754">
        <ele>904.3</ele>
        <time>2020-09-16T09:07:22Z</time>
      </trkpt>
      <trkpt lat="44.47151" lon="6.21756">
        <ele>903.9</ele>
        <time>2020-09-16T09:07:23Z</time>
      </trkpt>
      <trkpt lat="44.47149" lon="6.21758">
        <ele>903.1</ele>
        <time>2020-09-16T09:07:24Z</time>
      </trkpt>
      <trkpt lat="44.47145" lon="6.21763">
        <ele>901.4</ele>
        <time>2020-09-16T09:07:27Z</time>
      </trkpt>
      <trkpt lat="44.47142" lon="6.21772">
        <ele>900.8</ele>
        <time>2020-09-16T09:07:31Z</time>
      </trkpt>
      <trkpt lat="44.47154" lon="6.21773">
        <ele>907.9</ele>
        <time>2020-09-16T09:07:41Z</time>
      </trkpt>
      <trkpt lat="44.47157" lon="6.21767">
        <ele>908.9</ele>
        <time>2020-09-16T09:07:44Z</time>
      </trkpt>
      <trkpt lat="44.47162" lon="6.21764">
        <ele>911.3</ele>
        <time>2020-09-16T09:07:47Z</time>
      </trkpt>
      <trkpt lat="44.47167" lon="6.21756">
        <ele>913</ele>
        <time>2020-09-16T09:07:51Z</time>
      </trkpt>
      <trkpt lat="44.47186" lon="6.21717">
        <ele>915.8</ele>
        <time>2020-09-16T09:08:09Z</time>
      </trkpt>
      <trkpt lat="44.47199" lon="6.21684">
        <ele>915.6</ele>
        <time>2020-09-16T09:08:24Z</time>
      </trkpt>
      <trkpt lat="44.47218" lon="6.21669">
        <ele>920.2</ele>
        <time>2020-09-16T09:08:39Z</time>
      </trkpt>
      <trkpt lat="44.47236" lon="6.21665">
        <ele>926.2</ele>
        <time>2020-09-16T09:08:50Z</time>
      </trkpt>
      <trkpt lat="44.47247" lon="6.21641">
        <ele>924.7</ele>
        <time>2020-09-16T09:09:02Z</time>
      </trkpt>
      <trkpt lat="44.47259" lon="6.21627">
        <ele>925.5</ele>
        <time>2020-09-16T09:09:11Z</time>
      </trkpt>
      <trkpt lat="44.4726" lon="6.21626">
        <ele>925.6</ele>
        <time>2020-09-16T09:09:12Z</time>
      </trkpt>
      <trkpt lat="44.47262" lon="6.21625">
        <ele>926</ele>
        <time>2020-09-16T09:09:13Z</time>
      </trkpt>
      <trkpt lat="44.47283" lon="6.21609">
        <ele>927.8</ele>
        <time>2020-09-16T09:09:27Z</time>
      </trkpt>
      <trkpt lat="44.47288" lon="6.21604">
        <ele>927.5</ele>
        <time>2020-09-16T09:09:31Z</time>
      </trkpt>
      <trkpt lat="44.4729" lon="6.21603">
        <ele>927.8</ele>
        <time>2020-09-16T09:09:32Z</time>
      </trkpt>
      <trkpt lat="44.47291" lon="6.21602">
        <ele>927.7</ele>
        <time>2020-09-16T09:09:33Z</time>
      </trkpt>
      <trkpt lat="44.47293" lon="6.21601">
        <ele>927.9</ele>
        <time>2020-09-16T09:09:34Z</time>
      </trkpt>
      <trkpt lat="44.47295" lon="6.21601">
        <ele>928.4</ele>
        <time>2020-09-16T09:09:35Z</time>
      </trkpt>
      <trkpt lat="44.47297" lon="6.216">
        <ele>928.6</ele>
        <time>2020-09-16T09:09:36Z</time>
      </trkpt>
      <trkpt lat="44.47299" lon="6.216">
        <ele>929.2</ele>
        <time>2020-09-16T09:09:37Z</time>
      </trkpt>
      <trkpt lat="44.47301" lon="6.216">
        <ele>929.7</ele>
        <time>2020-09-16T09:09:38Z</time>
      </trkpt>
      <trkpt lat="44.4732" lon="6.2159">
        <ele>930.7</ele>
        <time>2020-09-16T09:09:50Z</time>
      </trkpt>
      <trkpt lat="44.47326" lon="6.21589">
        <ele>931.7</ele>
        <time>2020-09-16T09:09:54Z</time>
      </trkpt>
      <trkpt lat="44.47327" lon="6.21588">
        <ele>931.6</ele>
        <time>2020-09-16T09:09:55Z</time>
      </trkpt>
      <trkpt lat="44.47329" lon="6.21588">
        <ele>932</ele>
        <time>2020-09-16T09:09:56Z</time>
      </trkpt>
      <trkpt lat="44.47331" lon="6.21587">
        <ele>932.1</ele>
        <time>2020-09-16T09:09:57Z</time>
      </trkpt>
      <trkpt lat="44.47332" lon="6.21586">
        <ele>931.9</ele>
        <time>2020-09-16T09:09:58Z</time>
      </trkpt>
      <trkpt lat="44.47334" lon="6.21586">
        <ele>932.2</ele>
        <time>2020-09-16T09:09:59Z</time>
      </trkpt>
      <trkpt lat="44.47335" lon="6.21585">
        <ele>931.7</ele>
        <time>2020-09-16T09:10:00Z</time>
      </trkpt>
      <trkpt lat="44.47338" lon="6.21584">
        <ele>931.3</ele>
        <time>2020-09-16T09:10:02Z</time>
      </trkpt>
      <trkpt lat="44.47339" lon="6.21584">
        <ele>931.3</ele>
        <time>2020-09-16T09:10:03Z</time>
      </trkpt>
      <trkpt lat="44.47345" lon="6.21583">
        <ele>930.8</ele>
        <time>2020-09-16T09:10:07Z</time>
      </trkpt>
      <trkpt lat="44.47347" lon="6.2158">
        <ele>929.4</ele>
        <time>2020-09-16T09:10:09Z</time>
      </trkpt>
      <trkpt lat="44.47352" lon="6.21577">
        <ele>927.9</ele>
        <time>2020-09-16T09:10:12Z</time>
      </trkpt>
      <trkpt lat="44.47354" lon="6.21576">
        <ele>927.5</ele>
        <time>2020-09-16T09:10:13Z</time>
      </trkpt>
      <trkpt lat="44.47356" lon="6.21575">
        <ele>927</ele>
        <time>2020-09-16T09:10:14Z</time>
      </trkpt>
      <trkpt lat="44.47358" lon="6.21574">
        <ele>926.5</ele>
        <time>2020-09-16T09:10:15Z</time>
      </trkpt>
      <trkpt lat="44.4736" lon="6.21573">
        <ele>926</ele>
        <time>2020-09-16T09:10:16Z</time>
      </trkpt>
      <trkpt lat="44.47362" lon="6.21572">
        <ele>925.5</ele>
        <time>2020-09-16T09:10:17Z</time>
      </trkpt>
      <trkpt lat="44.47383" lon="6.21573">
        <ele>926</ele>
        <time>2020-09-16T09:10:27Z</time>
      </trkpt>
      <trkpt lat="44.47397" lon="6.21587">
        <ele>932.7</ele>
        <time>2020-09-16T09:10:36Z</time>
      </trkpt>
      <trkpt lat="44.47398" lon="6.21588">
        <ele>933.1</ele>
        <time>2020-09-16T09:10:37Z</time>
      </trkpt>
      <trkpt lat="44.474" lon="6.21589">
        <ele>933.6</ele>
        <time>2020-09-16T09:10:38Z</time>
      </trkpt>
      <trkpt lat="44.47406" lon="6.21595">
        <ele>936.3</ele>
        <time>2020-09-16T09:10:42Z</time>
      </trkpt>
      <trkpt lat="44.47407" lon="6.21597">
        <ele>937.2</ele>
        <time>2020-09-16T09:10:43Z</time>
      </trkpt>
      <trkpt lat="44.47409" lon="6.21598">
        <ele>937.7</ele>
        <time>2020-09-16T09:10:44Z</time>
      </trkpt>
      <trkpt lat="44.4741" lon="6.21599">
        <ele>938.1</ele>
        <time>2020-09-16T09:10:45Z</time>
      </trkpt>
      <trkpt lat="44.47412" lon="6.21601">
        <ele>939</ele>
        <time>2020-09-16T09:10:46Z</time>
      </trkpt>
      <trkpt lat="44.47429" lon="6.21613">
        <ele>943.2</ele>
        <time>2020-09-16T09:10:57Z</time>
      </trkpt>
      <trkpt lat="44.47432" lon="6.21617">
        <ele>944.7</ele>
        <time>2020-09-16T09:10:59Z</time>
      </trkpt>
      <trkpt lat="44.47433" lon="6.21619">
        <ele>945.4</ele>
        <time>2020-09-16T09:11:00Z</time>
      </trkpt>
      <trkpt lat="44.4745" lon="6.21633">
        <ele>949.7</ele>
        <time>2020-09-16T09:11:12Z</time>
      </trkpt>
      <trkpt lat="44.4745" lon="6.21635">
        <ele>950.6</ele>
        <time>2020-09-16T09:11:13Z</time>
      </trkpt>
      <trkpt lat="44.4745" lon="6.2164">
        <ele>952.8</ele>
        <time>2020-09-16T09:11:15Z</time>
      </trkpt>
      <trkpt lat="44.47448" lon="6.21641">
        <ele>953.5</ele>
        <time>2020-09-16T09:11:16Z</time>
      </trkpt>
      <trkpt lat="44.47446" lon="6.21641">
        <ele>953.7</ele>
        <time>2020-09-16T09:11:17Z</time>
      </trkpt>
      <trkpt lat="44.47444" lon="6.21641">
        <ele>954</ele>
        <time>2020-09-16T09:11:18Z</time>
      </trkpt>
      <trkpt lat="44.47442" lon="6.21641">
        <ele>954.2</ele>
        <time>2020-09-16T09:11:19Z</time>
      </trkpt>
      <trkpt lat="44.47441" lon="6.2164">
        <ele>953.9</ele>
        <time>2020-09-16T09:11:20Z</time>
      </trkpt>
      <trkpt lat="44.47439" lon="6.21639">
        <ele>953.7</ele>
        <time>2020-09-16T09:11:21Z</time>
      </trkpt>
      <trkpt lat="44.47438" lon="6.21638">
        <ele>953.4</ele>
        <time>2020-09-16T09:11:22Z</time>
      </trkpt>
      <trkpt lat="44.47436" lon="6.21637">
        <ele>953.2</ele>
        <time>2020-09-16T09:11:23Z</time>
      </trkpt>
      <trkpt lat="44.47434" lon="6.21636">
        <ele>953</ele>
        <time>2020-09-16T09:11:24Z</time>
      </trkpt>
      <trkpt lat="44.47433" lon="6.21635">
        <ele>952.6</ele>
        <time>2020-09-16T09:11:25Z</time>
      </trkpt>
      <trkpt lat="44.47431" lon="6.21635">
        <ele>952.9</ele>
        <time>2020-09-16T09:11:26Z</time>
      </trkpt>
      <trkpt lat="44.47429" lon="6.21634">
        <ele>952.7</ele>
        <time>2020-09-16T09:11:27Z</time>
      </trkpt>
      <trkpt lat="44.47428" lon="6.21632">
        <ele>951.9</ele>
        <time>2020-09-16T09:11:28Z</time>
      </trkpt>
      <trkpt lat="44.47405" lon="6.21618">
        <ele>946.7</ele>
        <time>2020-09-16T09:11:40Z</time>
      </trkpt>
      <trkpt lat="44.47376" lon="6.21611">
        <ele>943.5</ele>
        <time>2020-09-16T09:11:56Z</time>
      </trkpt>
      <trkpt lat="44.47355" lon="6.21628">
        <ele>951</ele>
        <time>2020-09-16T09:12:10Z</time>
      </trkpt>
      <trkpt lat="44.47335" lon="6.21658">
        <ele>964.2</ele>
        <time>2020-09-16T09:12:27Z</time>
      </trkpt>
      <trkpt lat="44.47316" lon="6.21685">
        <ele>966</ele>
        <time>2020-09-16T09:12:42Z</time>
      </trkpt>
      <trkpt lat="44.47314" lon="6.21688">
        <ele>965.9</ele>
        <time>2020-09-16T09:12:43Z</time>
      </trkpt>
      <trkpt lat="44.47312" lon="6.2169">
        <ele>965.6</ele>
        <time>2020-09-16T09:12:44Z</time>
      </trkpt>
      <trkpt lat="44.47311" lon="6.21692">
        <ele>965.8</ele>
        <time>2020-09-16T09:12:45Z</time>
      </trkpt>
      <trkpt lat="44.47309" lon="6.21694">
        <ele>965.4</ele>
        <time>2020-09-16T09:12:46Z</time>
      </trkpt>
      <trkpt lat="44.47308" lon="6.21695">
        <ele>965.3</ele>
        <time>2020-09-16T09:12:47Z</time>
      </trkpt>
      <trkpt lat="44.47307" lon="6.21697">
        <ele>965.4</ele>
        <time>2020-09-16T09:12:48Z</time>
      </trkpt>
      <trkpt lat="44.47306" lon="6.217">
        <ele>965.8</ele>
        <time>2020-09-16T09:12:49Z</time>
      </trkpt>
      <trkpt lat="44.47304" lon="6.21702">
        <ele>965.5</ele>
        <time>2020-09-16T09:12:50Z</time>
      </trkpt>
      <trkpt lat="44.47304" lon="6.21707">
        <ele>966.9</ele>
        <time>2020-09-16T09:12:52Z</time>
      </trkpt>
      <trkpt lat="44.47304" lon="6.2171">
        <ele>967.7</ele>
        <time>2020-09-16T09:12:53Z</time>
      </trkpt>
      <trkpt lat="44.47306" lon="6.21712">
        <ele>969.3</ele>
        <time>2020-09-16T09:12:54Z</time>
      </trkpt>
      <trkpt lat="44.47307" lon="6.21713">
        <ele>970</ele>
        <time>2020-09-16T09:12:55Z</time>
      </trkpt>
      <trkpt lat="44.47309" lon="6.21714">
        <ele>971.3</ele>
        <time>2020-09-16T09:12:56Z</time>
      </trkpt>
      <trkpt lat="44.4731" lon="6.21713">
        <ele>971.4</ele>
        <time>2020-09-16T09:12:57Z</time>
      </trkpt>
      <trkpt lat="44.47312" lon="6.21712">
        <ele>972.1</ele>
        <time>2020-09-16T09:12:58Z</time>
      </trkpt>
      <trkpt lat="44.47313" lon="6.2171">
        <ele>972</ele>
        <time>2020-09-16T09:12:59Z</time>
      </trkpt>
      <trkpt lat="44.47332" lon="6.21686">
        <ele>973.4</ele>
        <time>2020-09-16T09:13:13Z</time>
      </trkpt>
      <trkpt lat="44.4735" lon="6.21668">
        <ele>968.6</ele>
        <time>2020-09-16T09:13:26Z</time>
      </trkpt>
      <trkpt lat="44.47352" lon="6.21667">
        <ele>968.3</ele>
        <time>2020-09-16T09:13:27Z</time>
      </trkpt>
      <trkpt lat="44.47353" lon="6.21666">
        <ele>967.9</ele>
        <time>2020-09-16T09:13:28Z</time>
      </trkpt>
      <trkpt lat="44.47354" lon="6.21665">
        <ele>967.5</ele>
        <time>2020-09-16T09:13:29Z</time>
      </trkpt>
      <trkpt lat="44.47355" lon="6.21664">
        <ele>967.1</ele>
        <time>2020-09-16T09:13:30Z</time>
      </trkpt>
      <trkpt lat="44.47357" lon="6.21663">
        <ele>966.6</ele>
        <time>2020-09-16T09:13:31Z</time>
      </trkpt>
      <trkpt lat="44.47359" lon="6.21663">
        <ele>966.7</ele>
        <time>2020-09-16T09:13:32Z</time>
      </trkpt>
      <trkpt lat="44.4736" lon="6.21662">
        <ele>966.2</ele>
        <time>2020-09-16T09:13:33Z</time>
      </trkpt>
      <trkpt lat="44.47362" lon="6.21661">
        <ele>965.8</ele>
        <time>2020-09-16T09:13:34Z</time>
      </trkpt>
      <trkpt lat="44.47364" lon="6.2166">
        <ele>965.4</ele>
        <time>2020-09-16T09:13:35Z</time>
      </trkpt>
      <trkpt lat="44.47366" lon="6.21659">
        <ele>965</ele>
        <time>2020-09-16T09:13:36Z</time>
      </trkpt>
      <trkpt lat="44.47368" lon="6.21659">
        <ele>965</ele>
        <time>2020-09-16T09:13:37Z</time>
      </trkpt>
      <trkpt lat="44.4737" lon="6.21658">
        <ele>964.5</ele>
        <time>2020-09-16T09:13:38Z</time>
      </trkpt>
      <trkpt lat="44.47391" lon="6.21669">
        <ele>969.5</ele>
        <time>2020-09-16T09:13:50Z</time>
      </trkpt>
      <trkpt lat="44.47409" lon="6.21688">
        <ele>977</ele>
        <time>2020-09-16T09:14:02Z</time>
      </trkpt>
      <trkpt lat="44.47426" lon="6.21721">
        <ele>989.1</ele>
        <time>2020-09-16T09:14:18Z</time>
      </trkpt>
      <trkpt lat="44.47449" lon="6.21724">
        <ele>988.3</ele>
        <time>2020-09-16T09:14:32Z</time>
      </trkpt>
      <trkpt lat="44.4747" lon="6.2173">
        <ele>989.2</ele>
        <time>2020-09-16T09:14:44Z</time>
      </trkpt>
      <trkpt lat="44.47496" lon="6.21738">
        <ele>990.8</ele>
        <time>2020-09-16T09:15:00Z</time>
      </trkpt>
      <trkpt lat="44.47517" lon="6.21744">
        <ele>989.4</ele>
        <time>2020-09-16T09:15:13Z</time>
      </trkpt>
      <trkpt lat="44.47535" lon="6.21753">
        <ele>988.7</ele>
        <time>2020-09-16T09:15:23Z</time>
      </trkpt>
      <trkpt lat="44.4754" lon="6.21763">
        <ele>991.3</ele>
        <time>2020-09-16T09:15:28Z</time>
      </trkpt>
      <trkpt lat="44.4754" lon="6.21765">
        <ele>992.1</ele>
        <time>2020-09-16T09:15:29Z</time>
      </trkpt>
      <trkpt lat="44.47539" lon="6.21767">
        <ele>993.1</ele>
        <time>2020-09-16T09:15:30Z</time>
      </trkpt>
      <trkpt lat="44.47537" lon="6.21768">
        <ele>993.9</ele>
        <time>2020-09-16T09:15:31Z</time>
      </trkpt>
      <trkpt lat="44.47536" lon="6.21767">
        <ele>993.8</ele>
        <time>2020-09-16T09:15:32Z</time>
      </trkpt>
      <trkpt lat="44.47534" lon="6.21767">
        <ele>994.2</ele>
        <time>2020-09-16T09:15:33Z</time>
      </trkpt>
      <trkpt lat="44.47532" lon="6.21766">
        <ele>994.3</ele>
        <time>2020-09-16T09:15:34Z</time>
      </trkpt>
      <trkpt lat="44.47509" lon="6.21763">
        <ele>998.7</ele>
        <time>2020-09-16T09:15:47Z</time>
      </trkpt>
      <trkpt lat="44.47481" lon="6.21771">
        <ele>1004.6</ele>
        <time>2020-09-16T09:16:03Z</time>
      </trkpt>
      <trkpt lat="44.47453" lon="6.21784">
        <ele>1010.1</ele>
        <time>2020-09-16T09:16:20Z</time>
      </trkpt>
      <trkpt lat="44.47427" lon="6.21791">
        <ele>1013</ele>
        <time>2020-09-16T09:16:35Z</time>
      </trkpt>
      <trkpt lat="44.47411" lon="6.21803">
        <ele>1016.2</ele>
        <time>2020-09-16T09:16:45Z</time>
      </trkpt>
      <trkpt lat="44.4741" lon="6.21805">
        <ele>1016.7</ele>
        <time>2020-09-16T09:16:46Z</time>
      </trkpt>
      <trkpt lat="44.47409" lon="6.21807">
        <ele>1017.1</ele>
        <time>2020-09-16T09:16:47Z</time>
      </trkpt>
      <trkpt lat="44.47389" lon="6.21813">
        <ele>1016.3</ele>
        <time>2020-09-16T09:16:59Z</time>
      </trkpt>
      <trkpt lat="44.47362" lon="6.21821">
        <ele>1014.9</ele>
        <time>2020-09-16T09:17:15Z</time>
      </trkpt>
      <trkpt lat="44.4735" lon="6.21856">
        <ele>1020.4</ele>
        <time>2020-09-16T09:17:28Z</time>
      </trkpt>
      <trkpt lat="44.47347" lon="6.21863">
        <ele>1021.2</ele>
        <time>2020-09-16T09:17:31Z</time>
      </trkpt>
      <trkpt lat="44.47336" lon="6.21908">
        <ele>1027</ele>
        <time>2020-09-16T09:17:50Z</time>
      </trkpt>
      <trkpt lat="44.47342" lon="6.21929">
        <ele>1031.9</ele>
        <time>2020-09-16T09:18:01Z</time>
      </trkpt>
      <trkpt lat="44.47343" lon="6.21928">
        <ele>1031.9</ele>
        <time>2020-09-16T09:18:02Z</time>
      </trkpt>
      <trkpt lat="44.47345" lon="6.21927">
        <ele>1032.2</ele>
        <time>2020-09-16T09:18:03Z</time>
      </trkpt>
      <trkpt lat="44.47363" lon="6.21914">
        <ele>1033.2</ele>
        <time>2020-09-16T09:18:17Z</time>
      </trkpt>
      <trkpt lat="44.47387" lon="6.21901">
        <ele>1035.2</ele>
        <time>2020-09-16T09:18:32Z</time>
      </trkpt>
      <trkpt lat="44.4739" lon="6.21899">
        <ele>1035.3</ele>
        <time>2020-09-16T09:18:34Z</time>
      </trkpt>
      <trkpt lat="44.47392" lon="6.219">
        <ele>1035.9</ele>
        <time>2020-09-16T09:18:35Z</time>
      </trkpt>
      <trkpt lat="44.47394" lon="6.219">
        <ele>1036.3</ele>
        <time>2020-09-16T09:18:36Z</time>
      </trkpt>
      <trkpt lat="44.47396" lon="6.219">
        <ele>1036.6</ele>
        <time>2020-09-16T09:18:37Z</time>
      </trkpt>
      <trkpt lat="44.47398" lon="6.21899">
        <ele>1036.8</ele>
        <time>2020-09-16T09:18:38Z</time>
      </trkpt>
      <trkpt lat="44.474" lon="6.21899">
        <ele>1037.2</ele>
        <time>2020-09-16T09:18:39Z</time>
      </trkpt>
      <trkpt lat="44.47401" lon="6.21898">
        <ele>1037.1</ele>
        <time>2020-09-16T09:18:40Z</time>
      </trkpt>
      <trkpt lat="44.47403" lon="6.21897">
        <ele>1037.3</ele>
        <time>2020-09-16T09:18:41Z</time>
      </trkpt>
      <trkpt lat="44.47434" lon="6.21884">
        <ele>1037.5</ele>
        <time>2020-09-16T09:19:00Z</time>
      </trkpt>
      <trkpt lat="44.47455" lon="6.21871">
        <ele>1035.2</ele>
        <time>2020-09-16T09:19:15Z</time>
      </trkpt>
      <trkpt lat="44.47457" lon="6.21872">
        <ele>1035.5</ele>
        <time>2020-09-16T09:19:16Z</time>
      </trkpt>
      <trkpt lat="44.47479" lon="6.2188">
        <ele>1038.1</ele>
        <time>2020-09-16T09:19:29Z</time>
      </trkpt>
      <trkpt lat="44.47481" lon="6.21882">
        <ele>1038.6</ele>
        <time>2020-09-16T09:19:30Z</time>
      </trkpt>
      <trkpt lat="44.47482" lon="6.21883">
        <ele>1038.9</ele>
        <time>2020-09-16T09:19:31Z</time>
      </trkpt>
      <trkpt lat="44.47495" lon="6.219">
        <ele>1043.6</ele>
        <time>2020-09-16T09:19:40Z</time>
      </trkpt>
      <trkpt lat="44.47494" lon="6.21902">
        <ele>1044.1</ele>
        <time>2020-09-16T09:19:41Z</time>
      </trkpt>
      <trkpt lat="44.47493" lon="6.21904">
        <ele>1044.5</ele>
        <time>2020-09-16T09:19:42Z</time>
      </trkpt>
      <trkpt lat="44.47491" lon="6.21904">
        <ele>1044.4</ele>
        <time>2020-09-16T09:19:43Z</time>
      </trkpt>
      <trkpt lat="44.47489" lon="6.21904">
        <ele>1044.3</ele>
        <time>2020-09-16T09:19:44Z</time>
      </trkpt>
      <trkpt lat="44.47488" lon="6.21903">
        <ele>1044.1</ele>
        <time>2020-09-16T09:19:45Z</time>
      </trkpt>
      <trkpt lat="44.47486" lon="6.21902">
        <ele>1043.7</ele>
        <time>2020-09-16T09:19:46Z</time>
      </trkpt>
      <trkpt lat="44.47484" lon="6.21901">
        <ele>1043.4</ele>
        <time>2020-09-16T09:19:47Z</time>
      </trkpt>
      <trkpt lat="44.47483" lon="6.219">
        <ele>1043.1</ele>
        <time>2020-09-16T09:19:48Z</time>
      </trkpt>
      <trkpt lat="44.47459" lon="6.21901">
        <ele>1042.4</ele>
        <time>2020-09-16T09:20:02Z</time>
      </trkpt>
      <trkpt lat="44.47444" lon="6.21928">
        <ele>1047.7</ele>
        <time>2020-09-16T09:20:15Z</time>
      </trkpt>
      <trkpt lat="44.47413" lon="6.21951">
        <ele>1050.7</ele>
        <time>2020-09-16T09:20:34Z</time>
      </trkpt>
      <trkpt lat="44.47388" lon="6.21969">
        <ele>1049.2</ele>
        <time>2020-09-16T09:20:50Z</time>
      </trkpt>
      <trkpt lat="44.47381" lon="6.21999">
        <ele>1053.7</ele>
        <time>2020-09-16T09:21:03Z</time>
      </trkpt>
      <trkpt lat="44.47377" lon="6.22039">
        <ele>1057.7</ele>
        <time>2020-09-16T09:21:19Z</time>
      </trkpt>
      <trkpt lat="44.47376" lon="6.22084">
        <ele>1062.8</ele>
        <time>2020-09-16T09:21:37Z</time>
      </trkpt>
      <trkpt lat="44.47373" lon="6.22132">
        <ele>1063.9</ele>
        <time>2020-09-16T09:21:57Z</time>
      </trkpt>
      <trkpt lat="44.47368" lon="6.2217">
        <ele>1063.5</ele>
        <time>2020-09-16T09:22:13Z</time>
      </trkpt>
      <trkpt lat="44.47367" lon="6.22199">
        <ele>1065</ele>
        <time>2020-09-16T09:22:26Z</time>
      </trkpt>
      <trkpt lat="44.47375" lon="6.22234">
        <ele>1071.7</ele>
        <time>2020-09-16T09:22:40Z</time>
      </trkpt>
      <trkpt lat="44.47375" lon="6.22253">
        <ele>1073</ele>
        <time>2020-09-16T09:22:48Z</time>
      </trkpt>
      <trkpt lat="44.47375" lon="6.2226">
        <ele>1072.9</ele>
        <time>2020-09-16T09:22:51Z</time>
      </trkpt>
      <trkpt lat="44.47375" lon="6.22262">
        <ele>1072.9</ele>
        <time>2020-09-16T09:22:52Z</time>
      </trkpt>
      <trkpt lat="44.47374" lon="6.22265">
        <ele>1072.3</ele>
        <time>2020-09-16T09:22:53Z</time>
      </trkpt>
      <trkpt lat="44.47379" lon="6.22301">
        <ele>1075.2</ele>
        <time>2020-09-16T09:23:07Z</time>
      </trkpt>
      <trkpt lat="44.47391" lon="6.2234">
        <ele>1080.7</ele>
        <time>2020-09-16T09:23:24Z</time>
      </trkpt>
      <trkpt lat="44.47413" lon="6.22353">
        <ele>1090.2</ele>
        <time>2020-09-16T09:23:39Z</time>
      </trkpt>
      <trkpt lat="44.47438" lon="6.2236">
        <ele>1094.8</ele>
        <time>2020-09-16T09:23:53Z</time>
      </trkpt>
      <trkpt lat="44.47458" lon="6.22365">
        <ele>1098.3</ele>
        <time>2020-09-16T09:24:05Z</time>
      </trkpt>
      <trkpt lat="44.4746" lon="6.22365">
        <ele>1098.7</ele>
        <time>2020-09-16T09:24:06Z</time>
      </trkpt>
      <trkpt lat="44.47473" lon="6.22369">
        <ele>1101.2</ele>
        <time>2020-09-16T09:24:14Z</time>
      </trkpt>
      <trkpt lat="44.47474" lon="6.2237">
        <ele>1101.3</ele>
        <time>2020-09-16T09:24:15Z</time>
      </trkpt>
      <trkpt lat="44.47475" lon="6.22371">
        <ele>1101.4</ele>
        <time>2020-09-16T09:24:16Z</time>
      </trkpt>
      <trkpt lat="44.47476" lon="6.22371">
        <ele>1101.6</ele>
        <time>2020-09-16T09:24:17Z</time>
      </trkpt>
      <trkpt lat="44.47477" lon="6.22372">
        <ele>1101.8</ele>
        <time>2020-09-16T09:24:18Z</time>
      </trkpt>
      <trkpt lat="44.47478" lon="6.22374">
        <ele>1101.7</ele>
        <time>2020-09-16T09:24:19Z</time>
      </trkpt>
      <trkpt lat="44.47479" lon="6.22375">
        <ele>1101.8</ele>
        <time>2020-09-16T09:24:20Z</time>
      </trkpt>
      <trkpt lat="44.47481" lon="6.22376">
        <ele>1102.2</ele>
        <time>2020-09-16T09:24:21Z</time>
      </trkpt>
      <trkpt lat="44.47501" lon="6.22394">
        <ele>1106</ele>
        <time>2020-09-16T09:24:32Z</time>
      </trkpt>
      <trkpt lat="44.47522" lon="6.22417">
        <ele>1107.3</ele>
        <time>2020-09-16T09:24:45Z</time>
      </trkpt>
      <trkpt lat="44.47543" lon="6.22422">
        <ele>1108.6</ele>
        <time>2020-09-16T09:24:57Z</time>
      </trkpt>
      <trkpt lat="44.47564" lon="6.22428">
        <ele>1109.6</ele>
        <time>2020-09-16T09:25:08Z</time>
      </trkpt>
      <trkpt lat="44.4759" lon="6.22434">
        <ele>1110.3</ele>
        <time>2020-09-16T09:25:20Z</time>
      </trkpt>
      <trkpt lat="44.4762" lon="6.2245">
        <ele>1104.6</ele>
        <time>2020-09-16T09:25:34Z</time>
      </trkpt>
      <trkpt lat="44.47622" lon="6.22449">
        <ele>1104.9</ele>
        <time>2020-09-16T09:25:35Z</time>
      </trkpt>
      <trkpt lat="44.47624" lon="6.22449">
        <ele>1104.9</ele>
        <time>2020-09-16T09:25:36Z</time>
      </trkpt>
      <trkpt lat="44.47626" lon="6.22449">
        <ele>1104.9</ele>
        <time>2020-09-16T09:25:37Z</time>
      </trkpt>
      <trkpt lat="44.47628" lon="6.2245">
        <ele>1104.6</ele>
        <time>2020-09-16T09:25:38Z</time>
      </trkpt>
      <trkpt lat="44.4763" lon="6.22451">
        <ele>1104.3</ele>
        <time>2020-09-16T09:25:39Z</time>
      </trkpt>
      <trkpt lat="44.47632" lon="6.22452">
        <ele>1104.1</ele>
        <time>2020-09-16T09:25:40Z</time>
      </trkpt>
      <trkpt lat="44.47634" lon="6.22452">
        <ele>1104.1</ele>
        <time>2020-09-16T09:25:41Z</time>
      </trkpt>
      <trkpt lat="44.47636" lon="6.22453">
        <ele>1103.8</ele>
        <time>2020-09-16T09:25:42Z</time>
      </trkpt>
      <trkpt lat="44.47638" lon="6.22453">
        <ele>1103.8</ele>
        <time>2020-09-16T09:25:43Z</time>
      </trkpt>
      <trkpt lat="44.47641" lon="6.22453">
        <ele>1103.9</ele>
        <time>2020-09-16T09:25:44Z</time>
      </trkpt>
      <trkpt lat="44.47643" lon="6.22454">
        <ele>1103.6</ele>
        <time>2020-09-16T09:25:45Z</time>
      </trkpt>
      <trkpt lat="44.47645" lon="6.22454">
        <ele>1103.6</ele>
        <time>2020-09-16T09:25:46Z</time>
      </trkpt>
      <trkpt lat="44.47646" lon="6.22454">
        <ele>1103.7</ele>
        <time>2020-09-16T09:25:47Z</time>
      </trkpt>
      <trkpt lat="44.4768" lon="6.22459">
        <ele>1102.5</ele>
        <time>2020-09-16T09:26:02Z</time>
      </trkpt>
      <trkpt lat="44.47714" lon="6.2247">
        <ele>1100.7</ele>
        <time>2020-09-16T09:26:16Z</time>
      </trkpt>
      <trkpt lat="44.47739" lon="6.22471">
        <ele>1100.6</ele>
        <time>2020-09-16T09:26:29Z</time>
      </trkpt>
      <trkpt lat="44.47739" lon="6.22471">
        <ele>1100.6</ele>
        <time>2020-09-16T09:26:31Z</time>
      </trkpt>
      <trkpt lat="44.47746" lon="6.22472">
        <ele>1100.7</ele>
        <time>2020-09-16T09:28:23Z</time>
      </trkpt>
      <trkpt lat="44.47747" lon="6.22473">
        <ele>1100.7</ele>
        <time>2020-09-16T09:28:24Z</time>
      </trkpt>
      <trkpt lat="44.47749" lon="6.22474">
        <ele>1100.7</ele>
        <time>2020-09-16T09:28:25Z</time>
      </trkpt>
      <trkpt lat="44.47751" lon="6.22475">
        <ele>1100.8</ele>
        <time>2020-09-16T09:28:26Z</time>
      </trkpt>
      <trkpt lat="44.47753" lon="6.22476">
        <ele>1101.1</ele>
        <time>2020-09-16T09:28:27Z</time>
      </trkpt>
      <trkpt lat="44.47755" lon="6.22476">
        <ele>1101.3</ele>
        <time>2020-09-16T09:28:28Z</time>
      </trkpt>
      <trkpt lat="44.47757" lon="6.22477">
        <ele>1101.5</ele>
        <time>2020-09-16T09:28:29Z</time>
      </trkpt>
      <trkpt lat="44.4776" lon="6.22478">
        <ele>1101.9</ele>
        <time>2020-09-16T09:28:30Z</time>
      </trkpt>
      <trkpt lat="44.47762" lon="6.22479">
        <ele>1102.2</ele>
        <time>2020-09-16T09:28:31Z</time>
      </trkpt>
      <trkpt lat="44.47764" lon="6.2248">
        <ele>1102.5</ele>
        <time>2020-09-16T09:28:32Z</time>
      </trkpt>
      <trkpt lat="44.47766" lon="6.22481">
        <ele>1102.7</ele>
        <time>2020-09-16T09:28:33Z</time>
      </trkpt>
      <trkpt lat="44.47768" lon="6.22482">
        <ele>1103</ele>
        <time>2020-09-16T09:28:34Z</time>
      </trkpt>
      <trkpt lat="44.47781" lon="6.2249">
        <ele>1105</ele>
        <time>2020-09-16T09:28:41Z</time>
      </trkpt>
      <trkpt lat="44.47815" lon="6.2251">
        <ele>1107.4</ele>
        <time>2020-09-16T09:28:57Z</time>
      </trkpt>
      <trkpt lat="44.47837" lon="6.22514">
        <ele>1110.8</ele>
        <time>2020-09-16T09:29:07Z</time>
      </trkpt>
      <trkpt lat="44.47866" lon="6.22523">
        <ele>1117.7</ele>
        <time>2020-09-16T09:29:22Z</time>
      </trkpt>
      <trkpt lat="44.47881" lon="6.22535">
        <ele>1119.9</ele>
        <time>2020-09-16T09:29:32Z</time>
      </trkpt>
      <trkpt lat="44.47901" lon="6.22554">
        <ele>1122.4</ele>
        <time>2020-09-16T09:29:43Z</time>
      </trkpt>
      <trkpt lat="44.47911" lon="6.22563">
        <ele>1124</ele>
        <time>2020-09-16T09:29:48Z</time>
      </trkpt>
      <trkpt lat="44.47913" lon="6.22564">
        <ele>1124.5</ele>
        <time>2020-09-16T09:29:49Z</time>
      </trkpt>
      <trkpt lat="44.47914" lon="6.22566">
        <ele>1124.4</ele>
        <time>2020-09-16T09:29:50Z</time>
      </trkpt>
      <trkpt lat="44.47916" lon="6.22568">
        <ele>1124.7</ele>
        <time>2020-09-16T09:29:51Z</time>
      </trkpt>
      <trkpt lat="44.47918" lon="6.2257">
        <ele>1125.1</ele>
        <time>2020-09-16T09:29:52Z</time>
      </trkpt>
      <trkpt lat="44.4792" lon="6.22571">
        <ele>1125.6</ele>
        <time>2020-09-16T09:29:53Z</time>
      </trkpt>
      <trkpt lat="44.47921" lon="6.22573">
        <ele>1125.6</ele>
        <time>2020-09-16T09:29:54Z</time>
      </trkpt>
      <trkpt lat="44.47946" lon="6.22591">
        <ele>1129</ele>
        <time>2020-09-16T09:30:07Z</time>
      </trkpt>
      <trkpt lat="44.47973" lon="6.22602">
        <ele>1133.3</ele>
        <time>2020-09-16T09:30:20Z</time>
      </trkpt>
      <trkpt lat="44.47997" lon="6.22618">
        <ele>1134</ele>
        <time>2020-09-16T09:30:34Z</time>
      </trkpt>
      <trkpt lat="44.48026" lon="6.22634">
        <ele>1133.1</ele>
        <time>2020-09-16T09:30:50Z</time>
      </trkpt>
      <trkpt lat="44.48064" lon="6.2264">
        <ele>1138.8</ele>
        <time>2020-09-16T09:31:09Z</time>
      </trkpt>
      <trkpt lat="44.4809" lon="6.22643">
        <ele>1142.9</ele>
        <time>2020-09-16T09:31:22Z</time>
      </trkpt>
      <trkpt lat="44.48124" lon="6.22649">
        <ele>1146</ele>
        <time>2020-09-16T09:31:39Z</time>
      </trkpt>
      <trkpt lat="44.48149" lon="6.22652">
        <ele>1149.1</ele>
        <time>2020-09-16T09:31:52Z</time>
      </trkpt>
      <trkpt lat="44.48183" lon="6.22664">
        <ele>1148.5</ele>
        <time>2020-09-16T09:32:09Z</time>
      </trkpt>
      <trkpt lat="44.48217" lon="6.22669">
        <ele>1151.8</ele>
        <time>2020-09-16T09:32:26Z</time>
      </trkpt>
      <trkpt lat="44.48255" lon="6.22667">
        <ele>1160</ele>
        <time>2020-09-16T09:32:45Z</time>
      </trkpt>
      <trkpt lat="44.48302" lon="6.22684">
        <ele>1162.5</ele>
        <time>2020-09-16T09:33:08Z</time>
      </trkpt>
      <trkpt lat="44.48343" lon="6.22701">
        <ele>1165.2</ele>
        <time>2020-09-16T09:33:29Z</time>
      </trkpt>
      <trkpt lat="44.48371" lon="6.22708">
        <ele>1173.5</ele>
        <time>2020-09-16T09:33:43Z</time>
      </trkpt>
      <trkpt lat="44.48373" lon="6.2271">
        <ele>1173.5</ele>
        <time>2020-09-16T09:33:44Z</time>
      </trkpt>
      <trkpt lat="44.48395" lon="6.22736">
        <ele>1173.1</ele>
        <time>2020-09-16T09:33:57Z</time>
      </trkpt>
      <trkpt lat="44.48416" lon="6.22766">
        <ele>1169.8</ele>
        <time>2020-09-16T09:34:11Z</time>
      </trkpt>
      <trkpt lat="44.48442" lon="6.22785">
        <ele>1171.1</ele>
        <time>2020-09-16T09:34:26Z</time>
      </trkpt>
      <trkpt lat="44.48466" lon="6.22794">
        <ele>1177.7</ele>
        <time>2020-09-16T09:34:39Z</time>
      </trkpt>
      <trkpt lat="44.48487" lon="6.2281">
        <ele>1180.4</ele>
        <time>2020-09-16T09:34:51Z</time>
      </trkpt>
      <trkpt lat="44.48488" lon="6.22811">
        <ele>1180.5</ele>
        <time>2020-09-16T09:34:52Z</time>
      </trkpt>
      <trkpt lat="44.48513" lon="6.22839">
        <ele>1179.1</ele>
        <time>2020-09-16T09:35:08Z</time>
      </trkpt>
      <trkpt lat="44.48514" lon="6.22841">
        <ele>1178.4</ele>
        <time>2020-09-16T09:35:09Z</time>
      </trkpt>
      <trkpt lat="44.48516" lon="6.22842">
        <ele>1178.7</ele>
        <time>2020-09-16T09:35:10Z</time>
      </trkpt>
      <trkpt lat="44.48517" lon="6.22844">
        <ele>1178</ele>
        <time>2020-09-16T09:35:11Z</time>
      </trkpt>
      <trkpt lat="44.48519" lon="6.22846">
        <ele>1177.7</ele>
        <time>2020-09-16T09:35:12Z</time>
      </trkpt>
      <trkpt lat="44.4852" lon="6.22848">
        <ele>1177</ele>
        <time>2020-09-16T09:35:13Z</time>
      </trkpt>
      <trkpt lat="44.48521" lon="6.2285">
        <ele>1176.3</ele>
        <time>2020-09-16T09:35:14Z</time>
      </trkpt>
      <trkpt lat="44.48523" lon="6.22852">
        <ele>1176</ele>
        <time>2020-09-16T09:35:15Z</time>
      </trkpt>
      <trkpt lat="44.48524" lon="6.22854">
        <ele>1175.3</ele>
        <time>2020-09-16T09:35:16Z</time>
      </trkpt>
      <trkpt lat="44.48526" lon="6.22856">
        <ele>1175.1</ele>
        <time>2020-09-16T09:35:17Z</time>
      </trkpt>
      <trkpt lat="44.48556" lon="6.2287">
        <ele>1179.4</ele>
        <time>2020-09-16T09:35:34Z</time>
      </trkpt>
      <trkpt lat="44.48592" lon="6.22888">
        <ele>1184.5</ele>
        <time>2020-09-16T09:35:53Z</time>
      </trkpt>
      <trkpt lat="44.48629" lon="6.22911">
        <ele>1190.3</ele>
        <time>2020-09-16T09:36:13Z</time>
      </trkpt>
      <trkpt lat="44.48661" lon="6.22939">
        <ele>1191.2</ele>
        <time>2020-09-16T09:36:32Z</time>
      </trkpt>
      <trkpt lat="44.48696" lon="6.22971">
        <ele>1191.7</ele>
        <time>2020-09-16T09:36:52Z</time>
      </trkpt>
      <trkpt lat="44.48732" lon="6.23005">
        <ele>1194.5</ele>
        <time>2020-09-16T09:37:13Z</time>
      </trkpt>
      <trkpt lat="44.48763" lon="6.23046">
        <ele>1187.3</ele>
        <time>2020-09-16T09:37:33Z</time>
      </trkpt>
      <trkpt lat="44.48802" lon="6.23067">
        <ele>1190.1</ele>
        <time>2020-09-16T09:37:54Z</time>
      </trkpt>
      <trkpt lat="44.48837" lon="6.23072">
        <ele>1200.2</ele>
        <time>2020-09-16T09:38:11Z</time>
      </trkpt>
      <trkpt lat="44.48874" lon="6.23096">
        <ele>1204.8</ele>
        <time>2020-09-16T09:38:31Z</time>
      </trkpt>
      <trkpt lat="44.48908" lon="6.23119">
        <ele>1209.7</ele>
        <time>2020-09-16T09:38:49Z</time>
      </trkpt>
      <trkpt lat="44.48944" lon="6.23149">
        <ele>1211.5</ele>
        <time>2020-09-16T09:39:10Z</time>
      </trkpt>
      <trkpt lat="44.48966" lon="6.23188">
        <ele>1206.2</ele>
        <time>2020-09-16T09:39:27Z</time>
      </trkpt>
      <trkpt lat="44.48988" lon="6.23229">
        <ele>1201.6</ele>
        <time>2020-09-16T09:39:46Z</time>
      </trkpt>
      <trkpt lat="44.49026" lon="6.23248">
        <ele>1209.9</ele>
        <time>2020-09-16T09:40:06Z</time>
      </trkpt>
      <trkpt lat="44.49062" lon="6.2327">
        <ele>1216.3</ele>
        <time>2020-09-16T09:40:25Z</time>
      </trkpt>
      <trkpt lat="44.4909" lon="6.23314">
        <ele>1213.8</ele>
        <time>2020-09-16T09:40:45Z</time>
      </trkpt>
      <trkpt lat="44.49121" lon="6.2335">
        <ele>1211.1</ele>
        <time>2020-09-16T09:41:03Z</time>
      </trkpt>
      <trkpt lat="44.49148" lon="6.23403">
        <ele>1202.8</ele>
        <time>2020-09-16T09:41:22Z</time>
      </trkpt>
      <trkpt lat="44.49156" lon="6.23416">
        <ele>1201.6</ele>
        <time>2020-09-16T09:41:32Z</time>
      </trkpt>
      <trkpt lat="44.49168" lon="6.23401">
        <ele>1209.1</ele>
        <time>2020-09-16T09:45:35Z</time>
      </trkpt>
      <trkpt lat="44.49177" lon="6.23386">
        <ele>1212.2</ele>
        <time>2020-09-16T09:45:44Z</time>
      </trkpt>
      <trkpt lat="44.4918" lon="6.2338">
        <ele>1213.5</ele>
        <time>2020-09-16T09:46:07Z</time>
      </trkpt>
      <trkpt lat="44.49182" lon="6.23377">
        <ele>1214.1</ele>
        <time>2020-09-16T09:46:08Z</time>
      </trkpt>
      <trkpt lat="44.49183" lon="6.23374">
        <ele>1214.8</ele>
        <time>2020-09-16T09:46:09Z</time>
      </trkpt>
      <trkpt lat="44.49185" lon="6.23371">
        <ele>1215.4</ele>
        <time>2020-09-16T09:46:10Z</time>
      </trkpt>
      <trkpt lat="44.49198" lon="6.23325">
        <ele>1226.7</ele>
        <time>2020-09-16T09:46:22Z</time>
      </trkpt>
      <trkpt lat="44.492" lon="6.23323">
        <ele>1226.9</ele>
        <time>2020-09-16T09:46:23Z</time>
      </trkpt>
      <trkpt lat="44.49203" lon="6.23321">
        <ele>1227</ele>
        <time>2020-09-16T09:46:24Z</time>
      </trkpt>
      <trkpt lat="44.49206" lon="6.23319">
        <ele>1227.2</ele>
        <time>2020-09-16T09:46:25Z</time>
      </trkpt>
      <trkpt lat="44.49209" lon="6.23318">
        <ele>1227.2</ele>
        <time>2020-09-16T09:46:26Z</time>
      </trkpt>
      <trkpt lat="44.49212" lon="6.23317">
        <ele>1227.1</ele>
        <time>2020-09-16T09:46:27Z</time>
      </trkpt>
      <trkpt lat="44.49216" lon="6.23317">
        <ele>1226.8</ele>
        <time>2020-09-16T09:46:28Z</time>
      </trkpt>
      <trkpt lat="44.49257" lon="6.23303">
        <ele>1228.5</ele>
        <time>2020-09-16T09:46:41Z</time>
      </trkpt>
      <trkpt lat="44.49269" lon="6.23336">
        <ele>1222.7</ele>
        <time>2020-09-16T09:46:49Z</time>
      </trkpt>
      <trkpt lat="44.4929" lon="6.23389">
        <ele>1213.3</ele>
        <time>2020-09-16T09:47:01Z</time>
      </trkpt>
      <trkpt lat="44.493" lon="6.23407">
        <ele>1212</ele>
        <time>2020-09-16T09:47:05Z</time>
      </trkpt>
      <trkpt lat="44.49303" lon="6.23412">
        <ele>1211.9</ele>
        <time>2020-09-16T09:47:06Z</time>
      </trkpt>
      <trkpt lat="44.49321" lon="6.23475">
        <ele>1200.7</ele>
        <time>2020-09-16T09:47:20Z</time>
      </trkpt>
      <trkpt lat="44.49349" lon="6.23511">
        <ele>1194.7</ele>
        <time>2020-09-16T09:47:33Z</time>
      </trkpt>
      <trkpt lat="44.49385" lon="6.2352">
        <ele>1191.7</ele>
        <time>2020-09-16T09:47:44Z</time>
      </trkpt>
      <trkpt lat="44.49412" lon="6.23511">
        <ele>1192.4</ele>
        <time>2020-09-16T09:47:52Z</time>
      </trkpt>
      <trkpt lat="44.49445" lon="6.23477">
        <ele>1192.3</ele>
        <time>2020-09-16T09:48:06Z</time>
      </trkpt>
      <trkpt lat="44.49447" lon="6.23432">
        <ele>1203.3</ele>
        <time>2020-09-16T09:48:16Z</time>
      </trkpt>
      <trkpt lat="44.49449" lon="6.23414">
        <ele>1207.4</ele>
        <time>2020-09-16T09:48:20Z</time>
      </trkpt>
      <trkpt lat="44.49458" lon="6.23402">
        <ele>1208.7</ele>
        <time>2020-09-16T09:48:24Z</time>
      </trkpt>
      <trkpt lat="44.49464" lon="6.23403">
        <ele>1207.4</ele>
        <time>2020-09-16T09:48:26Z</time>
      </trkpt>
      <trkpt lat="44.49493" lon="6.23431">
        <ele>1194.1</ele>
        <time>2020-09-16T09:48:37Z</time>
      </trkpt>
      <trkpt lat="44.49525" lon="6.23427">
        <ele>1189.1</ele>
        <time>2020-09-16T09:48:47Z</time>
      </trkpt>
      <trkpt lat="44.49561" lon="6.23443">
        <ele>1177.2</ele>
        <time>2020-09-16T09:48:58Z</time>
      </trkpt>
      <trkpt lat="44.49588" lon="6.23423">
        <ele>1177.5</ele>
        <time>2020-09-16T09:49:08Z</time>
      </trkpt>
      <trkpt lat="44.49599" lon="6.23382">
        <ele>1183.3</ele>
        <time>2020-09-16T09:49:17Z</time>
      </trkpt>
      <trkpt lat="44.49619" lon="6.23324">
        <ele>1188.6</ele>
        <time>2020-09-16T09:49:29Z</time>
      </trkpt>
      <trkpt lat="44.49621" lon="6.23321">
        <ele>1188.5</ele>
        <time>2020-09-16T09:49:30Z</time>
      </trkpt>
      <trkpt lat="44.49623" lon="6.23318">
        <ele>1188.5</ele>
        <time>2020-09-16T09:49:31Z</time>
      </trkpt>
      <trkpt lat="44.49625" lon="6.23315">
        <ele>1188.5</ele>
        <time>2020-09-16T09:49:32Z</time>
      </trkpt>
      <trkpt lat="44.49628" lon="6.23313">
        <ele>1187.9</ele>
        <time>2020-09-16T09:49:33Z</time>
      </trkpt>
      <trkpt lat="44.4963" lon="6.23312">
        <ele>1187.5</ele>
        <time>2020-09-16T09:49:34Z</time>
      </trkpt>
      <trkpt lat="44.49633" lon="6.23312">
        <ele>1186.5</ele>
        <time>2020-09-16T09:49:35Z</time>
      </trkpt>
      <trkpt lat="44.49635" lon="6.23313">
        <ele>1185.6</ele>
        <time>2020-09-16T09:49:36Z</time>
      </trkpt>
      <trkpt lat="44.49638" lon="6.23315">
        <ele>1184.1</ele>
        <time>2020-09-16T09:49:37Z</time>
      </trkpt>
      <trkpt lat="44.4964" lon="6.23319">
        <ele>1182.6</ele>
        <time>2020-09-16T09:49:38Z</time>
      </trkpt>
      <trkpt lat="44.49643" lon="6.23322">
        <ele>1180.9</ele>
        <time>2020-09-16T09:49:39Z</time>
      </trkpt>
      <trkpt lat="44.49646" lon="6.23326">
        <ele>1178.9</ele>
        <time>2020-09-16T09:49:40Z</time>
      </trkpt>
      <trkpt lat="44.49647" lon="6.2333">
        <ele>1177.6</ele>
        <time>2020-09-16T09:49:41Z</time>
      </trkpt>
      <trkpt lat="44.49649" lon="6.23335">
        <ele>1175.8</ele>
        <time>2020-09-16T09:49:42Z</time>
      </trkpt>
      <trkpt lat="44.49651" lon="6.23338">
        <ele>1174.5</ele>
        <time>2020-09-16T09:49:43Z</time>
      </trkpt>
      <trkpt lat="44.4967" lon="6.23343">
        <ele>1168.2</ele>
        <time>2020-09-16T09:49:52Z</time>
      </trkpt>
      <trkpt lat="44.49678" lon="6.23296">
        <ele>1179.4</ele>
        <time>2020-09-16T09:50:05Z</time>
      </trkpt>
      <trkpt lat="44.49679" lon="6.23292">
        <ele>1180.4</ele>
        <time>2020-09-16T09:50:06Z</time>
      </trkpt>
      <trkpt lat="44.49681" lon="6.23289">
        <ele>1181.2</ele>
        <time>2020-09-16T09:50:07Z</time>
      </trkpt>
      <trkpt lat="44.49683" lon="6.23286">
        <ele>1181.9</ele>
        <time>2020-09-16T09:50:08Z</time>
      </trkpt>
      <trkpt lat="44.49686" lon="6.23285">
        <ele>1182.1</ele>
        <time>2020-09-16T09:50:09Z</time>
      </trkpt>
      <trkpt lat="44.49689" lon="6.23284">
        <ele>1182.4</ele>
        <time>2020-09-16T09:50:10Z</time>
      </trkpt>
      <trkpt lat="44.49692" lon="6.23284">
        <ele>1182.4</ele>
        <time>2020-09-16T09:50:11Z</time>
      </trkpt>
      <trkpt lat="44.49695" lon="6.23285">
        <ele>1182.1</ele>
        <time>2020-09-16T09:50:12Z</time>
      </trkpt>
      <trkpt lat="44.49698" lon="6.23286">
        <ele>1181.9</ele>
        <time>2020-09-16T09:50:13Z</time>
      </trkpt>
      <trkpt lat="44.497" lon="6.23289">
        <ele>1181.1</ele>
        <time>2020-09-16T09:50:14Z</time>
      </trkpt>
      <trkpt lat="44.49703" lon="6.23292">
        <ele>1180.4</ele>
        <time>2020-09-16T09:50:15Z</time>
      </trkpt>
      <trkpt lat="44.49706" lon="6.23295">
        <ele>1179.7</ele>
        <time>2020-09-16T09:50:16Z</time>
      </trkpt>
      <trkpt lat="44.49709" lon="6.23297">
        <ele>1179.2</ele>
        <time>2020-09-16T09:50:17Z</time>
      </trkpt>
      <trkpt lat="44.49713" lon="6.23299">
        <ele>1178.7</ele>
        <time>2020-09-16T09:50:18Z</time>
      </trkpt>
      <trkpt lat="44.49716" lon="6.23299">
        <ele>1178.8</ele>
        <time>2020-09-16T09:50:19Z</time>
      </trkpt>
      <trkpt lat="44.4972" lon="6.23299">
        <ele>1178.8</ele>
        <time>2020-09-16T09:50:20Z</time>
      </trkpt>
      <trkpt lat="44.4976" lon="6.23297">
        <ele>1181.2</ele>
        <time>2020-09-16T09:50:31Z</time>
      </trkpt>
      <trkpt lat="44.49763" lon="6.233">
        <ele>1181.1</ele>
        <time>2020-09-16T09:50:32Z</time>
      </trkpt>
      <trkpt lat="44.49764" lon="6.23303">
        <ele>1180.7</ele>
        <time>2020-09-16T09:50:33Z</time>
      </trkpt>
      <trkpt lat="44.49765" lon="6.23307">
        <ele>1180.2</ele>
        <time>2020-09-16T09:50:34Z</time>
      </trkpt>
      <trkpt lat="44.49766" lon="6.23311">
        <ele>1179.6</ele>
        <time>2020-09-16T09:50:35Z</time>
      </trkpt>
      <trkpt lat="44.49765" lon="6.23316">
        <ele>1178.5</ele>
        <time>2020-09-16T09:50:36Z</time>
      </trkpt>
      <trkpt lat="44.49765" lon="6.2332">
        <ele>1177.7</ele>
        <time>2020-09-16T09:50:37Z</time>
      </trkpt>
      <trkpt lat="44.49763" lon="6.23324">
        <ele>1176.4</ele>
        <time>2020-09-16T09:50:38Z</time>
      </trkpt>
      <trkpt lat="44.49761" lon="6.23328">
        <ele>1175.1</ele>
        <time>2020-09-16T09:50:39Z</time>
      </trkpt>
      <trkpt lat="44.49758" lon="6.23332">
        <ele>1173.5</ele>
        <time>2020-09-16T09:50:40Z</time>
      </trkpt>
      <trkpt lat="44.49756" lon="6.23335">
        <ele>1172.4</ele>
        <time>2020-09-16T09:50:41Z</time>
      </trkpt>
      <trkpt lat="44.49747" lon="6.23348">
        <ele>1169</ele>
        <time>2020-09-16T09:50:44Z</time>
      </trkpt>
      <trkpt lat="44.4974" lon="6.23403">
        <ele>1161.2</ele>
        <time>2020-09-16T09:50:55Z</time>
      </trkpt>
      <trkpt lat="44.49763" lon="6.23437">
        <ele>1160.8</ele>
        <time>2020-09-16T09:51:07Z</time>
      </trkpt>
      <trkpt lat="44.49792" lon="6.23452">
        <ele>1166.3</ele>
        <time>2020-09-16T09:51:18Z</time>
      </trkpt>
      <trkpt lat="44.49792" lon="6.23455">
        <ele>1165.8</ele>
        <time>2020-09-16T09:51:19Z</time>
      </trkpt>
      <trkpt lat="44.49793" lon="6.23459">
        <ele>1165.5</ele>
        <time>2020-09-16T09:51:20Z</time>
      </trkpt>
      <trkpt lat="44.49792" lon="6.23463">
        <ele>1164.6</ele>
        <time>2020-09-16T09:51:21Z</time>
      </trkpt>
      <trkpt lat="44.4979" lon="6.23466">
        <ele>1163.7</ele>
        <time>2020-09-16T09:51:22Z</time>
      </trkpt>
      <trkpt lat="44.49788" lon="6.23469">
        <ele>1162.7</ele>
        <time>2020-09-16T09:51:23Z</time>
      </trkpt>
      <trkpt lat="44.49771" lon="6.23497">
        <ele>1154.5</ele>
        <time>2020-09-16T09:51:30Z</time>
      </trkpt>
      <trkpt lat="44.49741" lon="6.23563">
        <ele>1144.8</ele>
        <time>2020-09-16T09:51:45Z</time>
      </trkpt>
      <trkpt lat="44.49755" lon="6.236">
        <ele>1145.7</ele>
        <time>2020-09-16T09:51:56Z</time>
      </trkpt>
      <trkpt lat="44.49786" lon="6.23646">
        <ele>1145.6</ele>
        <time>2020-09-16T09:52:10Z</time>
      </trkpt>
      <trkpt lat="44.4982" lon="6.23665">
        <ele>1146.3</ele>
        <time>2020-09-16T09:52:22Z</time>
      </trkpt>
      <trkpt lat="44.49862" lon="6.23663">
        <ele>1155.8</ele>
        <time>2020-09-16T09:52:37Z</time>
      </trkpt>
      <trkpt lat="44.49885" lon="6.23657">
        <ele>1163.2</ele>
        <time>2020-09-16T09:52:45Z</time>
      </trkpt>
      <trkpt lat="44.49887" lon="6.23659">
        <ele>1163.5</ele>
        <time>2020-09-16T09:52:46Z</time>
      </trkpt>
      <trkpt lat="44.49888" lon="6.23662">
        <ele>1163.4</ele>
        <time>2020-09-16T09:52:47Z</time>
      </trkpt>
      <trkpt lat="44.49889" lon="6.23666">
        <ele>1163.1</ele>
        <time>2020-09-16T09:52:48Z</time>
      </trkpt>
      <trkpt lat="44.49889" lon="6.2367">
        <ele>1162.5</ele>
        <time>2020-09-16T09:52:49Z</time>
      </trkpt>
      <trkpt lat="44.49888" lon="6.23674">
        <ele>1161.6</ele>
        <time>2020-09-16T09:52:50Z</time>
      </trkpt>
      <trkpt lat="44.49888" lon="6.23679">
        <ele>1160.9</ele>
        <time>2020-09-16T09:52:51Z</time>
      </trkpt>
      <trkpt lat="44.49898" lon="6.23724">
        <ele>1156.8</ele>
        <time>2020-09-16T09:53:02Z</time>
      </trkpt>
      <trkpt lat="44.49925" lon="6.2376">
        <ele>1158.2</ele>
        <time>2020-09-16T09:53:16Z</time>
      </trkpt>
      <trkpt lat="44.49953" lon="6.2378">
        <ele>1160.7</ele>
        <time>2020-09-16T09:53:28Z</time>
      </trkpt>
      <trkpt lat="44.49973" lon="6.23816">
        <ele>1156.6</ele>
        <time>2020-09-16T09:53:40Z</time>
      </trkpt>
      <trkpt lat="44.50005" lon="6.23838">
        <ele>1156.8</ele>
        <time>2020-09-16T09:53:52Z</time>
      </trkpt>
      <trkpt lat="44.50041" lon="6.23844">
        <ele>1161.7</ele>
        <time>2020-09-16T09:54:05Z</time>
      </trkpt>
      <trkpt lat="44.50067" lon="6.23851">
        <ele>1164.2</ele>
        <time>2020-09-16T09:54:17Z</time>
      </trkpt>
      <trkpt lat="44.50094" lon="6.23858">
        <ele>1165.9</ele>
        <time>2020-09-16T09:54:28Z</time>
      </trkpt>
      <trkpt lat="44.50124" lon="6.23855">
        <ele>1170.2</ele>
        <time>2020-09-16T09:54:41Z</time>
      </trkpt>
      <trkpt lat="44.5016" lon="6.23859">
        <ele>1172.7</ele>
        <time>2020-09-16T09:54:56Z</time>
      </trkpt>
      <trkpt lat="44.5019" lon="6.23859">
        <ele>1176.1</ele>
        <time>2020-09-16T09:55:10Z</time>
      </trkpt>
      <trkpt lat="44.5022" lon="6.2386">
        <ele>1179.1</ele>
        <time>2020-09-16T09:55:24Z</time>
      </trkpt>
      <trkpt lat="44.50248" lon="6.23859">
        <ele>1182.6</ele>
        <time>2020-09-16T09:55:38Z</time>
      </trkpt>
      <trkpt lat="44.50286" lon="6.23859">
        <ele>1183.6</ele>
        <time>2020-09-16T09:55:56Z</time>
      </trkpt>
      <trkpt lat="44.50318" lon="6.23862">
        <ele>1183</ele>
        <time>2020-09-16T09:56:12Z</time>
      </trkpt>
      <trkpt lat="44.50365" lon="6.23857">
        <ele>1182.1</ele>
        <time>2020-09-16T09:56:32Z</time>
      </trkpt>
      <trkpt lat="44.50408" lon="6.23855">
        <ele>1178.2</ele>
        <time>2020-09-16T09:56:51Z</time>
      </trkpt>
      <trkpt lat="44.50448" lon="6.23869">
        <ele>1176.7</ele>
        <time>2020-09-16T09:57:09Z</time>
      </trkpt>
      <trkpt lat="44.505" lon="6.23891">
        <ele>1176.2</ele>
        <time>2020-09-16T09:57:31Z</time>
      </trkpt>
      <trkpt lat="44.50532" lon="6.23896">
        <ele>1178.9</ele>
        <time>2020-09-16T09:57:41Z</time>
      </trkpt>
      <trkpt lat="44.50566" lon="6.23884">
        <ele>1184.1</ele>
        <time>2020-09-16T09:57:52Z</time>
      </trkpt>
      <trkpt lat="44.50577" lon="6.23922">
        <ele>1182.6</ele>
        <time>2020-09-16T09:58:03Z</time>
      </trkpt>
      <trkpt lat="44.50565" lon="6.23965">
        <ele>1184.2</ele>
        <time>2020-09-16T09:58:17Z</time>
      </trkpt>
      <trkpt lat="44.50558" lon="6.23975">
        <ele>1183.3</ele>
        <time>2020-09-16T09:58:21Z</time>
      </trkpt>
      <trkpt lat="44.50557" lon="6.23977">
        <ele>1183.2</ele>
        <time>2020-09-16T09:58:22Z</time>
      </trkpt>
      <trkpt lat="44.50555" lon="6.2398">
        <ele>1182.9</ele>
        <time>2020-09-16T09:58:23Z</time>
      </trkpt>
      <trkpt lat="44.50554" lon="6.23982">
        <ele>1182.8</ele>
        <time>2020-09-16T09:58:24Z</time>
      </trkpt>
      <trkpt lat="44.50552" lon="6.23985">
        <ele>1182.5</ele>
        <time>2020-09-16T09:58:25Z</time>
      </trkpt>
      <trkpt lat="44.50523" lon="6.2402">
        <ele>1178</ele>
        <time>2020-09-16T09:58:41Z</time>
      </trkpt>
      <trkpt lat="44.50499" lon="6.24065">
        <ele>1178.2</ele>
        <time>2020-09-16T09:58:56Z</time>
      </trkpt>
      <trkpt lat="44.50474" lon="6.24131">
        <ele>1180.8</ele>
        <time>2020-09-16T09:59:14Z</time>
      </trkpt>
      <trkpt lat="44.50474" lon="6.2419">
        <ele>1186.7</ele>
        <time>2020-09-16T09:59:30Z</time>
      </trkpt>
      <trkpt lat="44.50482" lon="6.2421">
        <ele>1191.1</ele>
        <time>2020-09-16T09:59:38Z</time>
      </trkpt>
      <trkpt lat="44.50481" lon="6.24213">
        <ele>1191.3</ele>
        <time>2020-09-16T09:59:39Z</time>
      </trkpt>
      <trkpt lat="44.5048" lon="6.24216">
        <ele>1191.5</ele>
        <time>2020-09-16T09:59:40Z</time>
      </trkpt>
      <trkpt lat="44.50477" lon="6.24217">
        <ele>1191</ele>
        <time>2020-09-16T09:59:41Z</time>
      </trkpt>
      <trkpt lat="44.50474" lon="6.24219">
        <ele>1190.6</ele>
        <time>2020-09-16T09:59:42Z</time>
      </trkpt>
      <trkpt lat="44.50471" lon="6.24219">
        <ele>1190</ele>
        <time>2020-09-16T09:59:43Z</time>
      </trkpt>
      <trkpt lat="44.50469" lon="6.24219">
        <ele>1189.6</ele>
        <time>2020-09-16T09:59:44Z</time>
      </trkpt>
      <trkpt lat="44.50467" lon="6.2422">
        <ele>1189.3</ele>
        <time>2020-09-16T09:59:45Z</time>
      </trkpt>
      <trkpt lat="44.50465" lon="6.2422">
        <ele>1188.8</ele>
        <time>2020-09-16T09:59:46Z</time>
      </trkpt>
      <trkpt lat="44.50452" lon="6.24224">
        <ele>1186.5</ele>
        <time>2020-09-16T09:59:51Z</time>
      </trkpt>
      <trkpt lat="44.5045" lon="6.24226">
        <ele>1186.3</ele>
        <time>2020-09-16T09:59:52Z</time>
      </trkpt>
      <trkpt lat="44.50448" lon="6.24229">
        <ele>1186.2</ele>
        <time>2020-09-16T09:59:53Z</time>
      </trkpt>
      <trkpt lat="44.50446" lon="6.24232">
        <ele>1186.1</ele>
        <time>2020-09-16T09:59:54Z</time>
      </trkpt>
      <trkpt lat="44.50444" lon="6.24234">
        <ele>1185.8</ele>
        <time>2020-09-16T09:59:55Z</time>
      </trkpt>
      <trkpt lat="44.50442" lon="6.24237">
        <ele>1185.7</ele>
        <time>2020-09-16T09:59:56Z</time>
      </trkpt>
      <trkpt lat="44.50441" lon="6.24241">
        <ele>1185.9</ele>
        <time>2020-09-16T09:59:57Z</time>
      </trkpt>
      <trkpt lat="44.5044" lon="6.24244">
        <ele>1186</ele>
        <time>2020-09-16T09:59:58Z</time>
      </trkpt>
      <trkpt lat="44.50438" lon="6.24247">
        <ele>1185.8</ele>
        <time>2020-09-16T09:59:59Z</time>
      </trkpt>
      <trkpt lat="44.50437" lon="6.2425">
        <ele>1185.9</ele>
        <time>2020-09-16T10:00:00Z</time>
      </trkpt>
      <trkpt lat="44.50436" lon="6.24253">
        <ele>1186.1</ele>
        <time>2020-09-16T10:00:01Z</time>
      </trkpt>
      <trkpt lat="44.50412" lon="6.24309">
        <ele>1187</ele>
        <time>2020-09-16T10:00:20Z</time>
      </trkpt>
      <trkpt lat="44.50381" lon="6.24375">
        <ele>1190.1</ele>
        <time>2020-09-16T10:00:40Z</time>
      </trkpt>
      <trkpt lat="44.50348" lon="6.2443">
        <ele>1186.8</ele>
        <time>2020-09-16T10:00:59Z</time>
      </trkpt>
      <trkpt lat="44.50342" lon="6.24479">
        <ele>1190.4</ele>
        <time>2020-09-16T10:01:14Z</time>
      </trkpt>
      <trkpt lat="44.50358" lon="6.24531">
        <ele>1200.4</ele>
        <time>2020-09-16T10:01:29Z</time>
      </trkpt>
      <trkpt lat="44.50366" lon="6.24587">
        <ele>1203.5</ele>
        <time>2020-09-16T10:01:41Z</time>
      </trkpt>
      <trkpt lat="44.50361" lon="6.24614">
        <ele>1203.5</ele>
        <time>2020-09-16T10:01:53Z</time>
      </trkpt>
      <trkpt lat="44.50361" lon="6.24615">
        <ele>1203.5</ele>
        <time>2020-09-16T10:01:54Z</time>
      </trkpt>
      <trkpt lat="44.50345" lon="6.24605">
        <ele>1198.3</ele>
        <time>2020-09-16T10:03:05Z</time>
      </trkpt>
      <trkpt lat="44.50345" lon="6.24601">
        <ele>1197.9</ele>
        <time>2020-09-16T10:03:06Z</time>
      </trkpt>
      <trkpt lat="44.50344" lon="6.24598">
        <ele>1197.2</ele>
        <time>2020-09-16T10:03:07Z</time>
      </trkpt>
      <trkpt lat="44.50342" lon="6.24595">
        <ele>1196.3</ele>
        <time>2020-09-16T10:03:08Z</time>
      </trkpt>
      <trkpt lat="44.50341" lon="6.24592">
        <ele>1195.6</ele>
        <time>2020-09-16T10:03:09Z</time>
      </trkpt>
      <trkpt lat="44.5032" lon="6.24565">
        <ele>1189.7</ele>
        <time>2020-09-16T10:03:21Z</time>
      </trkpt>
      <trkpt lat="44.50307" lon="6.24566">
        <ele>1188.2</ele>
        <time>2020-09-16T10:03:27Z</time>
      </trkpt>
      <trkpt lat="44.50303" lon="6.24572">
        <ele>1187.9</ele>
        <time>2020-09-16T10:03:34Z</time>
      </trkpt>
      <trkpt lat="44.50287" lon="6.24569">
        <ele>1185.8</ele>
        <time>2020-09-16T10:05:34Z</time>
      </trkpt>
      <trkpt lat="44.50269" lon="6.24539">
        <ele>1182.3</ele>
        <time>2020-09-16T10:05:45Z</time>
      </trkpt>
      <trkpt lat="44.5025" lon="6.24521">
        <ele>1179</ele>
        <time>2020-09-16T10:05:56Z</time>
      </trkpt>
      <trkpt lat="44.50249" lon="6.24521">
        <ele>1178.8</ele>
        <time>2020-09-16T10:05:59Z</time>
      </trkpt>
      <trkpt lat="44.50261" lon="6.24524">
        <ele>1180.6</ele>
        <time>2020-09-16T10:12:45Z</time>
      </trkpt>
      <trkpt lat="44.50264" lon="6.24526">
        <ele>1181</ele>
        <time>2020-09-16T10:12:46Z</time>
      </trkpt>
      <trkpt lat="44.50266" lon="6.24529">
        <ele>1181.4</ele>
        <time>2020-09-16T10:12:47Z</time>
      </trkpt>
      <trkpt lat="44.50268" lon="6.24532">
        <ele>1181.8</ele>
        <time>2020-09-16T10:12:48Z</time>
      </trkpt>
      <trkpt lat="44.503" lon="6.24574">
        <ele>1187.6</ele>
        <time>2020-09-16T10:13:05Z</time>
      </trkpt>
      <trkpt lat="44.50303" lon="6.24573">
        <ele>1187.9</ele>
        <time>2020-09-16T10:13:11Z</time>
      </trkpt>
      <trkpt lat="44.50305" lon="6.24566">
        <ele>1187.9</ele>
        <time>2020-09-16T10:13:25Z</time>
      </trkpt>
      <trkpt lat="44.50306" lon="6.24564">
        <ele>1187.9</ele>
        <time>2020-09-16T10:13:26Z</time>
      </trkpt>
      <trkpt lat="44.50307" lon="6.24562">
        <ele>1188</ele>
        <time>2020-09-16T10:13:27Z</time>
      </trkpt>
      <trkpt lat="44.50309" lon="6.24562">
        <ele>1188.2</ele>
        <time>2020-09-16T10:13:28Z</time>
      </trkpt>
      <trkpt lat="44.50311" lon="6.24562">
        <ele>1188.5</ele>
        <time>2020-09-16T10:13:29Z</time>
      </trkpt>
      <trkpt lat="44.50314" lon="6.24562">
        <ele>1188.9</ele>
        <time>2020-09-16T10:13:30Z</time>
      </trkpt>
      <trkpt lat="44.50316" lon="6.24562">
        <ele>1189.1</ele>
        <time>2020-09-16T10:13:31Z</time>
      </trkpt>
      <trkpt lat="44.50319" lon="6.24562">
        <ele>1189.5</ele>
        <time>2020-09-16T10:13:32Z</time>
      </trkpt>
      <trkpt lat="44.50344" lon="6.24583">
        <ele>1195.7</ele>
        <time>2020-09-16T10:13:43Z</time>
      </trkpt>
      <trkpt lat="44.50351" lon="6.24612">
        <ele>1200.6</ele>
        <time>2020-09-16T10:13:53Z</time>
      </trkpt>
      <trkpt lat="44.50364" lon="6.24611">
        <ele>1204.1</ele>
        <time>2020-09-16T10:13:59Z</time>
      </trkpt>
      <trkpt lat="44.50365" lon="6.24608">
        <ele>1204.3</ele>
        <time>2020-09-16T10:14:00Z</time>
      </trkpt>
      <trkpt lat="44.50366" lon="6.24605">
        <ele>1204.4</ele>
        <time>2020-09-16T10:14:01Z</time>
      </trkpt>
      <trkpt lat="44.50366" lon="6.24602">
        <ele>1204.3</ele>
        <time>2020-09-16T10:14:02Z</time>
      </trkpt>
      <trkpt lat="44.50367" lon="6.24598">
        <ele>1204.4</ele>
        <time>2020-09-16T10:14:03Z</time>
      </trkpt>
      <trkpt lat="44.50367" lon="6.24595">
        <ele>1204.2</ele>
        <time>2020-09-16T10:14:04Z</time>
      </trkpt>
      <trkpt lat="44.50366" lon="6.24552">
        <ele>1203.6</ele>
        <time>2020-09-16T10:14:18Z</time>
      </trkpt>
      <trkpt lat="44.50349" lon="6.24496">
        <ele>1195.6</ele>
        <time>2020-09-16T10:14:37Z</time>
      </trkpt>
      <trkpt lat="44.50344" lon="6.24451">
        <ele>1187.8</ele>
        <time>2020-09-16T10:14:51Z</time>
      </trkpt>
      <trkpt lat="44.50359" lon="6.24413">
        <ele>1189.1</ele>
        <time>2020-09-16T10:15:05Z</time>
      </trkpt>
      <trkpt lat="44.50359" lon="6.24412">
        <ele>1189</ele>
        <time>2020-09-16T10:15:10Z</time>
      </trkpt>
      <trkpt lat="44.50363" lon="6.24405">
        <ele>1189.3</ele>
        <time>2020-09-16T10:15:38Z</time>
      </trkpt>
      <trkpt lat="44.50364" lon="6.24403">
        <ele>1189.4</ele>
        <time>2020-09-16T10:15:43Z</time>
      </trkpt>
      <trkpt lat="44.5036" lon="6.24415">
        <ele>1189.9</ele>
        <time>2020-09-16T10:16:03Z</time>
      </trkpt>
      <trkpt lat="44.50358" lon="6.24418">
        <ele>1189.5</ele>
        <time>2020-09-16T10:16:04Z</time>
      </trkpt>
      <trkpt lat="44.50357" lon="6.24421">
        <ele>1189.5</ele>
        <time>2020-09-16T10:16:05Z</time>
      </trkpt>
      <trkpt lat="44.50356" lon="6.24424">
        <ele>1189.5</ele>
        <time>2020-09-16T10:16:06Z</time>
      </trkpt>
      <trkpt lat="44.50355" lon="6.24474">
        <ele>1195.5</ele>
        <time>2020-09-16T10:16:23Z</time>
      </trkpt>
      <trkpt lat="44.50358" lon="6.24474">
        <ele>1196.9</ele>
        <time>2020-09-16T10:16:25Z</time>
      </trkpt>
      <trkpt lat="44.5036" lon="6.24473">
        <ele>1197.6</ele>
        <time>2020-09-16T10:16:26Z</time>
      </trkpt>
      <trkpt lat="44.50362" lon="6.2447">
        <ele>1198.1</ele>
        <time>2020-09-16T10:16:27Z</time>
      </trkpt>
      <trkpt lat="44.50363" lon="6.24467">
        <ele>1198.1</ele>
        <time>2020-09-16T10:16:28Z</time>
      </trkpt>
      <trkpt lat="44.50364" lon="6.24464">
        <ele>1198.2</ele>
        <time>2020-09-16T10:16:29Z</time>
      </trkpt>
      <trkpt lat="44.50376" lon="6.24438">
        <ele>1199.9</ele>
        <time>2020-09-16T10:16:39Z</time>
      </trkpt>
      <trkpt lat="44.50384" lon="6.24428">
        <ele>1201.9</ele>
        <time>2020-09-16T10:16:44Z</time>
      </trkpt>
      <trkpt lat="44.50407" lon="6.24401">
        <ele>1205.9</ele>
        <time>2020-09-16T10:16:58Z</time>
      </trkpt>
      <trkpt lat="44.50424" lon="6.24382">
        <ele>1207.1</ele>
        <time>2020-09-16T10:17:09Z</time>
      </trkpt>
      <trkpt lat="44.50458" lon="6.24356">
        <ele>1211.9</ele>
        <time>2020-09-16T10:17:28Z</time>
      </trkpt>
      <trkpt lat="44.50494" lon="6.24327">
        <ele>1216.5</ele>
        <time>2020-09-16T10:17:48Z</time>
      </trkpt>
      <trkpt lat="44.50503" lon="6.24309">
        <ele>1215.3</ele>
        <time>2020-09-16T10:17:56Z</time>
      </trkpt>
      <trkpt lat="44.50504" lon="6.24307">
        <ele>1215.1</ele>
        <time>2020-09-16T10:17:57Z</time>
      </trkpt>
      <trkpt lat="44.50505" lon="6.24305">
        <ele>1214.9</ele>
        <time>2020-09-16T10:17:58Z</time>
      </trkpt>
      <trkpt lat="44.50507" lon="6.24303">
        <ele>1215</ele>
        <time>2020-09-16T10:17:59Z</time>
      </trkpt>
      <trkpt lat="44.50508" lon="6.24301">
        <ele>1214.8</ele>
        <time>2020-09-16T10:18:00Z</time>
      </trkpt>
      <trkpt lat="44.50509" lon="6.24298">
        <ele>1214.4</ele>
        <time>2020-09-16T10:18:01Z</time>
      </trkpt>
      <trkpt lat="44.50511" lon="6.24296">
        <ele>1214.5</ele>
        <time>2020-09-16T10:18:02Z</time>
      </trkpt>
      <trkpt lat="44.50512" lon="6.24295">
        <ele>1214.5</ele>
        <time>2020-09-16T10:18:03Z</time>
      </trkpt>
      <trkpt lat="44.50535" lon="6.24276">
        <ele>1216.1</ele>
        <time>2020-09-16T10:18:17Z</time>
      </trkpt>
      <trkpt lat="44.50559" lon="6.24254">
        <ele>1216.9</ele>
        <time>2020-09-16T10:18:30Z</time>
      </trkpt>
      <trkpt lat="44.50582" lon="6.24235">
        <ele>1219.5</ele>
        <time>2020-09-16T10:18:43Z</time>
      </trkpt>
      <trkpt lat="44.50606" lon="6.24227">
        <ele>1226.8</ele>
        <time>2020-09-16T10:18:55Z</time>
      </trkpt>
      <trkpt lat="44.50611" lon="6.24189">
        <ele>1222.9</ele>
        <time>2020-09-16T10:19:09Z</time>
      </trkpt>
      <trkpt lat="44.50628" lon="6.24164">
        <ele>1225.2</ele>
        <time>2020-09-16T10:19:20Z</time>
      </trkpt>
      <trkpt lat="44.5063" lon="6.24162">
        <ele>1225.6</ele>
        <time>2020-09-16T10:19:21Z</time>
      </trkpt>
      <trkpt lat="44.50632" lon="6.2416">
        <ele>1226.1</ele>
        <time>2020-09-16T10:19:22Z</time>
      </trkpt>
      <trkpt lat="44.50634" lon="6.24158">
        <ele>1226.5</ele>
        <time>2020-09-16T10:19:23Z</time>
      </trkpt>
      <trkpt lat="44.50636" lon="6.24156">
        <ele>1226.9</ele>
        <time>2020-09-16T10:19:24Z</time>
      </trkpt>
      <trkpt lat="44.50638" lon="6.24154">
        <ele>1227.4</ele>
        <time>2020-09-16T10:19:25Z</time>
      </trkpt>
      <trkpt lat="44.5064" lon="6.24152">
        <ele>1227.8</ele>
        <time>2020-09-16T10:19:26Z</time>
      </trkpt>
      <trkpt lat="44.50641" lon="6.24151">
        <ele>1228</ele>
        <time>2020-09-16T10:19:27Z</time>
      </trkpt>
      <trkpt lat="44.50644" lon="6.24149">
        <ele>1228.7</ele>
        <time>2020-09-16T10:19:28Z</time>
      </trkpt>
      <trkpt lat="44.50657" lon="6.24145">
        <ele>1232.6</ele>
        <time>2020-09-16T10:19:34Z</time>
      </trkpt>
      <trkpt lat="44.50678" lon="6.24128">
        <ele>1237.2</ele>
        <time>2020-09-16T10:19:45Z</time>
      </trkpt>
      <trkpt lat="44.50697" lon="6.24094">
        <ele>1237.6</ele>
        <time>2020-09-16T10:19:59Z</time>
      </trkpt>
      <trkpt lat="44.50715" lon="6.24065">
        <ele>1237.2</ele>
        <time>2020-09-16T10:20:12Z</time>
      </trkpt>
      <trkpt lat="44.50736" lon="6.24052">
        <ele>1240.6</ele>
        <time>2020-09-16T10:20:24Z</time>
      </trkpt>
      <trkpt lat="44.50764" lon="6.24058">
        <ele>1249.5</ele>
        <time>2020-09-16T10:20:38Z</time>
      </trkpt>
      <trkpt lat="44.50781" lon="6.24067">
        <ele>1255.6</ele>
        <time>2020-09-16T10:20:47Z</time>
      </trkpt>
      <trkpt lat="44.50803" lon="6.24061">
        <ele>1260.4</ele>
        <time>2020-09-16T10:20:58Z</time>
      </trkpt>
      <trkpt lat="44.50803" lon="6.2403">
        <ele>1255.7</ele>
        <time>2020-09-16T10:21:10Z</time>
      </trkpt>
      <trkpt lat="44.508" lon="6.23992">
        <ele>1249.5</ele>
        <time>2020-09-16T10:21:26Z</time>
      </trkpt>
      <trkpt lat="44.50824" lon="6.23988">
        <ele>1256.8</ele>
        <time>2020-09-16T10:21:39Z</time>
      </trkpt>
      <trkpt lat="44.50828" lon="6.23987">
        <ele>1258</ele>
        <time>2020-09-16T10:21:41Z</time>
      </trkpt>
      <trkpt lat="44.50829" lon="6.23986">
        <ele>1258.3</ele>
        <time>2020-09-16T10:21:42Z</time>
      </trkpt>
      <trkpt lat="44.50831" lon="6.23985">
        <ele>1258.8</ele>
        <time>2020-09-16T10:21:43Z</time>
      </trkpt>
      <trkpt lat="44.50833" lon="6.23984">
        <ele>1259.4</ele>
        <time>2020-09-16T10:21:44Z</time>
      </trkpt>
      <trkpt lat="44.50835" lon="6.23982">
        <ele>1260</ele>
        <time>2020-09-16T10:21:45Z</time>
      </trkpt>
      <trkpt lat="44.50836" lon="6.2398">
        <ele>1260.2</ele>
        <time>2020-09-16T10:21:46Z</time>
      </trkpt>
      <trkpt lat="44.50838" lon="6.23978">
        <ele>1260.8</ele>
        <time>2020-09-16T10:21:47Z</time>
      </trkpt>
      <trkpt lat="44.50839" lon="6.23976">
        <ele>1261</ele>
        <time>2020-09-16T10:21:48Z</time>
      </trkpt>
      <trkpt lat="44.5084" lon="6.23973">
        <ele>1261.1</ele>
        <time>2020-09-16T10:21:49Z</time>
      </trkpt>
      <trkpt lat="44.50844" lon="6.2393">
        <ele>1258.2</ele>
        <time>2020-09-16T10:22:06Z</time>
      </trkpt>
      <trkpt lat="44.50869" lon="6.23913">
        <ele>1265.5</ele>
        <time>2020-09-16T10:22:20Z</time>
      </trkpt>
      <trkpt lat="44.5089" lon="6.23903">
        <ele>1272.5</ele>
        <time>2020-09-16T10:22:32Z</time>
      </trkpt>
      <trkpt lat="44.509" lon="6.23891">
        <ele>1275.6</ele>
        <time>2020-09-16T10:22:37Z</time>
      </trkpt>
      <trkpt lat="44.50901" lon="6.23888">
        <ele>1275.9</ele>
        <time>2020-09-16T10:22:38Z</time>
      </trkpt>
      <trkpt lat="44.50901" lon="6.23885">
        <ele>1275.7</ele>
        <time>2020-09-16T10:22:39Z</time>
      </trkpt>
      <trkpt lat="44.50901" lon="6.23881">
        <ele>1275.5</ele>
        <time>2020-09-16T10:22:40Z</time>
      </trkpt>
      <trkpt lat="44.50901" lon="6.23878">
        <ele>1275.4</ele>
        <time>2020-09-16T10:22:41Z</time>
      </trkpt>
      <trkpt lat="44.50901" lon="6.23876">
        <ele>1275.3</ele>
        <time>2020-09-16T10:22:42Z</time>
      </trkpt>
      <trkpt lat="44.509" lon="6.23873">
        <ele>1274.7</ele>
        <time>2020-09-16T10:22:43Z</time>
      </trkpt>
      <trkpt lat="44.50892" lon="6.2383">
        <ele>1268.8</ele>
        <time>2020-09-16T10:22:59Z</time>
      </trkpt>
      <trkpt lat="44.50906" lon="6.23788">
        <ele>1271.9</ele>
        <time>2020-09-16T10:23:15Z</time>
      </trkpt>
      <trkpt lat="44.50921" lon="6.23751">
        <ele>1275.2</ele>
        <time>2020-09-16T10:23:30Z</time>
      </trkpt>
      <trkpt lat="44.50936" lon="6.23717">
        <ele>1279</ele>
        <time>2020-09-16T10:23:44Z</time>
      </trkpt>
      <trkpt lat="44.5096" lon="6.23696">
        <ele>1287.6</ele>
        <time>2020-09-16T10:23:58Z</time>
      </trkpt>
      <trkpt lat="44.5096" lon="6.23694">
        <ele>1287.3</ele>
        <time>2020-09-16T10:23:59Z</time>
      </trkpt>
      <trkpt lat="44.50961" lon="6.23691">
        <ele>1287.4</ele>
        <time>2020-09-16T10:24:00Z</time>
      </trkpt>
      <trkpt lat="44.50961" lon="6.23688">
        <ele>1287.1</ele>
        <time>2020-09-16T10:24:01Z</time>
      </trkpt>
      <trkpt lat="44.50961" lon="6.23686">
        <ele>1286.9</ele>
        <time>2020-09-16T10:24:02Z</time>
      </trkpt>
      <trkpt lat="44.5096" lon="6.23683">
        <ele>1286.1</ele>
        <time>2020-09-16T10:24:03Z</time>
      </trkpt>
      <trkpt lat="44.5096" lon="6.23681">
        <ele>1285.9</ele>
        <time>2020-09-16T10:24:04Z</time>
      </trkpt>
      <trkpt lat="44.50962" lon="6.23645">
        <ele>1285.3</ele>
        <time>2020-09-16T10:24:18Z</time>
      </trkpt>
      <trkpt lat="44.50986" lon="6.23642">
        <ele>1295</ele>
        <time>2020-09-16T10:24:31Z</time>
      </trkpt>
      <trkpt lat="44.50995" lon="6.23616">
        <ele>1298.4</ele>
        <time>2020-09-16T10:24:43Z</time>
      </trkpt>
      <trkpt lat="44.51002" lon="6.23577">
        <ele>1301.5</ele>
        <time>2020-09-16T10:24:58Z</time>
      </trkpt>
      <trkpt lat="44.50989" lon="6.2355">
        <ele>1298.5</ele>
        <time>2020-09-16T10:25:11Z</time>
      </trkpt>
      <trkpt lat="44.50982" lon="6.23531">
        <ele>1297.3</ele>
        <time>2020-09-16T10:25:20Z</time>
      </trkpt>
      <trkpt lat="44.50991" lon="6.23516">
        <ele>1302</ele>
        <time>2020-09-16T10:25:30Z</time>
      </trkpt>
      <trkpt lat="44.50992" lon="6.23517">
        <ele>1302.4</ele>
        <time>2020-09-16T10:25:31Z</time>
      </trkpt>
      <trkpt lat="44.50994" lon="6.23519">
        <ele>1303</ele>
        <time>2020-09-16T10:25:32Z</time>
      </trkpt>
      <trkpt lat="44.51005" lon="6.23541">
        <ele>1306.1</ele>
        <time>2020-09-16T10:25:43Z</time>
      </trkpt>
      <trkpt lat="44.51017" lon="6.23523">
        <ele>1313.6</ele>
        <time>2020-09-16T10:25:53Z</time>
      </trkpt>
      <trkpt lat="44.51022" lon="6.23501">
        <ele>1318</ele>
        <time>2020-09-16T10:26:02Z</time>
      </trkpt>
      <trkpt lat="44.51027" lon="6.2347">
        <ele>1322.2</ele>
        <time>2020-09-16T10:26:14Z</time>
      </trkpt>
      <trkpt lat="44.51032" lon="6.23442">
        <ele>1326.3</ele>
        <time>2020-09-16T10:26:25Z</time>
      </trkpt>
      <trkpt lat="44.51033" lon="6.23416">
        <ele>1328.3</ele>
        <time>2020-09-16T10:26:35Z</time>
      </trkpt>
      <trkpt lat="44.51027" lon="6.2338">
        <ele>1330</ele>
        <time>2020-09-16T10:26:49Z</time>
      </trkpt>
      <trkpt lat="44.51022" lon="6.23354">
        <ele>1331</ele>
        <time>2020-09-16T10:26:59Z</time>
      </trkpt>
      <trkpt lat="44.51018" lon="6.23324">
        <ele>1332.8</ele>
        <time>2020-09-16T10:27:11Z</time>
      </trkpt>
      <trkpt lat="44.51032" lon="6.23286">
        <ele>1343.5</ele>
        <time>2020-09-16T10:27:27Z</time>
      </trkpt>
      <trkpt lat="44.5104" lon="6.23257">
        <ele>1349.3</ele>
        <time>2020-09-16T10:27:39Z</time>
      </trkpt>
      <trkpt lat="44.51044" lon="6.23233">
        <ele>1354.5</ele>
        <time>2020-09-16T10:27:49Z</time>
      </trkpt>
      <trkpt lat="44.51049" lon="6.23202">
        <ele>1361.1</ele>
        <time>2020-09-16T10:28:01Z</time>
      </trkpt>
      <trkpt lat="44.51052" lon="6.23185">
        <ele>1364.2</ele>
        <time>2020-09-16T10:28:09Z</time>
      </trkpt>
      <trkpt lat="44.51054" lon="6.23184">
        <ele>1364.5</ele>
        <time>2020-09-16T10:28:10Z</time>
      </trkpt>
      <trkpt lat="44.51056" lon="6.23185">
        <ele>1364.6</ele>
        <time>2020-09-16T10:28:11Z</time>
      </trkpt>
      <trkpt lat="44.51058" lon="6.23185">
        <ele>1364.9</ele>
        <time>2020-09-16T10:28:12Z</time>
      </trkpt>
      <trkpt lat="44.5106" lon="6.23187">
        <ele>1364.9</ele>
        <time>2020-09-16T10:28:13Z</time>
      </trkpt>
      <trkpt lat="44.51062" lon="6.23188">
        <ele>1365</ele>
        <time>2020-09-16T10:28:14Z</time>
      </trkpt>
      <trkpt lat="44.51063" lon="6.2319">
        <ele>1364.9</ele>
        <time>2020-09-16T10:28:15Z</time>
      </trkpt>
      <trkpt lat="44.51064" lon="6.23193">
        <ele>1364.8</ele>
        <time>2020-09-16T10:28:16Z</time>
      </trkpt>
      <trkpt lat="44.51064" lon="6.23196">
        <ele>1364.5</ele>
        <time>2020-09-16T10:28:17Z</time>
      </trkpt>
      <trkpt lat="44.51064" lon="6.23199">
        <ele>1364.2</ele>
        <time>2020-09-16T10:28:18Z</time>
      </trkpt>
      <trkpt lat="44.51066" lon="6.23219">
        <ele>1362.8</ele>
        <time>2020-09-16T10:28:25Z</time>
      </trkpt>
      <trkpt lat="44.51076" lon="6.23252">
        <ele>1364.1</ele>
        <time>2020-09-16T10:28:38Z</time>
      </trkpt>
      <trkpt lat="44.51075" lon="6.2328">
        <ele>1363.3</ele>
        <time>2020-09-16T10:28:49Z</time>
      </trkpt>
      <trkpt lat="44.51072" lon="6.23304">
        <ele>1361.5</ele>
        <time>2020-09-16T10:28:58Z</time>
      </trkpt>
      <trkpt lat="44.51078" lon="6.23332">
        <ele>1364.1</ele>
        <time>2020-09-16T10:29:12Z</time>
      </trkpt>
      <trkpt lat="44.51088" lon="6.23309">
        <ele>1368.8</ele>
        <time>2020-09-16T10:29:23Z</time>
      </trkpt>
      <trkpt lat="44.51097" lon="6.23284">
        <ele>1372.2</ele>
        <time>2020-09-16T10:29:33Z</time>
      </trkpt>
      <trkpt lat="44.51108" lon="6.2326">
        <ele>1376.2</ele>
        <time>2020-09-16T10:29:43Z</time>
      </trkpt>
      <trkpt lat="44.51114" lon="6.23232">
        <ele>1377.7</ele>
        <time>2020-09-16T10:29:54Z</time>
      </trkpt>
      <trkpt lat="44.51137" lon="6.23212">
        <ele>1383.9</ele>
        <time>2020-09-16T10:30:07Z</time>
      </trkpt>
      <trkpt lat="44.51167" lon="6.232">
        <ele>1391.5</ele>
        <time>2020-09-16T10:30:23Z</time>
      </trkpt>
      <trkpt lat="44.51198" lon="6.23184">
        <ele>1395</ele>
        <time>2020-09-16T10:30:41Z</time>
      </trkpt>
      <trkpt lat="44.51229" lon="6.23167">
        <ele>1399</ele>
        <time>2020-09-16T10:30:59Z</time>
      </trkpt>
      <trkpt lat="44.51254" lon="6.23144">
        <ele>1401.2</ele>
        <time>2020-09-16T10:31:15Z</time>
      </trkpt>
      <trkpt lat="44.51262" lon="6.23096">
        <ele>1397.1</ele>
        <time>2020-09-16T10:31:30Z</time>
      </trkpt>
      <trkpt lat="44.51285" lon="6.23059">
        <ele>1395.2</ele>
        <time>2020-09-16T10:31:48Z</time>
      </trkpt>
      <trkpt lat="44.51306" lon="6.23042">
        <ele>1395.1</ele>
        <time>2020-09-16T10:32:02Z</time>
      </trkpt>
      <trkpt lat="44.51308" lon="6.2304">
        <ele>1395</ele>
        <time>2020-09-16T10:32:08Z</time>
      </trkpt>
      <trkpt lat="44.51311" lon="6.2303">
        <ele>1394.3</ele>
        <time>2020-09-16T10:33:16Z</time>
      </trkpt>
      <trkpt lat="44.51312" lon="6.23028">
        <ele>1394.2</ele>
        <time>2020-09-16T10:33:17Z</time>
      </trkpt>
      <trkpt lat="44.51311" lon="6.23026">
        <ele>1393.9</ele>
        <time>2020-09-16T10:33:18Z</time>
      </trkpt>
      <trkpt lat="44.51309" lon="6.23025">
        <ele>1393.6</ele>
        <time>2020-09-16T10:33:19Z</time>
      </trkpt>
      <trkpt lat="44.51308" lon="6.23024">
        <ele>1393.5</ele>
        <time>2020-09-16T10:33:20Z</time>
      </trkpt>
      <trkpt lat="44.51306" lon="6.23024">
        <ele>1393.3</ele>
        <time>2020-09-16T10:33:21Z</time>
      </trkpt>
      <trkpt lat="44.51304" lon="6.23025">
        <ele>1393.3</ele>
        <time>2020-09-16T10:33:22Z</time>
      </trkpt>
      <trkpt lat="44.51303" lon="6.23026">
        <ele>1393.3</ele>
        <time>2020-09-16T10:33:23Z</time>
      </trkpt>
      <trkpt lat="44.51302" lon="6.23028">
        <ele>1393.4</ele>
        <time>2020-09-16T10:33:24Z</time>
      </trkpt>
      <trkpt lat="44.51301" lon="6.2303">
        <ele>1393.6</ele>
        <time>2020-09-16T10:33:25Z</time>
      </trkpt>
      <trkpt lat="44.51301" lon="6.23033">
        <ele>1393.8</ele>
        <time>2020-09-16T10:33:26Z</time>
      </trkpt>
      <trkpt lat="44.51301" lon="6.23036">
        <ele>1394.1</ele>
        <time>2020-09-16T10:33:27Z</time>
      </trkpt>
      <trkpt lat="44.51301" lon="6.23039">
        <ele>1394.4</ele>
        <time>2020-09-16T10:33:28Z</time>
      </trkpt>
      <trkpt lat="44.51301" lon="6.23041">
        <ele>1394.6</ele>
        <time>2020-09-16T10:33:29Z</time>
      </trkpt>
      <trkpt lat="44.51309" lon="6.23062">
        <ele>1397.2</ele>
        <time>2020-09-16T10:33:42Z</time>
      </trkpt>
      <trkpt lat="44.51314" lon="6.23054">
        <ele>1396.8</ele>
        <time>2020-09-16T10:35:54Z</time>
      </trkpt>
      <trkpt lat="44.51313" lon="6.23055">
        <ele>1396.8</ele>
        <time>2020-09-16T10:35:58Z</time>
      </trkpt>
      <trkpt lat="44.51305" lon="6.23044">
        <ele>1395.2</ele>
        <time>2020-09-16T10:38:09Z</time>
      </trkpt>
      <trkpt lat="44.51304" lon="6.23041">
        <ele>1394.8</ele>
        <time>2020-09-16T10:38:10Z</time>
      </trkpt>
      <trkpt lat="44.51304" lon="6.23038">
        <ele>1394.5</ele>
        <time>2020-09-16T10:38:11Z</time>
      </trkpt>
      <trkpt lat="44.51281" lon="6.22988">
        <ele>1389.7</ele>
        <time>2020-09-16T10:38:23Z</time>
      </trkpt>
      <trkpt lat="44.51252" lon="6.22949">
        <ele>1391.3</ele>
        <time>2020-09-16T10:38:37Z</time>
      </trkpt>
      <trkpt lat="44.51205" lon="6.22926">
        <ele>1407.3</ele>
        <time>2020-09-16T10:38:57Z</time>
      </trkpt>
      <trkpt lat="44.51179" lon="6.22946">
        <ele>1411.8</ele>
        <time>2020-09-16T10:39:10Z</time>
      </trkpt>
      <trkpt lat="44.5116" lon="6.22966">
        <ele>1413.5</ele>
        <time>2020-09-16T10:39:21Z</time>
      </trkpt>
      <trkpt lat="44.51133" lon="6.22997">
        <ele>1414.6</ele>
        <time>2020-09-16T10:39:37Z</time>
      </trkpt>
      <trkpt lat="44.51112" lon="6.23011">
        <ele>1416</ele>
        <time>2020-09-16T10:39:49Z</time>
      </trkpt>
      <trkpt lat="44.51088" lon="6.23016">
        <ele>1419.8</ele>
        <time>2020-09-16T10:40:02Z</time>
      </trkpt>
      <trkpt lat="44.5106" lon="6.23022">
        <ele>1422.2</ele>
        <time>2020-09-16T10:40:17Z</time>
      </trkpt>
      <trkpt lat="44.51026" lon="6.23027">
        <ele>1425.6</ele>
        <time>2020-09-16T10:40:35Z</time>
      </trkpt>
      <trkpt lat="44.50996" lon="6.23023">
        <ele>1431.4</ele>
        <time>2020-09-16T10:40:51Z</time>
      </trkpt>
      <trkpt lat="44.50968" lon="6.23017">
        <ele>1435.3</ele>
        <time>2020-09-16T10:41:06Z</time>
      </trkpt>
      <trkpt lat="44.50962" lon="6.23017">
        <ele>1435.7</ele>
        <time>2020-09-16T10:41:09Z</time>
      </trkpt>
      <trkpt lat="44.5096" lon="6.23017">
        <ele>1435.8</ele>
        <time>2020-09-16T10:41:10Z</time>
      </trkpt>
      <trkpt lat="44.50958" lon="6.23017">
        <ele>1435.9</ele>
        <time>2020-09-16T10:41:11Z</time>
      </trkpt>
      <trkpt lat="44.50956" lon="6.23018">
        <ele>1435.7</ele>
        <time>2020-09-16T10:41:12Z</time>
      </trkpt>
      <trkpt lat="44.50955" lon="6.23018">
        <ele>1435.8</ele>
        <time>2020-09-16T10:41:13Z</time>
      </trkpt>
      <trkpt lat="44.50931" lon="6.23025">
        <ele>1435.1</ele>
        <time>2020-09-16T10:41:26Z</time>
      </trkpt>
      <trkpt lat="44.50903" lon="6.23039">
        <ele>1427.7</ele>
        <time>2020-09-16T10:41:42Z</time>
      </trkpt>
      <trkpt lat="44.50886" lon="6.23034">
        <ele>1423.4</ele>
        <time>2020-09-16T10:41:54Z</time>
      </trkpt>
      <trkpt lat="44.50886" lon="6.23032">
        <ele>1423.9</ele>
        <time>2020-09-16T10:41:55Z</time>
      </trkpt>
      <trkpt lat="44.50886" lon="6.2303">
        <ele>1424.5</ele>
        <time>2020-09-16T10:41:56Z</time>
      </trkpt>
      <trkpt lat="44.50887" lon="6.23025">
        <ele>1426.3</ele>
        <time>2020-09-16T10:42:02Z</time>
      </trkpt>
      <trkpt lat="44.50886" lon="6.23034">
        <ele>1423.4</ele>
        <time>2020-09-16T10:45:03Z</time>
      </trkpt>
      <trkpt lat="44.50888" lon="6.23031">
        <ele>1424.9</ele>
        <time>2020-09-16T10:45:04Z</time>
      </trkpt>
      <trkpt lat="44.50889" lon="6.23028">
        <ele>1426.1</ele>
        <time>2020-09-16T10:45:05Z</time>
      </trkpt>
      <trkpt lat="44.50918" lon="6.23006">
        <ele>1441.3</ele>
        <time>2020-09-16T10:45:19Z</time>
      </trkpt>
      <trkpt lat="44.50948" lon="6.2298">
        <ele>1445.8</ele>
        <time>2020-09-16T10:45:35Z</time>
      </trkpt>
      <trkpt lat="44.50971" lon="6.22969">
        <ele>1448.5</ele>
        <time>2020-09-16T10:45:47Z</time>
      </trkpt>
      <trkpt lat="44.50976" lon="6.22968">
        <ele>1448.9</ele>
        <time>2020-09-16T10:45:49Z</time>
      </trkpt>
      <trkpt lat="44.50999" lon="6.22966">
        <ele>1450.2</ele>
        <time>2020-09-16T10:46:00Z</time>
      </trkpt>
      <trkpt lat="44.51023" lon="6.22943">
        <ele>1453.3</ele>
        <time>2020-09-16T10:46:14Z</time>
      </trkpt>
      <trkpt lat="44.51029" lon="6.22907">
        <ele>1460.8</ele>
        <time>2020-09-16T10:46:28Z</time>
      </trkpt>
      <trkpt lat="44.5103" lon="6.22881">
        <ele>1462.6</ele>
        <time>2020-09-16T10:46:37Z</time>
      </trkpt>
      <trkpt lat="44.5103" lon="6.22878">
        <ele>1462.8</ele>
        <time>2020-09-16T10:46:38Z</time>
      </trkpt>
      <trkpt lat="44.5103" lon="6.22875">
        <ele>1463</ele>
        <time>2020-09-16T10:46:39Z</time>
      </trkpt>
      <trkpt lat="44.5103" lon="6.22872">
        <ele>1463.2</ele>
        <time>2020-09-16T10:46:40Z</time>
      </trkpt>
      <trkpt lat="44.51029" lon="6.22869">
        <ele>1463.6</ele>
        <time>2020-09-16T10:46:41Z</time>
      </trkpt>
      <trkpt lat="44.5103" lon="6.22866">
        <ele>1463.7</ele>
        <time>2020-09-16T10:46:42Z</time>
      </trkpt>
      <trkpt lat="44.5103" lon="6.22863">
        <ele>1463.9</ele>
        <time>2020-09-16T10:46:43Z</time>
      </trkpt>
      <trkpt lat="44.51029" lon="6.22828">
        <ele>1466.3</ele>
        <time>2020-09-16T10:46:55Z</time>
      </trkpt>
      <trkpt lat="44.51027" lon="6.22795">
        <ele>1467</ele>
        <time>2020-09-16T10:47:08Z</time>
      </trkpt>
      <trkpt lat="44.51027" lon="6.22752">
        <ele>1467.7</ele>
        <time>2020-09-16T10:47:23Z</time>
      </trkpt>
      <trkpt lat="44.51034" lon="6.22716">
        <ele>1470</ele>
        <time>2020-09-16T10:47:37Z</time>
      </trkpt>
      <trkpt lat="44.51029" lon="6.2268">
        <ele>1474.1</ele>
        <time>2020-09-16T10:47:51Z</time>
      </trkpt>
      <trkpt lat="44.51024" lon="6.22644">
        <ele>1479</ele>
        <time>2020-09-16T10:48:05Z</time>
      </trkpt>
      <trkpt lat="44.51025" lon="6.22642">
        <ele>1479</ele>
        <time>2020-09-16T10:48:06Z</time>
      </trkpt>
      <trkpt lat="44.51024" lon="6.2264">
        <ele>1479.5</ele>
        <time>2020-09-16T10:48:07Z</time>
      </trkpt>
      <trkpt lat="44.51024" lon="6.22638">
        <ele>1479.7</ele>
        <time>2020-09-16T10:48:08Z</time>
      </trkpt>
      <trkpt lat="44.51024" lon="6.22636">
        <ele>1479.9</ele>
        <time>2020-09-16T10:48:09Z</time>
      </trkpt>
      <trkpt lat="44.51024" lon="6.22634">
        <ele>1480.2</ele>
        <time>2020-09-16T10:48:10Z</time>
      </trkpt>
      <trkpt lat="44.51024" lon="6.22631">
        <ele>1480.5</ele>
        <time>2020-09-16T10:48:11Z</time>
      </trkpt>
      <trkpt lat="44.51024" lon="6.22629">
        <ele>1480.7</ele>
        <time>2020-09-16T10:48:12Z</time>
      </trkpt>
      <trkpt lat="44.51024" lon="6.22626">
        <ele>1481</ele>
        <time>2020-09-16T10:48:13Z</time>
      </trkpt>
      <trkpt lat="44.51024" lon="6.22625">
        <ele>1481.2</ele>
        <time>2020-09-16T10:48:14Z</time>
      </trkpt>
      <trkpt lat="44.51024" lon="6.22623">
        <ele>1481.4</ele>
        <time>2020-09-16T10:48:15Z</time>
      </trkpt>
      <trkpt lat="44.51023" lon="6.2259">
        <ele>1485.4</ele>
        <time>2020-09-16T10:48:27Z</time>
      </trkpt>
      <trkpt lat="44.51023" lon="6.22581">
        <ele>1486.3</ele>
        <time>2020-09-16T10:48:30Z</time>
      </trkpt>
      <trkpt lat="44.51024" lon="6.22579">
        <ele>1486.1</ele>
        <time>2020-09-16T10:48:31Z</time>
      </trkpt>
      <trkpt lat="44.51026" lon="6.22547">
        <ele>1487.4</ele>
        <time>2020-09-16T10:48:43Z</time>
      </trkpt>
      <trkpt lat="44.51029" lon="6.22502">
        <ele>1489.5</ele>
        <time>2020-09-16T10:48:59Z</time>
      </trkpt>
      <trkpt lat="44.51033" lon="6.22458">
        <ele>1494</ele>
        <time>2020-09-16T10:49:15Z</time>
      </trkpt>
      <trkpt lat="44.51038" lon="6.22418">
        <ele>1497.9</ele>
        <time>2020-09-16T10:49:30Z</time>
      </trkpt>
      <trkpt lat="44.51049" lon="6.22379">
        <ele>1499.2</ele>
        <time>2020-09-16T10:49:46Z</time>
      </trkpt>
      <trkpt lat="44.5106" lon="6.2234">
        <ele>1500.7</ele>
        <time>2020-09-16T10:50:02Z</time>
      </trkpt>
      <trkpt lat="44.51076" lon="6.22294">
        <ele>1499.6</ele>
        <time>2020-09-16T10:50:21Z</time>
      </trkpt>
      <trkpt lat="44.51089" lon="6.22246">
        <ele>1498.6</ele>
        <time>2020-09-16T10:50:41Z</time>
      </trkpt>
      <trkpt lat="44.51074" lon="6.22245">
        <ele>1503.3</ele>
        <time>2020-09-16T10:50:51Z</time>
      </trkpt>
      <trkpt lat="44.51057" lon="6.22276">
        <ele>1506.8</ele>
        <time>2020-09-16T10:51:05Z</time>
      </trkpt>
      <trkpt lat="44.51035" lon="6.22304">
        <ele>1511.1</ele>
        <time>2020-09-16T10:51:21Z</time>
      </trkpt>
      <trkpt lat="44.51013" lon="6.22331">
        <ele>1514.7</ele>
        <time>2020-09-16T10:51:37Z</time>
      </trkpt>
      <trkpt lat="44.50991" lon="6.22362">
        <ele>1516.9</ele>
        <time>2020-09-16T10:51:54Z</time>
      </trkpt>
      <trkpt lat="44.50969" lon="6.22394">
        <ele>1517.6</ele>
        <time>2020-09-16T10:52:11Z</time>
      </trkpt>
      <trkpt lat="44.50942" lon="6.22423">
        <ele>1518.9</ele>
        <time>2020-09-16T10:52:29Z</time>
      </trkpt>
      <trkpt lat="44.50911" lon="6.22424">
        <ele>1522.6</ele>
        <time>2020-09-16T10:52:47Z</time>
      </trkpt>
      <trkpt lat="44.50915" lon="6.22394">
        <ele>1527.9</ele>
        <time>2020-09-16T10:53:00Z</time>
      </trkpt>
      <trkpt lat="44.50935" lon="6.22361">
        <ele>1529.8</ele>
        <time>2020-09-16T10:53:16Z</time>
      </trkpt>
      <trkpt lat="44.50958" lon="6.22316">
        <ele>1531.3</ele>
        <time>2020-09-16T10:53:36Z</time>
      </trkpt>
      <trkpt lat="44.5097" lon="6.22271">
        <ele>1534.7</ele>
        <time>2020-09-16T10:53:54Z</time>
      </trkpt>
      <trkpt lat="44.50972" lon="6.22214">
        <ele>1541.3</ele>
        <time>2020-09-16T10:54:15Z</time>
      </trkpt>
      <trkpt lat="44.50976" lon="6.22167">
        <ele>1545.2</ele>
        <time>2020-09-16T10:54:33Z</time>
      </trkpt>
      <trkpt lat="44.5098" lon="6.22135">
        <ele>1548.4</ele>
        <time>2020-09-16T10:54:45Z</time>
      </trkpt>
      <trkpt lat="44.50985" lon="6.22098">
        <ele>1551.5</ele>
        <time>2020-09-16T10:55:00Z</time>
      </trkpt>
      <trkpt lat="44.5099" lon="6.22057">
        <ele>1555.3</ele>
        <time>2020-09-16T10:55:16Z</time>
      </trkpt>
      <trkpt lat="44.51" lon="6.22022">
        <ele>1556.3</ele>
        <time>2020-09-16T10:55:31Z</time>
      </trkpt>
      <trkpt lat="44.5101" lon="6.21987">
        <ele>1559.2</ele>
        <time>2020-09-16T10:55:46Z</time>
      </trkpt>
      <trkpt lat="44.51005" lon="6.21978">
        <ele>1562.3</ele>
        <time>2020-09-16T10:55:51Z</time>
      </trkpt>
      <trkpt lat="44.51003" lon="6.21979">
        <ele>1562.7</ele>
        <time>2020-09-16T10:55:52Z</time>
      </trkpt>
      <trkpt lat="44.51001" lon="6.2198">
        <ele>1563.1</ele>
        <time>2020-09-16T10:55:53Z</time>
      </trkpt>
      <trkpt lat="44.51" lon="6.21982">
        <ele>1563</ele>
        <time>2020-09-16T10:55:54Z</time>
      </trkpt>
      <trkpt lat="44.50998" lon="6.21984">
        <ele>1563.5</ele>
        <time>2020-09-16T10:55:55Z</time>
      </trkpt>
      <trkpt lat="44.50997" lon="6.21986">
        <ele>1563.6</ele>
        <time>2020-09-16T10:55:56Z</time>
      </trkpt>
      <trkpt lat="44.50981" lon="6.22022">
        <ele>1565.2</ele>
        <time>2020-09-16T10:56:11Z</time>
      </trkpt>
      <trkpt lat="44.50956" lon="6.22075">
        <ele>1569.4</ele>
        <time>2020-09-16T10:56:33Z</time>
      </trkpt>
      <trkpt lat="44.50938" lon="6.22118">
        <ele>1570</ele>
        <time>2020-09-16T10:56:51Z</time>
      </trkpt>
      <trkpt lat="44.50907" lon="6.22158">
        <ele>1571.2</ele>
        <time>2020-09-16T10:57:14Z</time>
      </trkpt>
      <trkpt lat="44.50877" lon="6.22149">
        <ele>1576.5</ele>
        <time>2020-09-16T10:57:29Z</time>
      </trkpt>
      <trkpt lat="44.50845" lon="6.22137">
        <ele>1582.2</ele>
        <time>2020-09-16T10:57:46Z</time>
      </trkpt>
      <trkpt lat="44.50816" lon="6.22121">
        <ele>1580.7</ele>
        <time>2020-09-16T10:58:02Z</time>
      </trkpt>
      <trkpt lat="44.50815" lon="6.2208">
        <ele>1585.7</ele>
        <time>2020-09-16T10:58:17Z</time>
      </trkpt>
      <trkpt lat="44.50821" lon="6.22033">
        <ele>1591</ele>
        <time>2020-09-16T10:58:34Z</time>
      </trkpt>
      <trkpt lat="44.50827" lon="6.21997">
        <ele>1595.3</ele>
        <time>2020-09-16T10:58:48Z</time>
      </trkpt>
      <trkpt lat="44.50842" lon="6.21959">
        <ele>1596</ele>
        <time>2020-09-16T10:59:04Z</time>
      </trkpt>
      <trkpt lat="44.50874" lon="6.21914">
        <ele>1593.8</ele>
        <time>2020-09-16T10:59:27Z</time>
      </trkpt>
      <trkpt lat="44.50884" lon="6.21899">
        <ele>1595.4</ele>
        <time>2020-09-16T10:59:39Z</time>
      </trkpt>
      <trkpt lat="44.5088" lon="6.21883">
        <ele>1597.3</ele>
        <time>2020-09-16T11:02:03Z</time>
      </trkpt>
      <trkpt lat="44.50879" lon="6.21881">
        <ele>1597.5</ele>
        <time>2020-09-16T11:02:04Z</time>
      </trkpt>
      <trkpt lat="44.50878" lon="6.21878">
        <ele>1597.9</ele>
        <time>2020-09-16T11:02:05Z</time>
      </trkpt>
      <trkpt lat="44.50863" lon="6.21844">
        <ele>1601.8</ele>
        <time>2020-09-16T11:02:19Z</time>
      </trkpt>
      <trkpt lat="44.50841" lon="6.21813">
        <ele>1606.7</ele>
        <time>2020-09-16T11:02:35Z</time>
      </trkpt>
      <trkpt lat="44.5081" lon="6.2181">
        <ele>1604.6</ele>
        <time>2020-09-16T11:02:50Z</time>
      </trkpt>
      <trkpt lat="44.5079" lon="6.21793">
        <ele>1605.6</ele>
        <time>2020-09-16T11:03:02Z</time>
      </trkpt>
      <trkpt lat="44.50789" lon="6.21754">
        <ele>1613</ele>
        <time>2020-09-16T11:03:13Z</time>
      </trkpt>
      <trkpt lat="44.50762" lon="6.21753">
        <ele>1610.6</ele>
        <time>2020-09-16T11:03:21Z</time>
      </trkpt>
      <trkpt lat="44.50739" lon="6.21767">
        <ele>1607.1</ele>
        <time>2020-09-16T11:03:32Z</time>
      </trkpt>
      <trkpt lat="44.50736" lon="6.21769">
        <ele>1606.8</ele>
        <time>2020-09-16T11:03:34Z</time>
      </trkpt>
      <trkpt lat="44.50734" lon="6.21769">
        <ele>1606.9</ele>
        <time>2020-09-16T11:03:35Z</time>
      </trkpt>
      <trkpt lat="44.50724" lon="6.21774">
        <ele>1606.4</ele>
        <time>2020-09-16T11:03:40Z</time>
      </trkpt>
      <trkpt lat="44.5072" lon="6.21775">
        <ele>1606.3</ele>
        <time>2020-09-16T11:03:42Z</time>
      </trkpt>
      <trkpt lat="44.50718" lon="6.21775">
        <ele>1606.4</ele>
        <time>2020-09-16T11:03:43Z</time>
      </trkpt>
      <trkpt lat="44.50688" lon="6.21776">
        <ele>1607.7</ele>
        <time>2020-09-16T11:03:56Z</time>
      </trkpt>
      <trkpt lat="44.50685" lon="6.21777">
        <ele>1607.6</ele>
        <time>2020-09-16T11:03:58Z</time>
      </trkpt>
      <trkpt lat="44.50683" lon="6.21777">
        <ele>1607.7</ele>
        <time>2020-09-16T11:03:59Z</time>
      </trkpt>
      <trkpt lat="44.50681" lon="6.21777">
        <ele>1607.8</ele>
        <time>2020-09-16T11:04:00Z</time>
      </trkpt>
      <trkpt lat="44.50655" lon="6.21793">
        <ele>1605.5</ele>
        <time>2020-09-16T11:04:14Z</time>
      </trkpt>
      <trkpt lat="44.5062" lon="6.21798">
        <ele>1605.3</ele>
        <time>2020-09-16T11:04:32Z</time>
      </trkpt>
      <trkpt lat="44.50593" lon="6.2179">
        <ele>1607</ele>
        <time>2020-09-16T11:04:46Z</time>
      </trkpt>
      <trkpt lat="44.50564" lon="6.21771">
        <ele>1606.8</ele>
        <time>2020-09-16T11:04:57Z</time>
      </trkpt>
      <trkpt lat="44.50552" lon="6.2176">
        <ele>1606.6</ele>
        <time>2020-09-16T11:05:01Z</time>
      </trkpt>
      <trkpt lat="44.50548" lon="6.21756">
        <ele>1606.6</ele>
        <time>2020-09-16T11:05:02Z</time>
      </trkpt>
      <trkpt lat="44.50543" lon="6.21752">
        <ele>1606.4</ele>
        <time>2020-09-16T11:05:03Z</time>
      </trkpt>
      <trkpt lat="44.50539" lon="6.21748">
        <ele>1606.5</ele>
        <time>2020-09-16T11:05:04Z</time>
      </trkpt>
      <trkpt lat="44.50533" lon="6.21744">
        <ele>1606.4</ele>
        <time>2020-09-16T11:05:05Z</time>
      </trkpt>
      <trkpt lat="44.50528" lon="6.21741">
        <ele>1606.2</ele>
        <time>2020-09-16T11:05:06Z</time>
      </trkpt>
      <trkpt lat="44.50524" lon="6.21739">
        <ele>1606</ele>
        <time>2020-09-16T11:05:07Z</time>
      </trkpt>
      <trkpt lat="44.50484" lon="6.21711">
        <ele>1608.7</ele>
        <time>2020-09-16T11:05:20Z</time>
      </trkpt>
      <trkpt lat="44.50451" lon="6.2171">
        <ele>1610.2</ele>
        <time>2020-09-16T11:05:35Z</time>
      </trkpt>
      <trkpt lat="44.5043" lon="6.21705">
        <ele>1612.1</ele>
        <time>2020-09-16T11:05:45Z</time>
      </trkpt>
      <trkpt lat="44.50403" lon="6.21691">
        <ele>1614.8</ele>
        <time>2020-09-16T11:05:58Z</time>
      </trkpt>
      <trkpt lat="44.50369" lon="6.2167">
        <ele>1617.6</ele>
        <time>2020-09-16T11:06:15Z</time>
      </trkpt>
      <trkpt lat="44.50346" lon="6.21653">
        <ele>1619.5</ele>
        <time>2020-09-16T11:06:27Z</time>
      </trkpt>
      <trkpt lat="44.50313" lon="6.21633">
        <ele>1622</ele>
        <time>2020-09-16T11:06:44Z</time>
      </trkpt>
      <trkpt lat="44.50278" lon="6.21598">
        <ele>1626.1</ele>
        <time>2020-09-16T11:07:05Z</time>
      </trkpt>
      <trkpt lat="44.50255" lon="6.21583">
        <ele>1627.2</ele>
        <time>2020-09-16T11:07:17Z</time>
      </trkpt>
      <trkpt lat="44.50222" lon="6.21588">
        <ele>1629.9</ele>
        <time>2020-09-16T11:07:32Z</time>
      </trkpt>
      <trkpt lat="44.50191" lon="6.21575">
        <ele>1634.3</ele>
        <time>2020-09-16T11:07:48Z</time>
      </trkpt>
      <trkpt lat="44.50162" lon="6.21549">
        <ele>1636.8</ele>
        <time>2020-09-16T11:08:04Z</time>
      </trkpt>
      <trkpt lat="44.50132" lon="6.21524">
        <ele>1639.9</ele>
        <time>2020-09-16T11:08:21Z</time>
      </trkpt>
      <trkpt lat="44.5011" lon="6.21515">
        <ele>1642.3</ele>
        <time>2020-09-16T11:08:35Z</time>
      </trkpt>
      <trkpt lat="44.50117" lon="6.21462">
        <ele>1639.7</ele>
        <time>2020-09-16T11:12:16Z</time>
      </trkpt>
      <trkpt lat="44.50105" lon="6.21471">
        <ele>1641</ele>
        <time>2020-09-16T11:12:24Z</time>
      </trkpt>
      <trkpt lat="44.50105" lon="6.21475">
        <ele>1641.2</ele>
        <time>2020-09-16T11:12:25Z</time>
      </trkpt>
      <trkpt lat="44.50101" lon="6.21538">
        <ele>1644.2</ele>
        <time>2020-09-16T11:12:44Z</time>
      </trkpt>
      <trkpt lat="44.50083" lon="6.21568">
        <ele>1647.5</ele>
        <time>2020-09-16T11:12:58Z</time>
      </trkpt>
      <trkpt lat="44.50065" lon="6.2157">
        <ele>1650.1</ele>
        <time>2020-09-16T11:13:08Z</time>
      </trkpt>
      <trkpt lat="44.50049" lon="6.21564">
        <ele>1652</ele>
        <time>2020-09-16T11:13:17Z</time>
      </trkpt>
      <trkpt lat="44.50023" lon="6.2155">
        <ele>1654.6</ele>
        <time>2020-09-16T11:13:32Z</time>
      </trkpt>
      <trkpt lat="44.49996" lon="6.21537">
        <ele>1657.2</ele>
        <time>2020-09-16T11:13:47Z</time>
      </trkpt>
      <trkpt lat="44.49969" lon="6.21524">
        <ele>1660.2</ele>
        <time>2020-09-16T11:14:02Z</time>
      </trkpt>
      <trkpt lat="44.49968" lon="6.21523">
        <ele>1660.3</ele>
        <time>2020-09-16T11:14:03Z</time>
      </trkpt>
      <trkpt lat="44.49966" lon="6.21522">
        <ele>1660.6</ele>
        <time>2020-09-16T11:14:04Z</time>
      </trkpt>
      <trkpt lat="44.49943" lon="6.21508">
        <ele>1663.3</ele>
        <time>2020-09-16T11:14:18Z</time>
      </trkpt>
      <trkpt lat="44.49924" lon="6.215">
        <ele>1665.9</ele>
        <time>2020-09-16T11:14:29Z</time>
      </trkpt>
      <trkpt lat="44.49893" lon="6.21516">
        <ele>1670.4</ele>
        <time>2020-09-16T11:14:47Z</time>
      </trkpt>
      <trkpt lat="44.49879" lon="6.21542">
        <ele>1673.7</ele>
        <time>2020-09-16T11:14:59Z</time>
      </trkpt>
      <trkpt lat="44.49864" lon="6.21567">
        <ele>1677.6</ele>
        <time>2020-09-16T11:15:11Z</time>
      </trkpt>
      <trkpt lat="44.49851" lon="6.21585">
        <ele>1681.1</ele>
        <time>2020-09-16T11:15:21Z</time>
      </trkpt>
      <trkpt lat="44.49833" lon="6.21587">
        <ele>1684.1</ele>
        <time>2020-09-16T11:15:31Z</time>
      </trkpt>
      <trkpt lat="44.49816" lon="6.21576">
        <ele>1686.5</ele>
        <time>2020-09-16T11:15:41Z</time>
      </trkpt>
      <trkpt lat="44.49795" lon="6.21565">
        <ele>1689</ele>
        <time>2020-09-16T11:15:53Z</time>
      </trkpt>
      <trkpt lat="44.49768" lon="6.21555">
        <ele>1692.2</ele>
        <time>2020-09-16T11:16:07Z</time>
      </trkpt>
      <trkpt lat="44.49742" lon="6.21551">
        <ele>1694.7</ele>
        <time>2020-09-16T11:16:21Z</time>
      </trkpt>
      <trkpt lat="44.49718" lon="6.21552">
        <ele>1695.5</ele>
        <time>2020-09-16T11:16:34Z</time>
      </trkpt>
      <trkpt lat="44.497" lon="6.21565">
        <ele>1699.1</ele>
        <time>2020-09-16T11:16:45Z</time>
      </trkpt>
      <trkpt lat="44.49683" lon="6.21593">
        <ele>1705.4</ele>
        <time>2020-09-16T11:16:58Z</time>
      </trkpt>
      <trkpt lat="44.49659" lon="6.21613">
        <ele>1708</ele>
        <time>2020-09-16T11:17:12Z</time>
      </trkpt>
      <trkpt lat="44.49642" lon="6.21628">
        <ele>1709.7</ele>
        <time>2020-09-16T11:17:23Z</time>
      </trkpt>
      <trkpt lat="44.49621" lon="6.21644">
        <ele>1712.7</ele>
        <time>2020-09-16T11:17:35Z</time>
      </trkpt>
      <trkpt lat="44.49594" lon="6.21663">
        <ele>1718.2</ele>
        <time>2020-09-16T11:17:51Z</time>
      </trkpt>
      <trkpt lat="44.49573" lon="6.21716">
        <ele>1723.2</ele>
        <time>2020-09-16T11:18:09Z</time>
      </trkpt>
      <trkpt lat="44.49563" lon="6.21745">
        <ele>1726.2</ele>
        <time>2020-09-16T11:18:19Z</time>
      </trkpt>
      <trkpt lat="44.49555" lon="6.21769">
        <ele>1726.7</ele>
        <time>2020-09-16T11:18:27Z</time>
      </trkpt>
      <trkpt lat="44.49555" lon="6.21772">
        <ele>1726.5</ele>
        <time>2020-09-16T11:18:28Z</time>
      </trkpt>
      <trkpt lat="44.49552" lon="6.21798">
        <ele>1725.3</ele>
        <time>2020-09-16T11:18:36Z</time>
      </trkpt>
      <trkpt lat="44.49558" lon="6.21839">
        <ele>1724.3</ele>
        <time>2020-09-16T11:18:49Z</time>
      </trkpt>
      <trkpt lat="44.49561" lon="6.21855">
        <ele>1723.6</ele>
        <time>2020-09-16T11:18:55Z</time>
      </trkpt>
      <trkpt lat="44.49572" lon="6.21912">
        <ele>1722.9</ele>
        <time>2020-09-16T11:19:15Z</time>
      </trkpt>
      <trkpt lat="44.49579" lon="6.21969">
        <ele>1722.6</ele>
        <time>2020-09-16T11:19:29Z</time>
      </trkpt>
      <trkpt lat="44.4958" lon="6.21975">
        <ele>1722.7</ele>
        <time>2020-09-16T11:19:30Z</time>
      </trkpt>
      <trkpt lat="44.49581" lon="6.2198">
        <ele>1722.9</ele>
        <time>2020-09-16T11:19:31Z</time>
      </trkpt>
      <trkpt lat="44.49597" lon="6.22036">
        <ele>1717.4</ele>
        <time>2020-09-16T11:19:43Z</time>
      </trkpt>
      <trkpt lat="44.49604" lon="6.22104">
        <ele>1708.7</ele>
        <time>2020-09-16T11:19:57Z</time>
      </trkpt>
      <trkpt lat="44.49611" lon="6.22151">
        <ele>1703</ele>
        <time>2020-09-16T11:20:08Z</time>
      </trkpt>
      <trkpt lat="44.49612" lon="6.22153">
        <ele>1702.8</ele>
        <time>2020-09-16T11:20:13Z</time>
      </trkpt>
      <trkpt lat="44.49603" lon="6.22131">
        <ele>1705</ele>
        <time>2020-09-16T11:28:08Z</time>
      </trkpt>
      <trkpt lat="44.49603" lon="6.22129">
        <ele>1705.3</ele>
        <time>2020-09-16T11:28:09Z</time>
      </trkpt>
      <trkpt lat="44.49603" lon="6.22128">
        <ele>1705.4</ele>
        <time>2020-09-16T11:28:10Z</time>
      </trkpt>
      <trkpt lat="44.49603" lon="6.22126">
        <ele>1705.7</ele>
        <time>2020-09-16T11:28:11Z</time>
      </trkpt>
      <trkpt lat="44.49605" lon="6.22094">
        <ele>1710.1</ele>
        <time>2020-09-16T11:28:34Z</time>
      </trkpt>
      <trkpt lat="44.49604" lon="6.2206">
        <ele>1714.3</ele>
        <time>2020-09-16T11:28:58Z</time>
      </trkpt>
      <trkpt lat="44.49603" lon="6.22058">
        <ele>1714.5</ele>
        <time>2020-09-16T11:29:00Z</time>
      </trkpt>
      <trkpt lat="44.49595" lon="6.22025">
        <ele>1718.9</ele>
        <time>2020-09-16T11:29:25Z</time>
      </trkpt>
      <trkpt lat="44.49585" lon="6.21994">
        <ele>1723.2</ele>
        <time>2020-09-16T11:29:51Z</time>
      </trkpt>
      <trkpt lat="44.49579" lon="6.21958">
        <ele>1723.1</ele>
        <time>2020-09-16T11:30:20Z</time>
      </trkpt>
      <trkpt lat="44.49574" lon="6.21926">
        <ele>1722.9</ele>
        <time>2020-09-16T11:30:44Z</time>
      </trkpt>
      <trkpt lat="44.49569" lon="6.21897">
        <ele>1722.8</ele>
        <time>2020-09-16T11:31:10Z</time>
      </trkpt>
      <trkpt lat="44.49566" lon="6.21884">
        <ele>1722.7</ele>
        <time>2020-09-16T11:31:25Z</time>
      </trkpt>
      <trkpt lat="44.49565" lon="6.21871">
        <ele>1723.4</ele>
        <time>2020-09-16T11:31:49Z</time>
      </trkpt>
      <trkpt lat="44.49565" lon="6.21868">
        <ele>1723.6</ele>
        <time>2020-09-16T11:31:50Z</time>
      </trkpt>
      <trkpt lat="44.49554" lon="6.21805">
        <ele>1725.2</ele>
        <time>2020-09-16T11:32:04Z</time>
      </trkpt>
      <trkpt lat="44.49553" lon="6.21794">
        <ele>1725.6</ele>
        <time>2020-09-16T11:32:06Z</time>
      </trkpt>
      <trkpt lat="44.49552" lon="6.21788">
        <ele>1725.8</ele>
        <time>2020-09-16T11:32:07Z</time>
      </trkpt>
      <trkpt lat="44.49552" lon="6.21783">
        <ele>1726</ele>
        <time>2020-09-16T11:32:08Z</time>
      </trkpt>
      <trkpt lat="44.49553" lon="6.21778">
        <ele>1726.3</ele>
        <time>2020-09-16T11:32:09Z</time>
      </trkpt>
      <trkpt lat="44.49553" lon="6.21773">
        <ele>1726.5</ele>
        <time>2020-09-16T11:32:10Z</time>
      </trkpt>
      <trkpt lat="44.49554" lon="6.21767">
        <ele>1726.8</ele>
        <time>2020-09-16T11:32:11Z</time>
      </trkpt>
      <trkpt lat="44.49556" lon="6.21761">
        <ele>1726.9</ele>
        <time>2020-09-16T11:32:12Z</time>
      </trkpt>
      <trkpt lat="44.49558" lon="6.21756">
        <ele>1727</ele>
        <time>2020-09-16T11:32:13Z</time>
      </trkpt>
      <trkpt lat="44.49561" lon="6.2175">
        <ele>1726.9</ele>
        <time>2020-09-16T11:32:14Z</time>
      </trkpt>
      <trkpt lat="44.49581" lon="6.21692">
        <ele>1721.5</ele>
        <time>2020-09-16T11:32:23Z</time>
      </trkpt>
      <trkpt lat="44.49583" lon="6.21687">
        <ele>1721.2</ele>
        <time>2020-09-16T11:32:24Z</time>
      </trkpt>
      <trkpt lat="44.49585" lon="6.21681">
        <ele>1720.7</ele>
        <time>2020-09-16T11:32:25Z</time>
      </trkpt>
      <trkpt lat="44.49593" lon="6.21665">
        <ele>1718.7</ele>
        <time>2020-09-16T11:32:28Z</time>
      </trkpt>
      <trkpt lat="44.49596" lon="6.21661">
        <ele>1717.6</ele>
        <time>2020-09-16T11:32:29Z</time>
      </trkpt>
      <trkpt lat="44.496" lon="6.21657">
        <ele>1716.4</ele>
        <time>2020-09-16T11:32:30Z</time>
      </trkpt>
      <trkpt lat="44.4962" lon="6.21644">
        <ele>1712.7</ele>
        <time>2020-09-16T11:32:35Z</time>
      </trkpt>
      <trkpt lat="44.49641" lon="6.21628">
        <ele>1709.7</ele>
        <time>2020-09-16T11:32:40Z</time>
      </trkpt>
      <trkpt lat="44.49645" lon="6.21624">
        <ele>1709.1</ele>
        <time>2020-09-16T11:32:41Z</time>
      </trkpt>
      <trkpt lat="44.49675" lon="6.216">
        <ele>1706.5</ele>
        <time>2020-09-16T11:32:48Z</time>
      </trkpt>
      <trkpt lat="44.4969" lon="6.21583">
        <ele>1704.2</ele>
        <time>2020-09-16T11:32:52Z</time>
      </trkpt>
      <trkpt lat="44.49693" lon="6.21578">
        <ele>1702.7</ele>
        <time>2020-09-16T11:32:53Z</time>
      </trkpt>
      <trkpt lat="44.49695" lon="6.21572">
        <ele>1701.1</ele>
        <time>2020-09-16T11:32:54Z</time>
      </trkpt>
      <trkpt lat="44.49706" lon="6.21556">
        <ele>1696.7</ele>
        <time>2020-09-16T11:32:59Z</time>
      </trkpt>
      <trkpt lat="44.49725" lon="6.21555">
        <ele>1695.9</ele>
        <time>2020-09-16T11:33:04Z</time>
      </trkpt>
      <trkpt lat="44.49733" lon="6.21555">
        <ele>1695.7</ele>
        <time>2020-09-16T11:33:06Z</time>
      </trkpt>
      <trkpt lat="44.49753" lon="6.21556">
        <ele>1694.9</ele>
        <time>2020-09-16T11:33:11Z</time>
      </trkpt>
      <trkpt lat="44.49783" lon="6.21562">
        <ele>1690.7</ele>
        <time>2020-09-16T11:33:17Z</time>
      </trkpt>
      <trkpt lat="44.4981" lon="6.21572">
        <ele>1687.2</ele>
        <time>2020-09-16T11:33:24Z</time>
      </trkpt>
      <trkpt lat="44.49837" lon="6.21588">
        <ele>1683.5</ele>
        <time>2020-09-16T11:33:31Z</time>
      </trkpt>
      <trkpt lat="44.49848" lon="6.21586">
        <ele>1681.6</ele>
        <time>2020-09-16T11:33:34Z</time>
      </trkpt>
      <trkpt lat="44.49853" lon="6.21583">
        <ele>1680.7</ele>
        <time>2020-09-16T11:33:35Z</time>
      </trkpt>
      <trkpt lat="44.49857" lon="6.21579">
        <ele>1679.7</ele>
        <time>2020-09-16T11:33:36Z</time>
      </trkpt>
      <trkpt lat="44.49861" lon="6.21574">
        <ele>1678.6</ele>
        <time>2020-09-16T11:33:37Z</time>
      </trkpt>
      <trkpt lat="44.49865" lon="6.21569">
        <ele>1677.6</ele>
        <time>2020-09-16T11:33:38Z</time>
      </trkpt>
      <trkpt lat="44.49872" lon="6.21557">
        <ele>1675.7</ele>
        <time>2020-09-16T11:33:40Z</time>
      </trkpt>
      <trkpt lat="44.49892" lon="6.21522">
        <ele>1670.8</ele>
        <time>2020-09-16T11:33:46Z</time>
      </trkpt>
      <trkpt lat="44.49898" lon="6.21513">
        <ele>1669.7</ele>
        <time>2020-09-16T11:33:48Z</time>
      </trkpt>
      <trkpt lat="44.49902" lon="6.21509">
        <ele>1669</ele>
        <time>2020-09-16T11:33:49Z</time>
      </trkpt>
      <trkpt lat="44.49906" lon="6.21506">
        <ele>1668.4</ele>
        <time>2020-09-16T11:33:50Z</time>
      </trkpt>
      <trkpt lat="44.4991" lon="6.21504">
        <ele>1667.9</ele>
        <time>2020-09-16T11:33:51Z</time>
      </trkpt>
      <trkpt lat="44.49914" lon="6.21502">
        <ele>1667.4</ele>
        <time>2020-09-16T11:33:52Z</time>
      </trkpt>
      <trkpt lat="44.49918" lon="6.21501">
        <ele>1666.8</ele>
        <time>2020-09-16T11:33:53Z</time>
      </trkpt>
      <trkpt lat="44.49923" lon="6.21501">
        <ele>1666.1</ele>
        <time>2020-09-16T11:33:54Z</time>
      </trkpt>
      <trkpt lat="44.49928" lon="6.21501">
        <ele>1665.3</ele>
        <time>2020-09-16T11:33:55Z</time>
      </trkpt>
      <trkpt lat="44.49933" lon="6.21502">
        <ele>1664.5</ele>
        <time>2020-09-16T11:33:56Z</time>
      </trkpt>
      <trkpt lat="44.49938" lon="6.21504">
        <ele>1663.9</ele>
        <time>2020-09-16T11:33:57Z</time>
      </trkpt>
      <trkpt lat="44.49943" lon="6.21506">
        <ele>1663.2</ele>
        <time>2020-09-16T11:33:58Z</time>
      </trkpt>
      <trkpt lat="44.49947" lon="6.21509">
        <ele>1662.7</ele>
        <time>2020-09-16T11:33:59Z</time>
      </trkpt>
      <trkpt lat="44.49952" lon="6.21513">
        <ele>1662.2</ele>
        <time>2020-09-16T11:34:00Z</time>
      </trkpt>
      <trkpt lat="44.49986" lon="6.21532">
        <ele>1658.3</ele>
        <time>2020-09-16T11:34:06Z</time>
      </trkpt>
      <trkpt lat="44.50018" lon="6.21547">
        <ele>1655.1</ele>
        <time>2020-09-16T11:34:12Z</time>
      </trkpt>
      <trkpt lat="44.50033" lon="6.21555">
        <ele>1653.6</ele>
        <time>2020-09-16T11:34:15Z</time>
      </trkpt>
      <trkpt lat="44.50053" lon="6.21565">
        <ele>1651.5</ele>
        <time>2020-09-16T11:34:20Z</time>
      </trkpt>
      <trkpt lat="44.50092" lon="6.21562">
        <ele>1646.1</ele>
        <time>2020-09-16T11:34:31Z</time>
      </trkpt>
      <trkpt lat="44.50103" lon="6.21539">
        <ele>1643.9</ele>
        <time>2020-09-16T11:34:37Z</time>
      </trkpt>
      <trkpt lat="44.50106" lon="6.21523">
        <ele>1643</ele>
        <time>2020-09-16T11:34:40Z</time>
      </trkpt>
      <trkpt lat="44.50107" lon="6.21478">
        <ele>1641.2</ele>
        <time>2020-09-16T11:34:46Z</time>
      </trkpt>
      <trkpt lat="44.50107" lon="6.21436">
        <ele>1639.3</ele>
        <time>2020-09-16T11:34:53Z</time>
      </trkpt>
      <trkpt lat="44.50108" lon="6.21367">
        <ele>1635.5</ele>
        <time>2020-09-16T11:35:05Z</time>
      </trkpt>
      <trkpt lat="44.50106" lon="6.21362">
        <ele>1635.1</ele>
        <time>2020-09-16T11:35:06Z</time>
      </trkpt>
      <trkpt lat="44.50089" lon="6.21319">
        <ele>1630.4</ele>
        <time>2020-09-16T11:35:14Z</time>
      </trkpt>
      <trkpt lat="44.50084" lon="6.21308">
        <ele>1628.4</ele>
        <time>2020-09-16T11:35:16Z</time>
      </trkpt>
      <trkpt lat="44.50069" lon="6.21285">
        <ele>1626.7</ele>
        <time>2020-09-16T11:35:21Z</time>
      </trkpt>
      <trkpt lat="44.50057" lon="6.21261">
        <ele>1624.5</ele>
        <time>2020-09-16T11:35:26Z</time>
      </trkpt>
      <trkpt lat="44.50053" lon="6.21249">
        <ele>1623.1</ele>
        <time>2020-09-16T11:35:28Z</time>
      </trkpt>
      <trkpt lat="44.50043" lon="6.21216">
        <ele>1619.2</ele>
        <time>2020-09-16T11:35:33Z</time>
      </trkpt>
      <trkpt lat="44.50034" lon="6.21189">
        <ele>1616.2</ele>
        <time>2020-09-16T11:35:37Z</time>
      </trkpt>
      <trkpt lat="44.50032" lon="6.21182">
        <ele>1615.4</ele>
        <time>2020-09-16T11:35:38Z</time>
      </trkpt>
      <trkpt lat="44.50031" lon="6.21176">
        <ele>1614.7</ele>
        <time>2020-09-16T11:35:39Z</time>
      </trkpt>
      <trkpt lat="44.5003" lon="6.21167">
        <ele>1613.4</ele>
        <time>2020-09-16T11:35:40Z</time>
      </trkpt>
      <trkpt lat="44.50028" lon="6.21159">
        <ele>1611.9</ele>
        <time>2020-09-16T11:35:41Z</time>
      </trkpt>
      <trkpt lat="44.50027" lon="6.21123">
        <ele>1603.8</ele>
        <time>2020-09-16T11:35:46Z</time>
      </trkpt>
      <trkpt lat="44.50025" lon="6.21095">
        <ele>1597.7</ele>
        <time>2020-09-16T11:35:51Z</time>
      </trkpt>
      <trkpt lat="44.50024" lon="6.2109">
        <ele>1596.6</ele>
        <time>2020-09-16T11:35:52Z</time>
      </trkpt>
      <trkpt lat="44.50002" lon="6.21041">
        <ele>1594.1</ele>
        <time>2020-09-16T11:36:04Z</time>
      </trkpt>
      <trkpt lat="44.4999" lon="6.21023">
        <ele>1588.7</ele>
        <time>2020-09-16T11:36:10Z</time>
      </trkpt>
      <trkpt lat="44.49974" lon="6.21006">
        <ele>1579.9</ele>
        <time>2020-09-16T11:36:17Z</time>
      </trkpt>
      <trkpt lat="44.49962" lon="6.20976">
        <ele>1572.2</ele>
        <time>2020-09-16T11:36:25Z</time>
      </trkpt>
      <trkpt lat="44.49955" lon="6.2093">
        <ele>1566.3</ele>
        <time>2020-09-16T11:36:35Z</time>
      </trkpt>
      <trkpt lat="44.49953" lon="6.2091">
        <ele>1564.9</ele>
        <time>2020-09-16T11:36:39Z</time>
      </trkpt>
      <trkpt lat="44.49951" lon="6.20878">
        <ele>1565.3</ele>
        <time>2020-09-16T11:36:45Z</time>
      </trkpt>
      <trkpt lat="44.4995" lon="6.20843">
        <ele>1566.4</ele>
        <time>2020-09-16T11:36:52Z</time>
      </trkpt>
      <trkpt lat="44.49946" lon="6.20815">
        <ele>1564.9</ele>
        <time>2020-09-16T11:36:59Z</time>
      </trkpt>
      <trkpt lat="44.4994" lon="6.20781">
        <ele>1561.8</ele>
        <time>2020-09-16T11:37:07Z</time>
      </trkpt>
      <trkpt lat="44.49937" lon="6.20744">
        <ele>1559.5</ele>
        <time>2020-09-16T11:37:14Z</time>
      </trkpt>
      <trkpt lat="44.49937" lon="6.20709">
        <ele>1555</ele>
        <time>2020-09-16T11:37:20Z</time>
      </trkpt>
      <trkpt lat="44.4994" lon="6.20678">
        <ele>1553</ele>
        <time>2020-09-16T11:37:25Z</time>
      </trkpt>
      <trkpt lat="44.49942" lon="6.20655">
        <ele>1550.6</ele>
        <time>2020-09-16T11:37:29Z</time>
      </trkpt>
      <trkpt lat="44.49946" lon="6.20622">
        <ele>1546.7</ele>
        <time>2020-09-16T11:37:34Z</time>
      </trkpt>
      <trkpt lat="44.49951" lon="6.20591">
        <ele>1543.9</ele>
        <time>2020-09-16T11:37:39Z</time>
      </trkpt>
      <trkpt lat="44.49956" lon="6.20567">
        <ele>1540.9</ele>
        <time>2020-09-16T11:37:43Z</time>
      </trkpt>
      <trkpt lat="44.4996" lon="6.20551">
        <ele>1538.7</ele>
        <time>2020-09-16T11:37:46Z</time>
      </trkpt>
      <trkpt lat="44.49969" lon="6.20525">
        <ele>1536.3</ele>
        <time>2020-09-16T11:37:51Z</time>
      </trkpt>
      <trkpt lat="44.49979" lon="6.20491">
        <ele>1531.5</ele>
        <time>2020-09-16T11:37:58Z</time>
      </trkpt>
      <trkpt lat="44.49993" lon="6.20449">
        <ele>1526</ele>
        <time>2020-09-16T11:38:07Z</time>
      </trkpt>
      <trkpt lat="44.50005" lon="6.20407">
        <ele>1520</ele>
        <time>2020-09-16T11:38:15Z</time>
      </trkpt>
      <trkpt lat="44.50013" lon="6.20379">
        <ele>1517</ele>
        <time>2020-09-16T11:38:20Z</time>
      </trkpt>
      <trkpt lat="44.50024" lon="6.20346">
        <ele>1513.8</ele>
        <time>2020-09-16T11:38:26Z</time>
      </trkpt>
      <trkpt lat="44.50033" lon="6.20324">
        <ele>1511.6</ele>
        <time>2020-09-16T11:38:31Z</time>
      </trkpt>
      <trkpt lat="44.50044" lon="6.20298">
        <ele>1507.6</ele>
        <time>2020-09-16T11:38:36Z</time>
      </trkpt>
      <trkpt lat="44.50057" lon="6.20274">
        <ele>1504.2</ele>
        <time>2020-09-16T11:38:41Z</time>
      </trkpt>
      <trkpt lat="44.50069" lon="6.20258">
        <ele>1502.5</ele>
        <time>2020-09-16T11:38:45Z</time>
      </trkpt>
      <trkpt lat="44.50091" lon="6.20234">
        <ele>1497.5</ele>
        <time>2020-09-16T11:38:51Z</time>
      </trkpt>
      <trkpt lat="44.50105" lon="6.20226">
        <ele>1493</ele>
        <time>2020-09-16T11:38:55Z</time>
      </trkpt>
      <trkpt lat="44.50129" lon="6.20225">
        <ele>1489.8</ele>
        <time>2020-09-16T11:39:01Z</time>
      </trkpt>
      <trkpt lat="44.50155" lon="6.20243">
        <ele>1492.3</ele>
        <time>2020-09-16T11:39:10Z</time>
      </trkpt>
      <trkpt lat="44.50171" lon="6.20258">
        <ele>1493</ele>
        <time>2020-09-16T11:39:17Z</time>
      </trkpt>
      <trkpt lat="44.50172" lon="6.20257">
        <ele>1492.2</ele>
        <time>2020-09-16T11:39:18Z</time>
      </trkpt>
      <trkpt lat="44.50174" lon="6.20251">
        <ele>1489.8</ele>
        <time>2020-09-16T11:39:20Z</time>
      </trkpt>
      <trkpt lat="44.50174" lon="6.20248">
        <ele>1489</ele>
        <time>2020-09-16T11:39:21Z</time>
      </trkpt>
      <trkpt lat="44.50173" lon="6.20244">
        <ele>1488.2</ele>
        <time>2020-09-16T11:39:22Z</time>
      </trkpt>
      <trkpt lat="44.50172" lon="6.20241">
        <ele>1487.7</ele>
        <time>2020-09-16T11:39:23Z</time>
      </trkpt>
      <trkpt lat="44.5017" lon="6.20237">
        <ele>1487.4</ele>
        <time>2020-09-16T11:39:24Z</time>
      </trkpt>
      <trkpt lat="44.50152" lon="6.20201">
        <ele>1479.3</ele>
        <time>2020-09-16T11:39:33Z</time>
      </trkpt>
      <trkpt lat="44.50141" lon="6.20193">
        <ele>1478</ele>
        <time>2020-09-16T11:39:36Z</time>
      </trkpt>
      <trkpt lat="44.5012" lon="6.20179">
        <ele>1475.6</ele>
        <time>2020-09-16T11:39:41Z</time>
      </trkpt>
      <trkpt lat="44.50101" lon="6.20171">
        <ele>1474.8</ele>
        <time>2020-09-16T11:39:46Z</time>
      </trkpt>
      <trkpt lat="44.50096" lon="6.20171">
        <ele>1475.3</ele>
        <time>2020-09-16T11:39:47Z</time>
      </trkpt>
      <trkpt lat="44.50071" lon="6.20173">
        <ele>1475.6</ele>
        <time>2020-09-16T11:39:53Z</time>
      </trkpt>
      <trkpt lat="44.50051" lon="6.20179">
        <ele>1474.6</ele>
        <time>2020-09-16T11:39:59Z</time>
      </trkpt>
      <trkpt lat="44.50024" lon="6.20157">
        <ele>1466.6</ele>
        <time>2020-09-16T11:40:07Z</time>
      </trkpt>
      <trkpt lat="44.5001" lon="6.2014">
        <ele>1463.7</ele>
        <time>2020-09-16T11:40:11Z</time>
      </trkpt>
      <trkpt lat="44.50008" lon="6.20136">
        <ele>1463.2</ele>
        <time>2020-09-16T11:40:12Z</time>
      </trkpt>
      <trkpt lat="44.50006" lon="6.20132">
        <ele>1462.7</ele>
        <time>2020-09-16T11:40:13Z</time>
      </trkpt>
      <trkpt lat="44.50005" lon="6.20128">
        <ele>1462.4</ele>
        <time>2020-09-16T11:40:14Z</time>
      </trkpt>
      <trkpt lat="44.50004" lon="6.20124">
        <ele>1462</ele>
        <time>2020-09-16T11:40:15Z</time>
      </trkpt>
      <trkpt lat="44.50004" lon="6.20119">
        <ele>1461.6</ele>
        <time>2020-09-16T11:40:16Z</time>
      </trkpt>
      <trkpt lat="44.50004" lon="6.20113">
        <ele>1461.1</ele>
        <time>2020-09-16T11:40:17Z</time>
      </trkpt>
      <trkpt lat="44.50003" lon="6.20101">
        <ele>1460.2</ele>
        <time>2020-09-16T11:40:19Z</time>
      </trkpt>
      <trkpt lat="44.50001" lon="6.20095">
        <ele>1459.8</ele>
        <time>2020-09-16T11:40:20Z</time>
      </trkpt>
      <trkpt lat="44.49998" lon="6.20083">
        <ele>1458.7</ele>
        <time>2020-09-16T11:40:22Z</time>
      </trkpt>
      <trkpt lat="44.49996" lon="6.20078">
        <ele>1457.6</ele>
        <time>2020-09-16T11:40:23Z</time>
      </trkpt>
      <trkpt lat="44.49995" lon="6.20074">
        <ele>1456.8</ele>
        <time>2020-09-16T11:40:24Z</time>
      </trkpt>
      <trkpt lat="44.49993" lon="6.2007">
        <ele>1456</ele>
        <time>2020-09-16T11:40:25Z</time>
      </trkpt>
      <trkpt lat="44.4999" lon="6.20066">
        <ele>1455</ele>
        <time>2020-09-16T11:40:26Z</time>
      </trkpt>
      <trkpt lat="44.49974" lon="6.20049">
        <ele>1451.2</ele>
        <time>2020-09-16T11:40:31Z</time>
      </trkpt>
      <trkpt lat="44.4997" lon="6.20047">
        <ele>1450.6</ele>
        <time>2020-09-16T11:40:32Z</time>
      </trkpt>
      <trkpt lat="44.49966" lon="6.20044">
        <ele>1450</ele>
        <time>2020-09-16T11:40:33Z</time>
      </trkpt>
      <trkpt lat="44.49961" lon="6.20041">
        <ele>1449.3</ele>
        <time>2020-09-16T11:40:34Z</time>
      </trkpt>
      <trkpt lat="44.49955" lon="6.20039">
        <ele>1448.7</ele>
        <time>2020-09-16T11:40:35Z</time>
      </trkpt>
      <trkpt lat="44.49949" lon="6.20036">
        <ele>1448.1</ele>
        <time>2020-09-16T11:40:36Z</time>
      </trkpt>
      <trkpt lat="44.49944" lon="6.20034">
        <ele>1447.7</ele>
        <time>2020-09-16T11:40:37Z</time>
      </trkpt>
      <trkpt lat="44.49919" lon="6.20026">
        <ele>1446</ele>
        <time>2020-09-16T11:40:42Z</time>
      </trkpt>
      <trkpt lat="44.49899" lon="6.2002">
        <ele>1442.5</ele>
        <time>2020-09-16T11:40:46Z</time>
      </trkpt>
      <trkpt lat="44.49877" lon="6.20015">
        <ele>1438.7</ele>
        <time>2020-09-16T11:40:50Z</time>
      </trkpt>
      <trkpt lat="44.49857" lon="6.20011">
        <ele>1435.4</ele>
        <time>2020-09-16T11:40:54Z</time>
      </trkpt>
      <trkpt lat="44.49827" lon="6.20007">
        <ele>1430.8</ele>
        <time>2020-09-16T11:40:59Z</time>
      </trkpt>
      <trkpt lat="44.49794" lon="6.20003">
        <ele>1425.7</ele>
        <time>2020-09-16T11:41:05Z</time>
      </trkpt>
      <trkpt lat="44.4977" lon="6.19999">
        <ele>1422</ele>
        <time>2020-09-16T11:41:10Z</time>
      </trkpt>
      <trkpt lat="44.4975" lon="6.19994">
        <ele>1418.3</ele>
        <time>2020-09-16T11:41:14Z</time>
      </trkpt>
      <trkpt lat="44.49725" lon="6.19992">
        <ele>1414.1</ele>
        <time>2020-09-16T11:41:20Z</time>
      </trkpt>
      <trkpt lat="44.49706" lon="6.19992">
        <ele>1411.1</ele>
        <time>2020-09-16T11:41:26Z</time>
      </trkpt>
      <trkpt lat="44.49703" lon="6.19992">
        <ele>1410.6</ele>
        <time>2020-09-16T11:41:32Z</time>
      </trkpt>
      <trkpt lat="44.4969" lon="6.19999">
        <ele>1408.9</ele>
        <time>2020-09-16T11:43:26Z</time>
      </trkpt>
      <trkpt lat="44.49671" lon="6.20004">
        <ele>1405.3</ele>
        <time>2020-09-16T11:43:34Z</time>
      </trkpt>
      <trkpt lat="44.49669" lon="6.20002">
        <ele>1405.2</ele>
        <time>2020-09-16T11:43:35Z</time>
      </trkpt>
      <trkpt lat="44.49668" lon="6.19999">
        <ele>1405.2</ele>
        <time>2020-09-16T11:43:36Z</time>
      </trkpt>
      <trkpt lat="44.49668" lon="6.19996">
        <ele>1405.2</ele>
        <time>2020-09-16T11:43:37Z</time>
      </trkpt>
      <trkpt lat="44.49668" lon="6.19992">
        <ele>1405.1</ele>
        <time>2020-09-16T11:43:38Z</time>
      </trkpt>
      <trkpt lat="44.49668" lon="6.19989">
        <ele>1405.1</ele>
        <time>2020-09-16T11:43:39Z</time>
      </trkpt>
      <trkpt lat="44.4967" lon="6.19985">
        <ele>1405.3</ele>
        <time>2020-09-16T11:43:40Z</time>
      </trkpt>
      <trkpt lat="44.49672" lon="6.19982">
        <ele>1405.6</ele>
        <time>2020-09-16T11:43:41Z</time>
      </trkpt>
      <trkpt lat="44.49675" lon="6.19977">
        <ele>1405.9</ele>
        <time>2020-09-16T11:43:42Z</time>
      </trkpt>
      <trkpt lat="44.49703" lon="6.19945">
        <ele>1407.9</ele>
        <time>2020-09-16T11:43:51Z</time>
      </trkpt>
      <trkpt lat="44.49718" lon="6.19918">
        <ele>1407.2</ele>
        <time>2020-09-16T11:43:58Z</time>
      </trkpt>
      <trkpt lat="44.49717" lon="6.19913">
        <ele>1407.4</ele>
        <time>2020-09-16T11:43:59Z</time>
      </trkpt>
      <trkpt lat="44.49714" lon="6.19909">
        <ele>1407.7</ele>
        <time>2020-09-16T11:44:00Z</time>
      </trkpt>
      <trkpt lat="44.4971" lon="6.19906">
        <ele>1407.9</ele>
        <time>2020-09-16T11:44:01Z</time>
      </trkpt>
      <trkpt lat="44.49705" lon="6.19904">
        <ele>1407.9</ele>
        <time>2020-09-16T11:44:02Z</time>
      </trkpt>
      <trkpt lat="44.497" lon="6.19903">
        <ele>1407.8</ele>
        <time>2020-09-16T11:44:03Z</time>
      </trkpt>
      <trkpt lat="44.49666" lon="6.19898">
        <ele>1407.1</ele>
        <time>2020-09-16T11:44:10Z</time>
      </trkpt>
      <trkpt lat="44.4966" lon="6.19899">
        <ele>1407</ele>
        <time>2020-09-16T11:44:11Z</time>
      </trkpt>
      <trkpt lat="44.49654" lon="6.19901">
        <ele>1406.8</ele>
        <time>2020-09-16T11:44:12Z</time>
      </trkpt>
      <trkpt lat="44.49649" lon="6.19904">
        <ele>1406.3</ele>
        <time>2020-09-16T11:44:13Z</time>
      </trkpt>
      <trkpt lat="44.49644" lon="6.19907">
        <ele>1405.9</ele>
        <time>2020-09-16T11:44:14Z</time>
      </trkpt>
      <trkpt lat="44.49619" lon="6.19925">
        <ele>1403.9</ele>
        <time>2020-09-16T11:44:19Z</time>
      </trkpt>
      <trkpt lat="44.49615" lon="6.1993">
        <ele>1403.4</ele>
        <time>2020-09-16T11:44:20Z</time>
      </trkpt>
      <trkpt lat="44.49611" lon="6.19935">
        <ele>1402.8</ele>
        <time>2020-09-16T11:44:21Z</time>
      </trkpt>
      <trkpt lat="44.49607" lon="6.1994">
        <ele>1402.2</ele>
        <time>2020-09-16T11:44:22Z</time>
      </trkpt>
      <trkpt lat="44.49604" lon="6.19946">
        <ele>1401.4</ele>
        <time>2020-09-16T11:44:23Z</time>
      </trkpt>
      <trkpt lat="44.49585" lon="6.19979">
        <ele>1395.5</ele>
        <time>2020-09-16T11:44:28Z</time>
      </trkpt>
      <trkpt lat="44.49562" lon="6.20021">
        <ele>1391.4</ele>
        <time>2020-09-16T11:44:35Z</time>
      </trkpt>
      <trkpt lat="44.49557" lon="6.20032">
        <ele>1390.6</ele>
        <time>2020-09-16T11:44:37Z</time>
      </trkpt>
      <trkpt lat="44.49555" lon="6.20039">
        <ele>1390.1</ele>
        <time>2020-09-16T11:44:38Z</time>
      </trkpt>
      <trkpt lat="44.49553" lon="6.20051">
        <ele>1389.1</ele>
        <time>2020-09-16T11:44:40Z</time>
      </trkpt>
      <trkpt lat="44.49553" lon="6.20057">
        <ele>1388.5</ele>
        <time>2020-09-16T11:44:41Z</time>
      </trkpt>
      <trkpt lat="44.49553" lon="6.20064">
        <ele>1387.9</ele>
        <time>2020-09-16T11:44:42Z</time>
      </trkpt>
      <trkpt lat="44.49553" lon="6.2007">
        <ele>1387.4</ele>
        <time>2020-09-16T11:44:43Z</time>
      </trkpt>
      <trkpt lat="44.49553" lon="6.20115">
        <ele>1381.2</ele>
        <time>2020-09-16T11:44:51Z</time>
      </trkpt>
      <trkpt lat="44.49553" lon="6.20119">
        <ele>1380.6</ele>
        <time>2020-09-16T11:44:52Z</time>
      </trkpt>
      <trkpt lat="44.49551" lon="6.20133">
        <ele>1378.2</ele>
        <time>2020-09-16T11:44:55Z</time>
      </trkpt>
      <trkpt lat="44.49548" lon="6.20139">
        <ele>1377.2</ele>
        <time>2020-09-16T11:44:56Z</time>
      </trkpt>
      <trkpt lat="44.49527" lon="6.20171">
        <ele>1371.5</ele>
        <time>2020-09-16T11:45:02Z</time>
      </trkpt>
      <trkpt lat="44.49522" lon="6.20175">
        <ele>1370.8</ele>
        <time>2020-09-16T11:45:03Z</time>
      </trkpt>
      <trkpt lat="44.49494" lon="6.20193">
        <ele>1366.9</ele>
        <time>2020-09-16T11:45:09Z</time>
      </trkpt>
      <trkpt lat="44.49473" lon="6.20196">
        <ele>1363.4</ele>
        <time>2020-09-16T11:45:15Z</time>
      </trkpt>
      <trkpt lat="44.4947" lon="6.20196">
        <ele>1362.9</ele>
        <time>2020-09-16T11:45:16Z</time>
      </trkpt>
      <trkpt lat="44.49463" lon="6.202">
        <ele>1361.5</ele>
        <time>2020-09-16T11:45:19Z</time>
      </trkpt>
      <trkpt lat="44.49462" lon="6.20204">
        <ele>1361</ele>
        <time>2020-09-16T11:45:20Z</time>
      </trkpt>
      <trkpt lat="44.49462" lon="6.20208">
        <ele>1360.6</ele>
        <time>2020-09-16T11:45:21Z</time>
      </trkpt>
      <trkpt lat="44.49463" lon="6.20213">
        <ele>1360.2</ele>
        <time>2020-09-16T11:45:22Z</time>
      </trkpt>
      <trkpt lat="44.49464" lon="6.20219">
        <ele>1359.8</ele>
        <time>2020-09-16T11:45:23Z</time>
      </trkpt>
      <trkpt lat="44.49464" lon="6.20269">
        <ele>1355.8</ele>
        <time>2020-09-16T11:45:32Z</time>
      </trkpt>
      <trkpt lat="44.4946" lon="6.20307">
        <ele>1353.8</ele>
        <time>2020-09-16T11:45:38Z</time>
      </trkpt>
      <trkpt lat="44.4946" lon="6.20314">
        <ele>1353.5</ele>
        <time>2020-09-16T11:45:39Z</time>
      </trkpt>
      <trkpt lat="44.49461" lon="6.20322">
        <ele>1353.2</ele>
        <time>2020-09-16T11:45:40Z</time>
      </trkpt>
      <trkpt lat="44.49465" lon="6.20355">
        <ele>1351.8</ele>
        <time>2020-09-16T11:45:45Z</time>
      </trkpt>
      <trkpt lat="44.49467" lon="6.20391">
        <ele>1350.1</ele>
        <time>2020-09-16T11:45:50Z</time>
      </trkpt>
      <trkpt lat="44.49465" lon="6.20426">
        <ele>1347.5</ele>
        <time>2020-09-16T11:45:57Z</time>
      </trkpt>
      <trkpt lat="44.49454" lon="6.2044">
        <ele>1344.9</ele>
        <time>2020-09-16T11:46:01Z</time>
      </trkpt>
      <trkpt lat="44.4945" lon="6.20441">
        <ele>1344.3</ele>
        <time>2020-09-16T11:46:02Z</time>
      </trkpt>
      <trkpt lat="44.49445" lon="6.20441">
        <ele>1343.7</ele>
        <time>2020-09-16T11:46:03Z</time>
      </trkpt>
      <trkpt lat="44.4944" lon="6.20441">
        <ele>1343.1</ele>
        <time>2020-09-16T11:46:04Z</time>
      </trkpt>
      <trkpt lat="44.49435" lon="6.2044">
        <ele>1342.6</ele>
        <time>2020-09-16T11:46:05Z</time>
      </trkpt>
      <trkpt lat="44.4941" lon="6.20438">
        <ele>1339.1</ele>
        <time>2020-09-16T11:46:11Z</time>
      </trkpt>
      <trkpt lat="44.49395" lon="6.20444">
        <ele>1335.5</ele>
        <time>2020-09-16T11:46:15Z</time>
      </trkpt>
      <trkpt lat="44.49392" lon="6.20447">
        <ele>1334.7</ele>
        <time>2020-09-16T11:46:16Z</time>
      </trkpt>
      <trkpt lat="44.49389" lon="6.20452">
        <ele>1333.8</ele>
        <time>2020-09-16T11:46:17Z</time>
      </trkpt>
      <trkpt lat="44.49387" lon="6.20458">
        <ele>1333</ele>
        <time>2020-09-16T11:46:18Z</time>
      </trkpt>
      <trkpt lat="44.49385" lon="6.20464">
        <ele>1332.2</ele>
        <time>2020-09-16T11:46:19Z</time>
      </trkpt>
      <trkpt lat="44.49384" lon="6.20469">
        <ele>1331.7</ele>
        <time>2020-09-16T11:46:20Z</time>
      </trkpt>
      <trkpt lat="44.49383" lon="6.20474">
        <ele>1331.2</ele>
        <time>2020-09-16T11:46:21Z</time>
      </trkpt>
      <trkpt lat="44.49375" lon="6.20495">
        <ele>1328.3</ele>
        <time>2020-09-16T11:46:26Z</time>
      </trkpt>
      <trkpt lat="44.49363" lon="6.2051">
        <ele>1325.5</ele>
        <time>2020-09-16T11:46:30Z</time>
      </trkpt>
      <trkpt lat="44.49357" lon="6.20533">
        <ele>1324</ele>
        <time>2020-09-16T11:46:35Z</time>
      </trkpt>
      <trkpt lat="44.49355" lon="6.20555">
        <ele>1323.3</ele>
        <time>2020-09-16T11:46:41Z</time>
      </trkpt>
      <trkpt lat="44.49355" lon="6.20557">
        <ele>1323.3</ele>
        <time>2020-09-16T11:46:46Z</time>
      </trkpt>
      <trkpt lat="44.49348" lon="6.20554">
        <ele>1322.2</ele>
        <time>2020-09-16T11:48:13Z</time>
      </trkpt>
      <trkpt lat="44.49346" lon="6.20553">
        <ele>1321.9</ele>
        <time>2020-09-16T11:48:14Z</time>
      </trkpt>
      <trkpt lat="44.49345" lon="6.2055">
        <ele>1321.8</ele>
        <time>2020-09-16T11:48:15Z</time>
      </trkpt>
      <trkpt lat="44.49344" lon="6.20547">
        <ele>1321.7</ele>
        <time>2020-09-16T11:48:16Z</time>
      </trkpt>
      <trkpt lat="44.49343" lon="6.20542">
        <ele>1321.6</ele>
        <time>2020-09-16T11:48:17Z</time>
      </trkpt>
      <trkpt lat="44.49338" lon="6.20507">
        <ele>1320.9</ele>
        <time>2020-09-16T11:48:22Z</time>
      </trkpt>
      <trkpt lat="44.49329" lon="6.20477">
        <ele>1319.5</ele>
        <time>2020-09-16T11:48:27Z</time>
      </trkpt>
      <trkpt lat="44.49326" lon="6.20472">
        <ele>1318.7</ele>
        <time>2020-09-16T11:48:28Z</time>
      </trkpt>
      <trkpt lat="44.49317" lon="6.20452">
        <ele>1316.4</ele>
        <time>2020-09-16T11:48:32Z</time>
      </trkpt>
      <trkpt lat="44.49316" lon="6.20446">
        <ele>1316.4</ele>
        <time>2020-09-16T11:48:33Z</time>
      </trkpt>
      <trkpt lat="44.49315" lon="6.20441">
        <ele>1316.2</ele>
        <time>2020-09-16T11:48:34Z</time>
      </trkpt>
      <trkpt lat="44.49297" lon="6.20383">
        <ele>1314.3</ele>
        <time>2020-09-16T11:48:46Z</time>
      </trkpt>
      <trkpt lat="44.49273" lon="6.20359">
        <ele>1309.7</ele>
        <time>2020-09-16T11:48:52Z</time>
      </trkpt>
      <trkpt lat="44.49236" lon="6.20332">
        <ele>1301.7</ele>
        <time>2020-09-16T11:48:58Z</time>
      </trkpt>
      <trkpt lat="44.49215" lon="6.20317">
        <ele>1295</ele>
        <time>2020-09-16T11:49:04Z</time>
      </trkpt>
      <trkpt lat="44.49204" lon="6.20306">
        <ele>1292.1</ele>
        <time>2020-09-16T11:49:08Z</time>
      </trkpt>
      <trkpt lat="44.49201" lon="6.20302">
        <ele>1291.5</ele>
        <time>2020-09-16T11:49:09Z</time>
      </trkpt>
      <trkpt lat="44.49198" lon="6.20296">
        <ele>1291.1</ele>
        <time>2020-09-16T11:49:10Z</time>
      </trkpt>
      <trkpt lat="44.49151" lon="6.20233">
        <ele>1282.6</ele>
        <time>2020-09-16T11:49:21Z</time>
      </trkpt>
      <trkpt lat="44.49139" lon="6.20209">
        <ele>1280.6</ele>
        <time>2020-09-16T11:49:25Z</time>
      </trkpt>
      <trkpt lat="44.49131" lon="6.20189">
        <ele>1280</ele>
        <time>2020-09-16T11:49:30Z</time>
      </trkpt>
      <trkpt lat="44.49125" lon="6.20174">
        <ele>1279.6</ele>
        <time>2020-09-16T11:49:33Z</time>
      </trkpt>
      <trkpt lat="44.49108" lon="6.2013">
        <ele>1280.1</ele>
        <time>2020-09-16T11:49:42Z</time>
      </trkpt>
      <trkpt lat="44.49097" lon="6.20102">
        <ele>1281</ele>
        <time>2020-09-16T11:49:49Z</time>
      </trkpt>
      <trkpt lat="44.49094" lon="6.20095">
        <ele>1281.2</ele>
        <time>2020-09-16T11:49:53Z</time>
      </trkpt>
      <trkpt lat="44.49094" lon="6.20095">
        <ele>1281.2</ele>
        <time>2020-09-16T11:49:56Z</time>
      </trkpt>
      <trkpt lat="44.49088" lon="6.20087">
        <ele>1280.7</ele>
        <time>2020-09-16T11:50:15Z</time>
      </trkpt>
      <trkpt lat="44.49063" lon="6.20039">
        <ele>1281.8</ele>
        <time>2020-09-16T11:50:27Z</time>
      </trkpt>
      <trkpt lat="44.49048" lon="6.20017">
        <ele>1281</ele>
        <time>2020-09-16T11:50:39Z</time>
      </trkpt>
      <trkpt lat="44.49048" lon="6.20017">
        <ele>1281</ele>
        <time>2020-09-16T11:50:41Z</time>
      </trkpt>
      <trkpt lat="44.49043" lon="6.20009">
        <ele>1280.8</ele>
        <time>2020-09-16T11:50:48Z</time>
      </trkpt>
      <trkpt lat="44.4903" lon="6.19985">
        <ele>1280.8</ele>
        <time>2020-09-16T11:51:00Z</time>
      </trkpt>
      <trkpt lat="44.49013" lon="6.19956">
        <ele>1279.4</ele>
        <time>2020-09-16T11:51:09Z</time>
      </trkpt>
      <trkpt lat="44.4901" lon="6.19951">
        <ele>1279.1</ele>
        <time>2020-09-16T11:51:10Z</time>
      </trkpt>
      <trkpt lat="44.48995" lon="6.19919">
        <ele>1277.8</ele>
        <time>2020-09-16T11:51:15Z</time>
      </trkpt>
      <trkpt lat="44.48991" lon="6.19914">
        <ele>1277.2</ele>
        <time>2020-09-16T11:51:16Z</time>
      </trkpt>
      <trkpt lat="44.48965" lon="6.19874">
        <ele>1275.4</ele>
        <time>2020-09-16T11:51:23Z</time>
      </trkpt>
      <trkpt lat="44.4896" lon="6.19869">
        <ele>1274.5</ele>
        <time>2020-09-16T11:51:24Z</time>
      </trkpt>
      <trkpt lat="44.48919" lon="6.1983">
        <ele>1267.7</ele>
        <time>2020-09-16T11:51:32Z</time>
      </trkpt>
      <trkpt lat="44.48915" lon="6.19826">
        <ele>1267.5</ele>
        <time>2020-09-16T11:51:33Z</time>
      </trkpt>
      <trkpt lat="44.48888" lon="6.19804">
        <ele>1265.5</ele>
        <time>2020-09-16T11:51:40Z</time>
      </trkpt>
      <trkpt lat="44.48861" lon="6.19788">
        <ele>1261.5</ele>
        <time>2020-09-16T11:51:46Z</time>
      </trkpt>
      <trkpt lat="44.48844" lon="6.19774">
        <ele>1259.7</ele>
        <time>2020-09-16T11:51:51Z</time>
      </trkpt>
      <trkpt lat="44.48838" lon="6.1977">
        <ele>1258.9</ele>
        <time>2020-09-16T11:51:53Z</time>
      </trkpt>
      <trkpt lat="44.48836" lon="6.1977">
        <ele>1258.2</ele>
        <time>2020-09-16T11:51:54Z</time>
      </trkpt>
      <trkpt lat="44.48834" lon="6.19771">
        <ele>1257.4</ele>
        <time>2020-09-16T11:51:55Z</time>
      </trkpt>
      <trkpt lat="44.48832" lon="6.19774">
        <ele>1256.1</ele>
        <time>2020-09-16T11:51:56Z</time>
      </trkpt>
      <trkpt lat="44.48831" lon="6.19778">
        <ele>1254.9</ele>
        <time>2020-09-16T11:51:57Z</time>
      </trkpt>
      <trkpt lat="44.48832" lon="6.19782">
        <ele>1254.3</ele>
        <time>2020-09-16T11:51:58Z</time>
      </trkpt>
      <trkpt lat="44.48834" lon="6.19786">
        <ele>1254</ele>
        <time>2020-09-16T11:51:59Z</time>
      </trkpt>
      <trkpt lat="44.48837" lon="6.1979">
        <ele>1254</ele>
        <time>2020-09-16T11:52:00Z</time>
      </trkpt>
      <trkpt lat="44.4884" lon="6.19795">
        <ele>1253.7</ele>
        <time>2020-09-16T11:52:01Z</time>
      </trkpt>
      <trkpt lat="44.48862" lon="6.19824">
        <ele>1253.2</ele>
        <time>2020-09-16T11:52:07Z</time>
      </trkpt>
      <trkpt lat="44.48864" lon="6.1983">
        <ele>1252.3</ele>
        <time>2020-09-16T11:52:08Z</time>
      </trkpt>
      <trkpt lat="44.48867" lon="6.19837">
        <ele>1251.6</ele>
        <time>2020-09-16T11:52:09Z</time>
      </trkpt>
      <trkpt lat="44.48869" lon="6.19844">
        <ele>1250.7</ele>
        <time>2020-09-16T11:52:10Z</time>
      </trkpt>
      <trkpt lat="44.4887" lon="6.19852">
        <ele>1249.4</ele>
        <time>2020-09-16T11:52:11Z</time>
      </trkpt>
      <trkpt lat="44.48879" lon="6.19894">
        <ele>1243.6</ele>
        <time>2020-09-16T11:52:17Z</time>
      </trkpt>
      <trkpt lat="44.48884" lon="6.19926">
        <ele>1238.2</ele>
        <time>2020-09-16T11:52:22Z</time>
      </trkpt>
      <trkpt lat="44.4888" lon="6.19946">
        <ele>1232.5</ele>
        <time>2020-09-16T11:52:27Z</time>
      </trkpt>
      <trkpt lat="44.48877" lon="6.19948">
        <ele>1231.2</ele>
        <time>2020-09-16T11:52:28Z</time>
      </trkpt>
      <trkpt lat="44.48873" lon="6.19947">
        <ele>1230.3</ele>
        <time>2020-09-16T11:52:29Z</time>
      </trkpt>
      <trkpt lat="44.48869" lon="6.19945">
        <ele>1229.7</ele>
        <time>2020-09-16T11:52:30Z</time>
      </trkpt>
      <trkpt lat="44.48865" lon="6.19942">
        <ele>1229.3</ele>
        <time>2020-09-16T11:52:31Z</time>
      </trkpt>
      <trkpt lat="44.4886" lon="6.19938">
        <ele>1228.9</ele>
        <time>2020-09-16T11:52:32Z</time>
      </trkpt>
      <trkpt lat="44.48832" lon="6.19897">
        <ele>1230.3</ele>
        <time>2020-09-16T11:52:39Z</time>
      </trkpt>
      <trkpt lat="44.48824" lon="6.19886">
        <ele>1229.7</ele>
        <time>2020-09-16T11:52:41Z</time>
      </trkpt>
      <trkpt lat="44.4882" lon="6.19882">
        <ele>1229.1</ele>
        <time>2020-09-16T11:52:42Z</time>
      </trkpt>
      <trkpt lat="44.48814" lon="6.19878">
        <ele>1227.9</ele>
        <time>2020-09-16T11:52:43Z</time>
      </trkpt>
      <trkpt lat="44.48809" lon="6.19875">
        <ele>1226.8</ele>
        <time>2020-09-16T11:52:44Z</time>
      </trkpt>
      <trkpt lat="44.48804" lon="6.19873">
        <ele>1225.6</ele>
        <time>2020-09-16T11:52:45Z</time>
      </trkpt>
      <trkpt lat="44.48782" lon="6.19858">
        <ele>1221.8</ele>
        <time>2020-09-16T11:52:50Z</time>
      </trkpt>
      <trkpt lat="44.48768" lon="6.19843">
        <ele>1221</ele>
        <time>2020-09-16T11:52:55Z</time>
      </trkpt>
      <trkpt lat="44.48742" lon="6.19798">
        <ele>1222.9</ele>
        <time>2020-09-16T11:53:03Z</time>
      </trkpt>
      <trkpt lat="44.48709" lon="6.19753">
        <ele>1221.6</ele>
        <time>2020-09-16T11:53:10Z</time>
      </trkpt>
      <trkpt lat="44.48696" lon="6.19739">
        <ele>1219.9</ele>
        <time>2020-09-16T11:53:13Z</time>
      </trkpt>
      <trkpt lat="44.48691" lon="6.19735">
        <ele>1218.9</ele>
        <time>2020-09-16T11:53:14Z</time>
      </trkpt>
      <trkpt lat="44.48687" lon="6.19733">
        <ele>1217.9</ele>
        <time>2020-09-16T11:53:15Z</time>
      </trkpt>
      <trkpt lat="44.48667" lon="6.19725">
        <ele>1212.6</ele>
        <time>2020-09-16T11:53:19Z</time>
      </trkpt>
      <trkpt lat="44.48662" lon="6.19722">
        <ele>1211.2</ele>
        <time>2020-09-16T11:53:20Z</time>
      </trkpt>
      <trkpt lat="44.48653" lon="6.19715">
        <ele>1209</ele>
        <time>2020-09-16T11:53:22Z</time>
      </trkpt>
      <trkpt lat="44.48649" lon="6.19711">
        <ele>1208.1</ele>
        <time>2020-09-16T11:53:23Z</time>
      </trkpt>
      <trkpt lat="44.48645" lon="6.19706">
        <ele>1207.5</ele>
        <time>2020-09-16T11:53:24Z</time>
      </trkpt>
      <trkpt lat="44.48642" lon="6.197">
        <ele>1207.4</ele>
        <time>2020-09-16T11:53:25Z</time>
      </trkpt>
      <trkpt lat="44.48639" lon="6.19692">
        <ele>1207.7</ele>
        <time>2020-09-16T11:53:26Z</time>
      </trkpt>
      <trkpt lat="44.48636" lon="6.19684">
        <ele>1208</ele>
        <time>2020-09-16T11:53:27Z</time>
      </trkpt>
      <trkpt lat="44.48601" lon="6.19619">
        <ele>1204.3</ele>
        <time>2020-09-16T11:53:35Z</time>
      </trkpt>
      <trkpt lat="44.48582" lon="6.19592">
        <ele>1201.3</ele>
        <time>2020-09-16T11:53:39Z</time>
      </trkpt>
      <trkpt lat="44.48558" lon="6.19547">
        <ele>1196.5</ele>
        <time>2020-09-16T11:53:46Z</time>
      </trkpt>
      <trkpt lat="44.48544" lon="6.19525">
        <ele>1193.3</ele>
        <time>2020-09-16T11:53:51Z</time>
      </trkpt>
      <trkpt lat="44.48542" lon="6.19519">
        <ele>1193.1</ele>
        <time>2020-09-16T11:53:52Z</time>
      </trkpt>
      <trkpt lat="44.48541" lon="6.19513">
        <ele>1193.1</ele>
        <time>2020-09-16T11:53:53Z</time>
      </trkpt>
      <trkpt lat="44.48541" lon="6.19506">
        <ele>1193.5</ele>
        <time>2020-09-16T11:53:54Z</time>
      </trkpt>
      <trkpt lat="44.48541" lon="6.19497">
        <ele>1193.6</ele>
        <time>2020-09-16T11:53:55Z</time>
      </trkpt>
      <trkpt lat="44.48541" lon="6.19488">
        <ele>1193.2</ele>
        <time>2020-09-16T11:53:56Z</time>
      </trkpt>
      <trkpt lat="44.48547" lon="6.19406">
        <ele>1189.7</ele>
        <time>2020-09-16T11:54:05Z</time>
      </trkpt>
      <trkpt lat="44.48556" lon="6.19375">
        <ele>1188</ele>
        <time>2020-09-16T11:54:09Z</time>
      </trkpt>
      <trkpt lat="44.4858" lon="6.19298">
        <ele>1181.9</ele>
        <time>2020-09-16T11:54:19Z</time>
      </trkpt>
      <trkpt lat="44.48585" lon="6.19287">
        <ele>1180.7</ele>
        <time>2020-09-16T11:54:21Z</time>
      </trkpt>
      <trkpt lat="44.48595" lon="6.1927">
        <ele>1178.6</ele>
        <time>2020-09-16T11:54:24Z</time>
      </trkpt>
      <trkpt lat="44.48629" lon="6.19234">
        <ele>1175.6</ele>
        <time>2020-09-16T11:54:32Z</time>
      </trkpt>
      <trkpt lat="44.48633" lon="6.19232">
        <ele>1175.9</ele>
        <time>2020-09-16T11:54:33Z</time>
      </trkpt>
      <trkpt lat="44.48653" lon="6.19223">
        <ele>1177.4</ele>
        <time>2020-09-16T11:54:37Z</time>
      </trkpt>
      <trkpt lat="44.48658" lon="6.19219">
        <ele>1177.5</ele>
        <time>2020-09-16T11:54:38Z</time>
      </trkpt>
      <trkpt lat="44.48662" lon="6.19214">
        <ele>1177.2</ele>
        <time>2020-09-16T11:54:39Z</time>
      </trkpt>
      <trkpt lat="44.48666" lon="6.19208">
        <ele>1176.8</ele>
        <time>2020-09-16T11:54:40Z</time>
      </trkpt>
      <trkpt lat="44.48669" lon="6.192">
        <ele>1176.2</ele>
        <time>2020-09-16T11:54:41Z</time>
      </trkpt>
      <trkpt lat="44.48672" lon="6.19191">
        <ele>1175.4</ele>
        <time>2020-09-16T11:54:42Z</time>
      </trkpt>
      <trkpt lat="44.48674" lon="6.19182">
        <ele>1174.4</ele>
        <time>2020-09-16T11:54:43Z</time>
      </trkpt>
      <trkpt lat="44.48676" lon="6.19173">
        <ele>1173.3</ele>
        <time>2020-09-16T11:54:44Z</time>
      </trkpt>
      <trkpt lat="44.48689" lon="6.19125">
        <ele>1170.1</ele>
        <time>2020-09-16T11:54:50Z</time>
      </trkpt>
      <trkpt lat="44.48692" lon="6.19118">
        <ele>1169.8</ele>
        <time>2020-09-16T11:54:51Z</time>
      </trkpt>
      <trkpt lat="44.48695" lon="6.19112">
        <ele>1169.7</ele>
        <time>2020-09-16T11:54:52Z</time>
      </trkpt>
      <trkpt lat="44.48698" lon="6.19106">
        <ele>1169.6</ele>
        <time>2020-09-16T11:54:53Z</time>
      </trkpt>
      <trkpt lat="44.48702" lon="6.19101">
        <ele>1169.9</ele>
        <time>2020-09-16T11:54:54Z</time>
      </trkpt>
      <trkpt lat="44.48706" lon="6.19097">
        <ele>1170.3</ele>
        <time>2020-09-16T11:54:55Z</time>
      </trkpt>
      <trkpt lat="44.4871" lon="6.19093">
        <ele>1170.6</ele>
        <time>2020-09-16T11:54:56Z</time>
      </trkpt>
      <trkpt lat="44.48757" lon="6.19021">
        <ele>1168.6</ele>
        <time>2020-09-16T11:55:09Z</time>
      </trkpt>
      <trkpt lat="44.4878" lon="6.18969">
        <ele>1163.3</ele>
        <time>2020-09-16T11:55:18Z</time>
      </trkpt>
      <trkpt lat="44.48843" lon="6.18902">
        <ele>1163</ele>
        <time>2020-09-16T11:55:32Z</time>
      </trkpt>
      <trkpt lat="44.48846" lon="6.18896">
        <ele>1162.8</ele>
        <time>2020-09-16T11:55:33Z</time>
      </trkpt>
      <trkpt lat="44.4885" lon="6.1889">
        <ele>1162.8</ele>
        <time>2020-09-16T11:55:34Z</time>
      </trkpt>
      <trkpt lat="44.48853" lon="6.18883">
        <ele>1162.5</ele>
        <time>2020-09-16T11:55:35Z</time>
      </trkpt>
      <trkpt lat="44.48855" lon="6.18876">
        <ele>1161.9</ele>
        <time>2020-09-16T11:55:36Z</time>
      </trkpt>
      <trkpt lat="44.48857" lon="6.18869">
        <ele>1161.2</ele>
        <time>2020-09-16T11:55:37Z</time>
      </trkpt>
      <trkpt lat="44.48858" lon="6.18861">
        <ele>1160.2</ele>
        <time>2020-09-16T11:55:38Z</time>
      </trkpt>
      <trkpt lat="44.48861" lon="6.18832">
        <ele>1156.5</ele>
        <time>2020-09-16T11:55:42Z</time>
      </trkpt>
      <trkpt lat="44.48863" lon="6.18825">
        <ele>1156.1</ele>
        <time>2020-09-16T11:55:43Z</time>
      </trkpt>
      <trkpt lat="44.48865" lon="6.18819">
        <ele>1155.9</ele>
        <time>2020-09-16T11:55:44Z</time>
      </trkpt>
      <trkpt lat="44.48868" lon="6.18813">
        <ele>1155.9</ele>
        <time>2020-09-16T11:55:45Z</time>
      </trkpt>
      <trkpt lat="44.48871" lon="6.18807">
        <ele>1155.8</ele>
        <time>2020-09-16T11:55:46Z</time>
      </trkpt>
      <trkpt lat="44.4888" lon="6.18788">
        <ele>1155.3</ele>
        <time>2020-09-16T11:55:49Z</time>
      </trkpt>
      <trkpt lat="44.48883" lon="6.18781">
        <ele>1155</ele>
        <time>2020-09-16T11:55:50Z</time>
      </trkpt>
      <trkpt lat="44.48892" lon="6.18728">
        <ele>1151.9</ele>
        <time>2020-09-16T11:56:01Z</time>
      </trkpt>
      <trkpt lat="44.48893" lon="6.18723">
        <ele>1151.9</ele>
        <time>2020-09-16T11:56:07Z</time>
      </trkpt>
      <trkpt lat="44.48885" lon="6.18718">
        <ele>1150.5</ele>
        <time>2020-09-16T11:56:47Z</time>
      </trkpt>
      <trkpt lat="44.48869" lon="6.18709">
        <ele>1148.2</ele>
        <time>2020-09-16T11:56:51Z</time>
      </trkpt>
      <trkpt lat="44.48864" lon="6.18705">
        <ele>1147.6</ele>
        <time>2020-09-16T11:56:52Z</time>
      </trkpt>
      <trkpt lat="44.4886" lon="6.18702">
        <ele>1147.1</ele>
        <time>2020-09-16T11:56:53Z</time>
      </trkpt>
      <trkpt lat="44.48852" lon="6.18694">
        <ele>1146.2</ele>
        <time>2020-09-16T11:56:55Z</time>
      </trkpt>
      <trkpt lat="44.48849" lon="6.1869">
        <ele>1145.9</ele>
        <time>2020-09-16T11:56:56Z</time>
      </trkpt>
      <trkpt lat="44.48845" lon="6.18685">
        <ele>1145.6</ele>
        <time>2020-09-16T11:56:57Z</time>
      </trkpt>
      <trkpt lat="44.48842" lon="6.18679">
        <ele>1145.4</ele>
        <time>2020-09-16T11:56:58Z</time>
      </trkpt>
      <trkpt lat="44.48839" lon="6.18674">
        <ele>1145.3</ele>
        <time>2020-09-16T11:56:59Z</time>
      </trkpt>
      <trkpt lat="44.48836" lon="6.18667">
        <ele>1145.2</ele>
        <time>2020-09-16T11:57:00Z</time>
      </trkpt>
      <trkpt lat="44.48833" lon="6.1866">
        <ele>1144.9</ele>
        <time>2020-09-16T11:57:01Z</time>
      </trkpt>
      <trkpt lat="44.48831" lon="6.18653">
        <ele>1144.4</ele>
        <time>2020-09-16T11:57:02Z</time>
      </trkpt>
      <trkpt lat="44.48829" lon="6.18647">
        <ele>1144</ele>
        <time>2020-09-16T11:57:03Z</time>
      </trkpt>
      <trkpt lat="44.48823" lon="6.18627">
        <ele>1143</ele>
        <time>2020-09-16T11:57:06Z</time>
      </trkpt>
      <trkpt lat="44.48807" lon="6.18589">
        <ele>1141.1</ele>
        <time>2020-09-16T11:57:12Z</time>
      </trkpt>
      <trkpt lat="44.48804" lon="6.18584">
        <ele>1140.8</ele>
        <time>2020-09-16T11:57:13Z</time>
      </trkpt>
      <trkpt lat="44.48795" lon="6.18561">
        <ele>1139.5</ele>
        <time>2020-09-16T11:57:18Z</time>
      </trkpt>
      <trkpt lat="44.48793" lon="6.1856">
        <ele>1139.2</ele>
        <time>2020-09-16T11:57:19Z</time>
      </trkpt>
      <trkpt lat="44.4879" lon="6.1856">
        <ele>1138.9</ele>
        <time>2020-09-16T11:57:20Z</time>
      </trkpt>
      <trkpt lat="44.48788" lon="6.18562">
        <ele>1138.7</ele>
        <time>2020-09-16T11:57:21Z</time>
      </trkpt>
      <trkpt lat="44.48787" lon="6.18567">
        <ele>1138.7</ele>
        <time>2020-09-16T11:57:22Z</time>
      </trkpt>
      <trkpt lat="44.48787" lon="6.18572">
        <ele>1138.8</ele>
        <time>2020-09-16T11:57:23Z</time>
      </trkpt>
      <trkpt lat="44.48788" lon="6.18578">
        <ele>1139</ele>
        <time>2020-09-16T11:57:24Z</time>
      </trkpt>
      <trkpt lat="44.48789" lon="6.18584">
        <ele>1139.2</ele>
        <time>2020-09-16T11:57:25Z</time>
      </trkpt>
      <trkpt lat="44.48794" lon="6.18607">
        <ele>1139.1</ele>
        <time>2020-09-16T11:57:29Z</time>
      </trkpt>
      <trkpt lat="44.48794" lon="6.18613">
        <ele>1138.9</ele>
        <time>2020-09-16T11:57:30Z</time>
      </trkpt>
      <trkpt lat="44.48793" lon="6.1862">
        <ele>1138.6</ele>
        <time>2020-09-16T11:57:31Z</time>
      </trkpt>
      <trkpt lat="44.48791" lon="6.18627">
        <ele>1138.1</ele>
        <time>2020-09-16T11:57:32Z</time>
      </trkpt>
      <trkpt lat="44.48788" lon="6.18633">
        <ele>1137.4</ele>
        <time>2020-09-16T11:57:33Z</time>
      </trkpt>
      <trkpt lat="44.48784" lon="6.18639">
        <ele>1136.6</ele>
        <time>2020-09-16T11:57:34Z</time>
      </trkpt>
      <trkpt lat="44.48752" lon="6.18673">
        <ele>1129.3</ele>
        <time>2020-09-16T11:57:41Z</time>
      </trkpt>
      <trkpt lat="44.4872" lon="6.18692">
        <ele>1128.2</ele>
        <time>2020-09-16T11:57:46Z</time>
      </trkpt>
      <trkpt lat="44.4869" lon="6.18715">
        <ele>1125.8</ele>
        <time>2020-09-16T11:57:51Z</time>
      </trkpt>
      <trkpt lat="44.4866" lon="6.18738">
        <ele>1121.4</ele>
        <time>2020-09-16T11:57:57Z</time>
      </trkpt>
      <trkpt lat="44.48654" lon="6.18742">
        <ele>1120.1</ele>
        <time>2020-09-16T11:57:58Z</time>
      </trkpt>
      <trkpt lat="44.48628" lon="6.18764">
        <ele>1116.4</ele>
        <time>2020-09-16T11:58:07Z</time>
      </trkpt>
      <trkpt lat="44.48627" lon="6.18764">
        <ele>1116.3</ele>
        <time>2020-09-16T11:58:10Z</time>
      </trkpt>
      <trkpt lat="44.48627" lon="6.18764">
        <ele>1116.3</ele>
        <time>2020-09-16T11:58:11Z</time>
      </trkpt>
      <trkpt lat="44.48624" lon="6.18772">
        <ele>1116.2</ele>
        <time>2020-09-16T11:58:25Z</time>
      </trkpt>
      <trkpt lat="44.48623" lon="6.18776">
        <ele>1116.2</ele>
        <time>2020-09-16T11:58:26Z</time>
      </trkpt>
      <trkpt lat="44.48622" lon="6.18779">
        <ele>1116.1</ele>
        <time>2020-09-16T11:58:27Z</time>
      </trkpt>
      <trkpt lat="44.48601" lon="6.18829">
        <ele>1114.6</ele>
        <time>2020-09-16T11:58:36Z</time>
      </trkpt>
      <trkpt lat="44.48553" lon="6.18901">
        <ele>1114</ele>
        <time>2020-09-16T11:58:48Z</time>
      </trkpt>
      <trkpt lat="44.48498" lon="6.18953">
        <ele>1110.9</ele>
        <time>2020-09-16T11:59:04Z</time>
      </trkpt>
      <trkpt lat="44.48494" lon="6.18954">
        <ele>1110.4</ele>
        <time>2020-09-16T11:59:05Z</time>
      </trkpt>
      <trkpt lat="44.48489" lon="6.18953">
        <ele>1109.6</ele>
        <time>2020-09-16T11:59:06Z</time>
      </trkpt>
      <trkpt lat="44.48449" lon="6.18939">
        <ele>1103.1</ele>
        <time>2020-09-16T11:59:16Z</time>
      </trkpt>
      <trkpt lat="44.48442" lon="6.18934">
        <ele>1101.9</ele>
        <time>2020-09-16T11:59:18Z</time>
      </trkpt>
      <trkpt lat="44.48439" lon="6.1893">
        <ele>1101.4</ele>
        <time>2020-09-16T11:59:19Z</time>
      </trkpt>
      <trkpt lat="44.48435" lon="6.18927">
        <ele>1100.7</ele>
        <time>2020-09-16T11:59:20Z</time>
      </trkpt>
      <trkpt lat="44.4843" lon="6.18924">
        <ele>1100</ele>
        <time>2020-09-16T11:59:21Z</time>
      </trkpt>
      <trkpt lat="44.48425" lon="6.18921">
        <ele>1099.2</ele>
        <time>2020-09-16T11:59:22Z</time>
      </trkpt>
      <trkpt lat="44.48419" lon="6.18919">
        <ele>1098.4</ele>
        <time>2020-09-16T11:59:23Z</time>
      </trkpt>
      <trkpt lat="44.48413" lon="6.18918">
        <ele>1097.3</ele>
        <time>2020-09-16T11:59:24Z</time>
      </trkpt>
      <trkpt lat="44.48408" lon="6.18918">
        <ele>1096.3</ele>
        <time>2020-09-16T11:59:25Z</time>
      </trkpt>
      <trkpt lat="44.48403" lon="6.18919">
        <ele>1095.3</ele>
        <time>2020-09-16T11:59:26Z</time>
      </trkpt>
      <trkpt lat="44.48397" lon="6.18921">
        <ele>1094.2</ele>
        <time>2020-09-16T11:59:27Z</time>
      </trkpt>
      <trkpt lat="44.48385" lon="6.18928">
        <ele>1092.2</ele>
        <time>2020-09-16T11:59:29Z</time>
      </trkpt>
      <trkpt lat="44.48379" lon="6.18932">
        <ele>1091.3</ele>
        <time>2020-09-16T11:59:30Z</time>
      </trkpt>
      <trkpt lat="44.48354" lon="6.18954">
        <ele>1088.8</ele>
        <time>2020-09-16T11:59:34Z</time>
      </trkpt>
      <trkpt lat="44.48314" lon="6.18997">
        <ele>1088</ele>
        <time>2020-09-16T11:59:40Z</time>
      </trkpt>
      <trkpt lat="44.48284" lon="6.19032">
        <ele>1085.9</ele>
        <time>2020-09-16T11:59:47Z</time>
      </trkpt>
      <trkpt lat="44.48236" lon="6.19094">
        <ele>1082.6</ele>
        <time>2020-09-16T12:00:01Z</time>
      </trkpt>
      <trkpt lat="44.48207" lon="6.19167">
        <ele>1079.8</ele>
        <time>2020-09-16T12:00:12Z</time>
      </trkpt>
      <trkpt lat="44.48188" lon="6.19213">
        <ele>1078.1</ele>
        <time>2020-09-16T12:00:18Z</time>
      </trkpt>
      <trkpt lat="44.48174" lon="6.19249">
        <ele>1076.5</ele>
        <time>2020-09-16T12:00:24Z</time>
      </trkpt>
      <trkpt lat="44.48169" lon="6.19261">
        <ele>1075.1</ele>
        <time>2020-09-16T12:00:26Z</time>
      </trkpt>
      <trkpt lat="44.48159" lon="6.19287">
        <ele>1071.9</ele>
        <time>2020-09-16T12:00:30Z</time>
      </trkpt>
      <trkpt lat="44.48157" lon="6.19294">
        <ele>1071.1</ele>
        <time>2020-09-16T12:00:31Z</time>
      </trkpt>
      <trkpt lat="44.48156" lon="6.193">
        <ele>1070.5</ele>
        <time>2020-09-16T12:00:32Z</time>
      </trkpt>
      <trkpt lat="44.48151" lon="6.19322">
        <ele>1067.9</ele>
        <time>2020-09-16T12:00:37Z</time>
      </trkpt>
      <trkpt lat="44.48148" lon="6.19324">
        <ele>1066.8</ele>
        <time>2020-09-16T12:00:38Z</time>
      </trkpt>
      <trkpt lat="44.48145" lon="6.19325">
        <ele>1065.9</ele>
        <time>2020-09-16T12:00:39Z</time>
      </trkpt>
      <trkpt lat="44.48142" lon="6.19323">
        <ele>1065.2</ele>
        <time>2020-09-16T12:00:40Z</time>
      </trkpt>
      <trkpt lat="44.48139" lon="6.1932">
        <ele>1064.5</ele>
        <time>2020-09-16T12:00:41Z</time>
      </trkpt>
      <trkpt lat="44.48135" lon="6.19315">
        <ele>1063.9</ele>
        <time>2020-09-16T12:00:42Z</time>
      </trkpt>
      <trkpt lat="44.48132" lon="6.19311">
        <ele>1063.4</ele>
        <time>2020-09-16T12:00:43Z</time>
      </trkpt>
      <trkpt lat="44.48128" lon="6.19307">
        <ele>1062.8</ele>
        <time>2020-09-16T12:00:44Z</time>
      </trkpt>
      <trkpt lat="44.48124" lon="6.19302">
        <ele>1062.3</ele>
        <time>2020-09-16T12:00:45Z</time>
      </trkpt>
      <trkpt lat="44.48097" lon="6.19276">
        <ele>1059.8</ele>
        <time>2020-09-16T12:00:51Z</time>
      </trkpt>
      <trkpt lat="44.48093" lon="6.19273">
        <ele>1059.5</ele>
        <time>2020-09-16T12:00:52Z</time>
      </trkpt>
      <trkpt lat="44.48083" lon="6.19268">
        <ele>1058.4</ele>
        <time>2020-09-16T12:00:54Z</time>
      </trkpt>
      <trkpt lat="44.48054" lon="6.19252">
        <ele>1051</ele>
        <time>2020-09-16T12:01:00Z</time>
      </trkpt>
      <trkpt lat="44.48029" lon="6.19237">
        <ele>1043.1</ele>
        <time>2020-09-16T12:01:06Z</time>
      </trkpt>
      <trkpt lat="44.48013" lon="6.19217">
        <ele>1039.2</ele>
        <time>2020-09-16T12:01:12Z</time>
      </trkpt>
      <trkpt lat="44.48012" lon="6.19211">
        <ele>1039.4</ele>
        <time>2020-09-16T12:01:13Z</time>
      </trkpt>
      <trkpt lat="44.48012" lon="6.19205">
        <ele>1039.9</ele>
        <time>2020-09-16T12:01:14Z</time>
      </trkpt>
      <trkpt lat="44.48013" lon="6.19199">
        <ele>1040.6</ele>
        <time>2020-09-16T12:01:15Z</time>
      </trkpt>
      <trkpt lat="44.48016" lon="6.19184">
        <ele>1042.6</ele>
        <time>2020-09-16T12:01:17Z</time>
      </trkpt>
      <trkpt lat="44.48016" lon="6.19177">
        <ele>1043.1</ele>
        <time>2020-09-16T12:01:18Z</time>
      </trkpt>
      <trkpt lat="44.48016" lon="6.1915">
        <ele>1041.5</ele>
        <time>2020-09-16T12:01:22Z</time>
      </trkpt>
      <trkpt lat="44.48018" lon="6.19144">
        <ele>1041.2</ele>
        <time>2020-09-16T12:01:23Z</time>
      </trkpt>
      <trkpt lat="44.48019" lon="6.19139">
        <ele>1040.7</ele>
        <time>2020-09-16T12:01:24Z</time>
      </trkpt>
      <trkpt lat="44.48021" lon="6.19135">
        <ele>1040.7</ele>
        <time>2020-09-16T12:01:25Z</time>
      </trkpt>
      <trkpt lat="44.48023" lon="6.19132">
        <ele>1040.8</ele>
        <time>2020-09-16T12:01:26Z</time>
      </trkpt>
      <trkpt lat="44.48026" lon="6.19129">
        <ele>1041.1</ele>
        <time>2020-09-16T12:01:27Z</time>
      </trkpt>
      <trkpt lat="44.48032" lon="6.19115">
        <ele>1040.7</ele>
        <time>2020-09-16T12:01:31Z</time>
      </trkpt>
      <trkpt lat="44.48031" lon="6.19112">
        <ele>1040.1</ele>
        <time>2020-09-16T12:01:32Z</time>
      </trkpt>
      <trkpt lat="44.48029" lon="6.1911">
        <ele>1039.3</ele>
        <time>2020-09-16T12:01:33Z</time>
      </trkpt>
      <trkpt lat="44.48026" lon="6.19109">
        <ele>1038.4</ele>
        <time>2020-09-16T12:01:34Z</time>
      </trkpt>
      <trkpt lat="44.48023" lon="6.1911">
        <ele>1037.7</ele>
        <time>2020-09-16T12:01:35Z</time>
      </trkpt>
      <trkpt lat="44.4802" lon="6.19113">
        <ele>1037.4</ele>
        <time>2020-09-16T12:01:36Z</time>
      </trkpt>
      <trkpt lat="44.48017" lon="6.19116">
        <ele>1037</ele>
        <time>2020-09-16T12:01:37Z</time>
      </trkpt>
      <trkpt lat="44.48015" lon="6.1912">
        <ele>1037.1</ele>
        <time>2020-09-16T12:01:38Z</time>
      </trkpt>
      <trkpt lat="44.48012" lon="6.19124">
        <ele>1036.9</ele>
        <time>2020-09-16T12:01:39Z</time>
      </trkpt>
      <trkpt lat="44.47994" lon="6.19153">
        <ele>1035.8</ele>
        <time>2020-09-16T12:01:45Z</time>
      </trkpt>
      <trkpt lat="44.47989" lon="6.19188">
        <ele>1033.4</ele>
        <time>2020-09-16T12:01:53Z</time>
      </trkpt>
      <trkpt lat="44.47988" lon="6.1919">
        <ele>1032.8</ele>
        <time>2020-09-16T12:01:54Z</time>
      </trkpt>
      <trkpt lat="44.47986" lon="6.19191">
        <ele>1031.8</ele>
        <time>2020-09-16T12:01:55Z</time>
      </trkpt>
      <trkpt lat="44.47983" lon="6.19191">
        <ele>1030.6</ele>
        <time>2020-09-16T12:01:56Z</time>
      </trkpt>
      <trkpt lat="44.47981" lon="6.19189">
        <ele>1030</ele>
        <time>2020-09-16T12:01:57Z</time>
      </trkpt>
      <trkpt lat="44.47979" lon="6.19187">
        <ele>1029.4</ele>
        <time>2020-09-16T12:01:58Z</time>
      </trkpt>
      <trkpt lat="44.47978" lon="6.19182">
        <ele>1029.5</ele>
        <time>2020-09-16T12:01:59Z</time>
      </trkpt>
      <trkpt lat="44.47977" lon="6.19177">
        <ele>1029.7</ele>
        <time>2020-09-16T12:02:00Z</time>
      </trkpt>
      <trkpt lat="44.47977" lon="6.19171">
        <ele>1030.4</ele>
        <time>2020-09-16T12:02:01Z</time>
      </trkpt>
      <trkpt lat="44.47977" lon="6.19164">
        <ele>1030.6</ele>
        <time>2020-09-16T12:02:02Z</time>
      </trkpt>
      <trkpt lat="44.47977" lon="6.19156">
        <ele>1029.6</ele>
        <time>2020-09-16T12:02:03Z</time>
      </trkpt>
      <trkpt lat="44.47978" lon="6.19148">
        <ele>1029.1</ele>
        <time>2020-09-16T12:02:04Z</time>
      </trkpt>
      <trkpt lat="44.47981" lon="6.1912">
        <ele>1026.8</ele>
        <time>2020-09-16T12:02:08Z</time>
      </trkpt>
      <trkpt lat="44.47982" lon="6.19114">
        <ele>1026.4</ele>
        <time>2020-09-16T12:02:09Z</time>
      </trkpt>
      <trkpt lat="44.47984" lon="6.19107">
        <ele>1026.2</ele>
        <time>2020-09-16T12:02:10Z</time>
      </trkpt>
      <trkpt lat="44.47987" lon="6.19101">
        <ele>1026.4</ele>
        <time>2020-09-16T12:02:11Z</time>
      </trkpt>
      <trkpt lat="44.47989" lon="6.19096">
        <ele>1026.4</ele>
        <time>2020-09-16T12:02:12Z</time>
      </trkpt>
      <trkpt lat="44.47992" lon="6.19091">
        <ele>1026.6</ele>
        <time>2020-09-16T12:02:13Z</time>
      </trkpt>
      <trkpt lat="44.47997" lon="6.19064">
        <ele>1020.7</ele>
        <time>2020-09-16T12:02:19Z</time>
      </trkpt>
      <trkpt lat="44.47995" lon="6.19062">
        <ele>1019.5</ele>
        <time>2020-09-16T12:02:20Z</time>
      </trkpt>
      <trkpt lat="44.47992" lon="6.19061">
        <ele>1018.4</ele>
        <time>2020-09-16T12:02:21Z</time>
      </trkpt>
      <trkpt lat="44.47989" lon="6.19063">
        <ele>1018.3</ele>
        <time>2020-09-16T12:02:22Z</time>
      </trkpt>
      <trkpt lat="44.47986" lon="6.19066">
        <ele>1018.4</ele>
        <time>2020-09-16T12:02:23Z</time>
      </trkpt>
      <trkpt lat="44.47982" lon="6.19071">
        <ele>1018.8</ele>
        <time>2020-09-16T12:02:24Z</time>
      </trkpt>
      <trkpt lat="44.47978" lon="6.19076">
        <ele>1019.2</ele>
        <time>2020-09-16T12:02:25Z</time>
      </trkpt>
      <trkpt lat="44.47974" lon="6.19082">
        <ele>1019.8</ele>
        <time>2020-09-16T12:02:26Z</time>
      </trkpt>
      <trkpt lat="44.47969" lon="6.19087">
        <ele>1019.1</ele>
        <time>2020-09-16T12:02:27Z</time>
      </trkpt>
      <trkpt lat="44.47942" lon="6.19119">
        <ele>1013.4</ele>
        <time>2020-09-16T12:02:33Z</time>
      </trkpt>
      <trkpt lat="44.47923" lon="6.19141">
        <ele>1008.1</ele>
        <time>2020-09-16T12:02:37Z</time>
      </trkpt>
      <trkpt lat="44.47899" lon="6.19162">
        <ele>1001.1</ele>
        <time>2020-09-16T12:02:42Z</time>
      </trkpt>
      <trkpt lat="44.47896" lon="6.19166">
        <ele>1000.3</ele>
        <time>2020-09-16T12:02:43Z</time>
      </trkpt>
      <trkpt lat="44.47882" lon="6.19179">
        <ele>993.6</ele>
        <time>2020-09-16T12:02:47Z</time>
      </trkpt>
      <trkpt lat="44.47868" lon="6.19178">
        <ele>989.2</ele>
        <time>2020-09-16T12:02:52Z</time>
      </trkpt>
      <trkpt lat="44.47866" lon="6.19174">
        <ele>989.2</ele>
        <time>2020-09-16T12:02:53Z</time>
      </trkpt>
      <trkpt lat="44.47865" lon="6.19168">
        <ele>990</ele>
        <time>2020-09-16T12:02:54Z</time>
      </trkpt>
      <trkpt lat="44.47865" lon="6.19162">
        <ele>990.3</ele>
        <time>2020-09-16T12:02:55Z</time>
      </trkpt>
      <trkpt lat="44.47865" lon="6.19156">
        <ele>990.3</ele>
        <time>2020-09-16T12:02:56Z</time>
      </trkpt>
      <trkpt lat="44.47867" lon="6.19148">
        <ele>990.9</ele>
        <time>2020-09-16T12:02:57Z</time>
      </trkpt>
      <trkpt lat="44.47869" lon="6.19141">
        <ele>991.6</ele>
        <time>2020-09-16T12:02:58Z</time>
      </trkpt>
      <trkpt lat="44.47885" lon="6.19097">
        <ele>995.6</ele>
        <time>2020-09-16T12:03:04Z</time>
      </trkpt>
      <trkpt lat="44.479" lon="6.19054">
        <ele>993.5</ele>
        <time>2020-09-16T12:03:10Z</time>
      </trkpt>
      <trkpt lat="44.47908" lon="6.19022">
        <ele>989.3</ele>
        <time>2020-09-16T12:03:15Z</time>
      </trkpt>
      <trkpt lat="44.47909" lon="6.19015">
        <ele>988.2</ele>
        <time>2020-09-16T12:03:16Z</time>
      </trkpt>
      <trkpt lat="44.47908" lon="6.19001">
        <ele>985.3</ele>
        <time>2020-09-16T12:03:19Z</time>
      </trkpt>
      <trkpt lat="44.47906" lon="6.18998">
        <ele>984.1</ele>
        <time>2020-09-16T12:03:20Z</time>
      </trkpt>
      <trkpt lat="44.47903" lon="6.18995">
        <ele>982.7</ele>
        <time>2020-09-16T12:03:21Z</time>
      </trkpt>
      <trkpt lat="44.479" lon="6.18995">
        <ele>982</ele>
        <time>2020-09-16T12:03:22Z</time>
      </trkpt>
      <trkpt lat="44.47896" lon="6.18997">
        <ele>981.7</ele>
        <time>2020-09-16T12:03:23Z</time>
      </trkpt>
      <trkpt lat="44.47892" lon="6.19001">
        <ele>981.9</ele>
        <time>2020-09-16T12:03:24Z</time>
      </trkpt>
      <trkpt lat="44.47888" lon="6.19005">
        <ele>981.7</ele>
        <time>2020-09-16T12:03:25Z</time>
      </trkpt>
      <trkpt lat="44.47878" lon="6.19014">
        <ele>981.2</ele>
        <time>2020-09-16T12:03:27Z</time>
      </trkpt>
      <trkpt lat="44.47872" lon="6.19018">
        <ele>980.6</ele>
        <time>2020-09-16T12:03:28Z</time>
      </trkpt>
      <trkpt lat="44.47867" lon="6.1902">
        <ele>979.8</ele>
        <time>2020-09-16T12:03:29Z</time>
      </trkpt>
      <trkpt lat="44.4784" lon="6.1903">
        <ele>975.5</ele>
        <time>2020-09-16T12:03:34Z</time>
      </trkpt>
      <trkpt lat="44.47824" lon="6.19041">
        <ele>973.3</ele>
        <time>2020-09-16T12:03:39Z</time>
      </trkpt>
      <trkpt lat="44.47817" lon="6.19047">
        <ele>972.2</ele>
        <time>2020-09-16T12:03:41Z</time>
      </trkpt>
      <trkpt lat="44.47791" lon="6.19086">
        <ele>968.5</ele>
        <time>2020-09-16T12:03:48Z</time>
      </trkpt>
      <trkpt lat="44.47787" lon="6.19091">
        <ele>966.7</ele>
        <time>2020-09-16T12:03:49Z</time>
      </trkpt>
      <trkpt lat="44.47783" lon="6.19095">
        <ele>964.9</ele>
        <time>2020-09-16T12:03:50Z</time>
      </trkpt>
      <trkpt lat="44.47764" lon="6.19108">
        <ele>956.6</ele>
        <time>2020-09-16T12:03:55Z</time>
      </trkpt>
      <trkpt lat="44.4776" lon="6.19109">
        <ele>955</ele>
        <time>2020-09-16T12:03:56Z</time>
      </trkpt>
      <trkpt lat="44.47751" lon="6.19109">
        <ele>951.7</ele>
        <time>2020-09-16T12:03:58Z</time>
      </trkpt>
      <trkpt lat="44.47747" lon="6.19108">
        <ele>950.2</ele>
        <time>2020-09-16T12:03:59Z</time>
      </trkpt>
      <trkpt lat="44.47743" lon="6.19106">
        <ele>948.8</ele>
        <time>2020-09-16T12:04:00Z</time>
      </trkpt>
      <trkpt lat="44.4773" lon="6.19097">
        <ele>944.8</ele>
        <time>2020-09-16T12:04:04Z</time>
      </trkpt>
      <trkpt lat="44.47727" lon="6.19093">
        <ele>944.1</ele>
        <time>2020-09-16T12:04:05Z</time>
      </trkpt>
      <trkpt lat="44.47723" lon="6.19089">
        <ele>943.1</ele>
        <time>2020-09-16T12:04:06Z</time>
      </trkpt>
      <trkpt lat="44.4772" lon="6.19083">
        <ele>942.8</ele>
        <time>2020-09-16T12:04:07Z</time>
      </trkpt>
      <trkpt lat="44.47718" lon="6.19077">
        <ele>941.8</ele>
        <time>2020-09-16T12:04:08Z</time>
      </trkpt>
      <trkpt lat="44.47715" lon="6.19072">
        <ele>940.4</ele>
        <time>2020-09-16T12:04:09Z</time>
      </trkpt>
      <trkpt lat="44.47703" lon="6.19038">
        <ele>935.3</ele>
        <time>2020-09-16T12:04:16Z</time>
      </trkpt>
      <trkpt lat="44.47706" lon="6.19007">
        <ele>935.9</ele>
        <time>2020-09-16T12:04:22Z</time>
      </trkpt>
      <trkpt lat="44.47724" lon="6.18998">
        <ele>941</ele>
        <time>2020-09-16T12:04:28Z</time>
      </trkpt>
      <trkpt lat="44.47732" lon="6.19001">
        <ele>944.2</ele>
        <time>2020-09-16T12:04:30Z</time>
      </trkpt>
      <trkpt lat="44.47756" lon="6.18985">
        <ele>947.5</ele>
        <time>2020-09-16T12:04:38Z</time>
      </trkpt>
      <trkpt lat="44.47763" lon="6.18972">
        <ele>945.8</ele>
        <time>2020-09-16T12:04:41Z</time>
      </trkpt>
      <trkpt lat="44.47766" lon="6.18968">
        <ele>945.6</ele>
        <time>2020-09-16T12:04:42Z</time>
      </trkpt>
      <trkpt lat="44.4777" lon="6.18965">
        <ele>945.8</ele>
        <time>2020-09-16T12:04:43Z</time>
      </trkpt>
      <trkpt lat="44.47791" lon="6.18948">
        <ele>947.2</ele>
        <time>2020-09-16T12:04:49Z</time>
      </trkpt>
      <trkpt lat="44.47795" lon="6.18944">
        <ele>947.3</ele>
        <time>2020-09-16T12:04:50Z</time>
      </trkpt>
      <trkpt lat="44.47797" lon="6.1894">
        <ele>946.9</ele>
        <time>2020-09-16T12:04:51Z</time>
      </trkpt>
      <trkpt lat="44.47798" lon="6.18936">
        <ele>946.3</ele>
        <time>2020-09-16T12:04:52Z</time>
      </trkpt>
      <trkpt lat="44.47798" lon="6.1893">
        <ele>944.9</ele>
        <time>2020-09-16T12:04:53Z</time>
      </trkpt>
      <trkpt lat="44.47798" lon="6.18925">
        <ele>943.7</ele>
        <time>2020-09-16T12:04:54Z</time>
      </trkpt>
      <trkpt lat="44.47797" lon="6.1892">
        <ele>942.3</ele>
        <time>2020-09-16T12:04:55Z</time>
      </trkpt>
      <trkpt lat="44.47795" lon="6.18916">
        <ele>940.8</ele>
        <time>2020-09-16T12:04:56Z</time>
      </trkpt>
      <trkpt lat="44.47793" lon="6.18911">
        <ele>939.1</ele>
        <time>2020-09-16T12:04:57Z</time>
      </trkpt>
      <trkpt lat="44.47791" lon="6.18907">
        <ele>937.7</ele>
        <time>2020-09-16T12:04:58Z</time>
      </trkpt>
      <trkpt lat="44.47788" lon="6.18904">
        <ele>936.3</ele>
        <time>2020-09-16T12:04:59Z</time>
      </trkpt>
      <trkpt lat="44.47786" lon="6.18901">
        <ele>935.2</ele>
        <time>2020-09-16T12:05:00Z</time>
      </trkpt>
      <trkpt lat="44.47771" lon="6.18878">
        <ele>928.1</ele>
        <time>2020-09-16T12:05:09Z</time>
      </trkpt>
      <trkpt lat="44.47767" lon="6.18849">
        <ele>923.4</ele>
        <time>2020-09-16T12:05:17Z</time>
      </trkpt>
      <trkpt lat="44.47767" lon="6.18845">
        <ele>922.8</ele>
        <time>2020-09-16T12:05:18Z</time>
      </trkpt>
      <trkpt lat="44.47764" lon="6.18824">
        <ele>918.6</ele>
        <time>2020-09-16T12:05:24Z</time>
      </trkpt>
      <trkpt lat="44.47754" lon="6.18808">
        <ele>914.3</ele>
        <time>2020-09-16T12:05:31Z</time>
      </trkpt>
      <trkpt lat="44.47732" lon="6.18797">
        <ele>907.3</ele>
        <time>2020-09-16T12:05:41Z</time>
      </trkpt>
      <trkpt lat="44.47718" lon="6.18796">
        <ele>904</ele>
        <time>2020-09-16T12:05:48Z</time>
      </trkpt>
      <trkpt lat="44.47707" lon="6.18805">
        <ele>902.6</ele>
        <time>2020-09-16T12:05:57Z</time>
      </trkpt>
      <trkpt lat="44.47707" lon="6.18806">
        <ele>902.7</ele>
        <time>2020-09-16T12:06:00Z</time>
      </trkpt>
      <trkpt lat="44.47712" lon="6.18829">
        <ele>907.2</ele>
        <time>2020-09-16T12:09:39Z</time>
      </trkpt>
      <trkpt lat="44.47713" lon="6.18839">
        <ele>908.6</ele>
        <time>2020-09-16T12:09:41Z</time>
      </trkpt>
      <trkpt lat="44.47714" lon="6.18845">
        <ele>909.5</ele>
        <time>2020-09-16T12:09:42Z</time>
      </trkpt>
      <trkpt lat="44.47714" lon="6.18888">
        <ele>913.1</ele>
        <time>2020-09-16T12:09:51Z</time>
      </trkpt>
      <trkpt lat="44.4771" lon="6.18891">
        <ele>911.9</ele>
        <time>2020-09-16T12:09:52Z</time>
      </trkpt>
      <trkpt lat="44.47706" lon="6.18892">
        <ele>910.6</ele>
        <time>2020-09-16T12:09:53Z</time>
      </trkpt>
      <trkpt lat="44.47673" lon="6.18898">
        <ele>899.6</ele>
        <time>2020-09-16T12:10:00Z</time>
      </trkpt>
      <trkpt lat="44.47651" lon="6.18907">
        <ele>891.3</ele>
        <time>2020-09-16T12:10:05Z</time>
      </trkpt>
      <trkpt lat="44.47633" lon="6.1893">
        <ele>886.6</ele>
        <time>2020-09-16T12:10:12Z</time>
      </trkpt>
      <trkpt lat="44.47632" lon="6.18941">
        <ele>888.2</ele>
        <time>2020-09-16T12:10:14Z</time>
      </trkpt>
      <trkpt lat="44.47633" lon="6.18948">
        <ele>890</ele>
        <time>2020-09-16T12:10:15Z</time>
      </trkpt>
      <trkpt lat="44.47633" lon="6.1897">
        <ele>894.2</ele>
        <time>2020-09-16T12:10:18Z</time>
      </trkpt>
      <trkpt lat="44.47632" lon="6.18978">
        <ele>895.1</ele>
        <time>2020-09-16T12:10:19Z</time>
      </trkpt>
      <trkpt lat="44.47631" lon="6.18985">
        <ele>895.8</ele>
        <time>2020-09-16T12:10:20Z</time>
      </trkpt>
      <trkpt lat="44.47629" lon="6.18992">
        <ele>895.8</ele>
        <time>2020-09-16T12:10:21Z</time>
      </trkpt>
      <trkpt lat="44.47627" lon="6.18998">
        <ele>895.5</ele>
        <time>2020-09-16T12:10:22Z</time>
      </trkpt>
      <trkpt lat="44.47625" lon="6.19004">
        <ele>894.6</ele>
        <time>2020-09-16T12:10:23Z</time>
      </trkpt>
      <trkpt lat="44.47622" lon="6.1901">
        <ele>892.7</ele>
        <time>2020-09-16T12:10:24Z</time>
      </trkpt>
      <trkpt lat="44.47619" lon="6.19016">
        <ele>890.9</ele>
        <time>2020-09-16T12:10:25Z</time>
      </trkpt>
      <trkpt lat="44.47603" lon="6.19046">
        <ele>881.7</ele>
        <time>2020-09-16T12:10:33Z</time>
      </trkpt>
      <trkpt lat="44.47598" lon="6.19047">
        <ele>878.6</ele>
        <time>2020-09-16T12:10:35Z</time>
      </trkpt>
      <trkpt lat="44.47596" lon="6.19046">
        <ele>877.3</ele>
        <time>2020-09-16T12:10:36Z</time>
      </trkpt>
      <trkpt lat="44.47595" lon="6.19043">
        <ele>876.5</ele>
        <time>2020-09-16T12:10:37Z</time>
      </trkpt>
      <trkpt lat="44.47594" lon="6.1904">
        <ele>875.7</ele>
        <time>2020-09-16T12:10:38Z</time>
      </trkpt>
      <trkpt lat="44.47594" lon="6.19036">
        <ele>875.4</ele>
        <time>2020-09-16T12:10:39Z</time>
      </trkpt>
      <trkpt lat="44.47595" lon="6.19032">
        <ele>875.9</ele>
        <time>2020-09-16T12:10:40Z</time>
      </trkpt>
      <trkpt lat="44.47597" lon="6.19027">
        <ele>876.9</ele>
        <time>2020-09-16T12:10:41Z</time>
      </trkpt>
      <trkpt lat="44.476" lon="6.19022">
        <ele>878.6</ele>
        <time>2020-09-16T12:10:42Z</time>
      </trkpt>
      <trkpt lat="44.47603" lon="6.19017">
        <ele>880.3</ele>
        <time>2020-09-16T12:10:43Z</time>
      </trkpt>
      <trkpt lat="44.47606" lon="6.19011">
        <ele>882</ele>
        <time>2020-09-16T12:10:44Z</time>
      </trkpt>
      <trkpt lat="44.47608" lon="6.19005">
        <ele>883.1</ele>
        <time>2020-09-16T12:10:45Z</time>
      </trkpt>
      <trkpt lat="44.47611" lon="6.18994">
        <ele>884.2</ele>
        <time>2020-09-16T12:10:47Z</time>
      </trkpt>
      <trkpt lat="44.47612" lon="6.18988">
        <ele>884</ele>
        <time>2020-09-16T12:10:48Z</time>
      </trkpt>
      <trkpt lat="44.47612" lon="6.18982">
        <ele>883.3</ele>
        <time>2020-09-16T12:10:49Z</time>
      </trkpt>
      <trkpt lat="44.47612" lon="6.18976">
        <ele>882.5</ele>
        <time>2020-09-16T12:10:50Z</time>
      </trkpt>
      <trkpt lat="44.47611" lon="6.1897">
        <ele>881.1</ele>
        <time>2020-09-16T12:10:51Z</time>
      </trkpt>
      <trkpt lat="44.47611" lon="6.18964">
        <ele>880.3</ele>
        <time>2020-09-16T12:10:52Z</time>
      </trkpt>
      <trkpt lat="44.47601" lon="6.18927">
        <ele>870.9</ele>
        <time>2020-09-16T12:10:58Z</time>
      </trkpt>
      <trkpt lat="44.476" lon="6.18922">
        <ele>869.9</ele>
        <time>2020-09-16T12:10:59Z</time>
      </trkpt>
      <trkpt lat="44.47599" lon="6.189">
        <ele>867.9</ele>
        <time>2020-09-16T12:11:03Z</time>
      </trkpt>
      <trkpt lat="44.47604" lon="6.1887">
        <ele>868.1</ele>
        <time>2020-09-16T12:11:11Z</time>
      </trkpt>
      <trkpt lat="44.47628" lon="6.18847">
        <ele>876.8</ele>
        <time>2020-09-16T12:11:21Z</time>
      </trkpt>
      <trkpt lat="44.47627" lon="6.18844">
        <ele>876.1</ele>
        <time>2020-09-16T12:11:22Z</time>
      </trkpt>
      <trkpt lat="44.47626" lon="6.18842">
        <ele>875.5</ele>
        <time>2020-09-16T12:11:23Z</time>
      </trkpt>
      <trkpt lat="44.47624" lon="6.18842">
        <ele>874.7</ele>
        <time>2020-09-16T12:11:24Z</time>
      </trkpt>
      <trkpt lat="44.47621" lon="6.18842">
        <ele>873.4</ele>
        <time>2020-09-16T12:11:25Z</time>
      </trkpt>
      <trkpt lat="44.47619" lon="6.18844">
        <ele>872.7</ele>
        <time>2020-09-16T12:11:26Z</time>
      </trkpt>
      <trkpt lat="44.47616" lon="6.18846">
        <ele>871.6</ele>
        <time>2020-09-16T12:11:27Z</time>
      </trkpt>
      <trkpt lat="44.47588" lon="6.18872">
        <ele>861.3</ele>
        <time>2020-09-16T12:11:37Z</time>
      </trkpt>
      <trkpt lat="44.47586" lon="6.18877">
        <ele>860.8</ele>
        <time>2020-09-16T12:11:38Z</time>
      </trkpt>
      <trkpt lat="44.47584" lon="6.18882">
        <ele>860.2</ele>
        <time>2020-09-16T12:11:39Z</time>
      </trkpt>
      <trkpt lat="44.47577" lon="6.18907">
        <ele>858.7</ele>
        <time>2020-09-16T12:11:44Z</time>
      </trkpt>
      <trkpt lat="44.47574" lon="6.18939">
        <ele>859.1</ele>
        <time>2020-09-16T12:11:49Z</time>
      </trkpt>
      <trkpt lat="44.47572" lon="6.18945">
        <ele>858.6</ele>
        <time>2020-09-16T12:11:50Z</time>
      </trkpt>
      <trkpt lat="44.47563" lon="6.1897">
        <ele>856.2</ele>
        <time>2020-09-16T12:11:54Z</time>
      </trkpt>
      <trkpt lat="44.47559" lon="6.18976">
        <ele>855</ele>
        <time>2020-09-16T12:11:55Z</time>
      </trkpt>
      <trkpt lat="44.47547" lon="6.18992">
        <ele>851.1</ele>
        <time>2020-09-16T12:11:58Z</time>
      </trkpt>
      <trkpt lat="44.47544" lon="6.18998">
        <ele>850.3</ele>
        <time>2020-09-16T12:11:59Z</time>
      </trkpt>
      <trkpt lat="44.47541" lon="6.19004">
        <ele>849.6</ele>
        <time>2020-09-16T12:12:00Z</time>
      </trkpt>
      <trkpt lat="44.47539" lon="6.19011">
        <ele>849.4</ele>
        <time>2020-09-16T12:12:01Z</time>
      </trkpt>
      <trkpt lat="44.47538" lon="6.19017">
        <ele>849.5</ele>
        <time>2020-09-16T12:12:02Z</time>
      </trkpt>
      <trkpt lat="44.47538" lon="6.19023">
        <ele>850</ele>
        <time>2020-09-16T12:12:03Z</time>
      </trkpt>
      <trkpt lat="44.47538" lon="6.19029">
        <ele>850.5</ele>
        <time>2020-09-16T12:12:04Z</time>
      </trkpt>
      <trkpt lat="44.47539" lon="6.19035">
        <ele>851.4</ele>
        <time>2020-09-16T12:12:05Z</time>
      </trkpt>
      <trkpt lat="44.4754" lon="6.19042">
        <ele>852.4</ele>
        <time>2020-09-16T12:12:06Z</time>
      </trkpt>
      <trkpt lat="44.47542" lon="6.19048">
        <ele>853.7</ele>
        <time>2020-09-16T12:12:07Z</time>
      </trkpt>
      <trkpt lat="44.47544" lon="6.19063">
        <ele>855.7</ele>
        <time>2020-09-16T12:12:10Z</time>
      </trkpt>
      <trkpt lat="44.47543" lon="6.19067">
        <ele>855.6</ele>
        <time>2020-09-16T12:12:11Z</time>
      </trkpt>
      <trkpt lat="44.47541" lon="6.1907">
        <ele>855.1</ele>
        <time>2020-09-16T12:12:12Z</time>
      </trkpt>
      <trkpt lat="44.47539" lon="6.19072">
        <ele>854.5</ele>
        <time>2020-09-16T12:12:13Z</time>
      </trkpt>
      <trkpt lat="44.47536" lon="6.19072">
        <ele>853.4</ele>
        <time>2020-09-16T12:12:14Z</time>
      </trkpt>
      <trkpt lat="44.47534" lon="6.19071">
        <ele>852.6</ele>
        <time>2020-09-16T12:12:15Z</time>
      </trkpt>
      <trkpt lat="44.47532" lon="6.19067">
        <ele>851.5</ele>
        <time>2020-09-16T12:12:16Z</time>
      </trkpt>
      <trkpt lat="44.47531" lon="6.19062">
        <ele>850.7</ele>
        <time>2020-09-16T12:12:17Z</time>
      </trkpt>
      <trkpt lat="44.4753" lon="6.19056">
        <ele>849.8</ele>
        <time>2020-09-16T12:12:18Z</time>
      </trkpt>
      <trkpt lat="44.4753" lon="6.19049">
        <ele>849.2</ele>
        <time>2020-09-16T12:12:19Z</time>
      </trkpt>
      <trkpt lat="44.47528" lon="6.18987">
        <ele>843.2</ele>
        <time>2020-09-16T12:12:26Z</time>
      </trkpt>
      <trkpt lat="44.4753" lon="6.18977">
        <ele>843.2</ele>
        <time>2020-09-16T12:12:27Z</time>
      </trkpt>
      <trkpt lat="44.47539" lon="6.18919">
        <ele>843</ele>
        <time>2020-09-16T12:12:33Z</time>
      </trkpt>
      <trkpt lat="44.47541" lon="6.1887">
        <ele>840.9</ele>
        <time>2020-09-16T12:12:39Z</time>
      </trkpt>
      <trkpt lat="44.47538" lon="6.18843">
        <ele>838</ele>
        <time>2020-09-16T12:12:43Z</time>
      </trkpt>
      <trkpt lat="44.47536" lon="6.18837">
        <ele>836.8</ele>
        <time>2020-09-16T12:12:44Z</time>
      </trkpt>
      <trkpt lat="44.47531" lon="6.18826">
        <ele>834.2</ele>
        <time>2020-09-16T12:12:46Z</time>
      </trkpt>
      <trkpt lat="44.47529" lon="6.18821">
        <ele>833.2</ele>
        <time>2020-09-16T12:12:47Z</time>
      </trkpt>
      <trkpt lat="44.47528" lon="6.18815">
        <ele>832.6</ele>
        <time>2020-09-16T12:12:48Z</time>
      </trkpt>
      <trkpt lat="44.47528" lon="6.18809">
        <ele>832.4</ele>
        <time>2020-09-16T12:12:49Z</time>
      </trkpt>
      <trkpt lat="44.47529" lon="6.18802">
        <ele>832.7</ele>
        <time>2020-09-16T12:12:50Z</time>
      </trkpt>
      <trkpt lat="44.4753" lon="6.18794">
        <ele>833</ele>
        <time>2020-09-16T12:12:51Z</time>
      </trkpt>
      <trkpt lat="44.47531" lon="6.18786">
        <ele>833.3</ele>
        <time>2020-09-16T12:12:52Z</time>
      </trkpt>
      <trkpt lat="44.47531" lon="6.18777">
        <ele>833.1</ele>
        <time>2020-09-16T12:12:53Z</time>
      </trkpt>
      <trkpt lat="44.47531" lon="6.18768">
        <ele>832.9</ele>
        <time>2020-09-16T12:12:54Z</time>
      </trkpt>
      <trkpt lat="44.47522" lon="6.18713">
        <ele>827.4</ele>
        <time>2020-09-16T12:13:00Z</time>
      </trkpt>
      <trkpt lat="44.4751" lon="6.18678">
        <ele>821.5</ele>
        <time>2020-09-16T12:13:05Z</time>
      </trkpt>
      <trkpt lat="44.47508" lon="6.18671">
        <ele>820.7</ele>
        <time>2020-09-16T12:13:06Z</time>
      </trkpt>
      <trkpt lat="44.47504" lon="6.18652">
        <ele>817.5</ele>
        <time>2020-09-16T12:13:09Z</time>
      </trkpt>
      <trkpt lat="44.47502" lon="6.18647">
        <ele>816.2</ele>
        <time>2020-09-16T12:13:10Z</time>
      </trkpt>
      <trkpt lat="44.475" lon="6.18642">
        <ele>814.9</ele>
        <time>2020-09-16T12:13:11Z</time>
      </trkpt>
      <trkpt lat="44.47498" lon="6.18639">
        <ele>814.1</ele>
        <time>2020-09-16T12:13:12Z</time>
      </trkpt>
      <trkpt lat="44.47495" lon="6.18638">
        <ele>813.2</ele>
        <time>2020-09-16T12:13:13Z</time>
      </trkpt>
      <trkpt lat="44.47491" lon="6.18639">
        <ele>812.2</ele>
        <time>2020-09-16T12:13:14Z</time>
      </trkpt>
      <trkpt lat="44.47489" lon="6.18641">
        <ele>811.8</ele>
        <time>2020-09-16T12:13:15Z</time>
      </trkpt>
      <trkpt lat="44.47487" lon="6.18644">
        <ele>811.5</ele>
        <time>2020-09-16T12:13:16Z</time>
      </trkpt>
      <trkpt lat="44.47486" lon="6.18649">
        <ele>811.5</ele>
        <time>2020-09-16T12:13:17Z</time>
      </trkpt>
      <trkpt lat="44.47487" lon="6.18655">
        <ele>812.3</ele>
        <time>2020-09-16T12:13:18Z</time>
      </trkpt>
      <trkpt lat="44.47488" lon="6.18661">
        <ele>813</ele>
        <time>2020-09-16T12:13:19Z</time>
      </trkpt>
      <trkpt lat="44.4749" lon="6.18666">
        <ele>813.9</ele>
        <time>2020-09-16T12:13:20Z</time>
      </trkpt>
      <trkpt lat="44.47493" lon="6.18672">
        <ele>814.8</ele>
        <time>2020-09-16T12:13:21Z</time>
      </trkpt>
      <trkpt lat="44.47502" lon="6.18708">
        <ele>817</ele>
        <time>2020-09-16T12:13:26Z</time>
      </trkpt>
      <trkpt lat="44.47503" lon="6.18715">
        <ele>817.4</ele>
        <time>2020-09-16T12:13:27Z</time>
      </trkpt>
      <trkpt lat="44.47504" lon="6.18723">
        <ele>817.8</ele>
        <time>2020-09-16T12:13:28Z</time>
      </trkpt>
      <trkpt lat="44.47504" lon="6.18731">
        <ele>817.6</ele>
        <time>2020-09-16T12:13:29Z</time>
      </trkpt>
      <trkpt lat="44.47504" lon="6.18738">
        <ele>817.5</ele>
        <time>2020-09-16T12:13:30Z</time>
      </trkpt>
      <trkpt lat="44.47504" lon="6.18745">
        <ele>817.4</ele>
        <time>2020-09-16T12:13:31Z</time>
      </trkpt>
      <trkpt lat="44.47502" lon="6.18753">
        <ele>816.3</ele>
        <time>2020-09-16T12:13:32Z</time>
      </trkpt>
      <trkpt lat="44.475" lon="6.18759">
        <ele>815.6</ele>
        <time>2020-09-16T12:13:33Z</time>
      </trkpt>
      <trkpt lat="44.47496" lon="6.18766">
        <ele>815.4</ele>
        <time>2020-09-16T12:13:34Z</time>
      </trkpt>
      <trkpt lat="44.47491" lon="6.18771">
        <ele>814.8</ele>
        <time>2020-09-16T12:13:35Z</time>
      </trkpt>
      <trkpt lat="44.47486" lon="6.18775">
        <ele>814.3</ele>
        <time>2020-09-16T12:13:36Z</time>
      </trkpt>
      <trkpt lat="44.47479" lon="6.18776">
        <ele>813.1</ele>
        <time>2020-09-16T12:13:37Z</time>
      </trkpt>
      <trkpt lat="44.47472" lon="6.18776">
        <ele>811.9</ele>
        <time>2020-09-16T12:13:38Z</time>
      </trkpt>
      <trkpt lat="44.47466" lon="6.18776">
        <ele>810.8</ele>
        <time>2020-09-16T12:13:39Z</time>
      </trkpt>
      <trkpt lat="44.47454" lon="6.18776">
        <ele>808.7</ele>
        <time>2020-09-16T12:13:41Z</time>
      </trkpt>
      <trkpt lat="44.47448" lon="6.18778">
        <ele>807.9</ele>
        <time>2020-09-16T12:13:42Z</time>
      </trkpt>
      <trkpt lat="44.47442" lon="6.18781">
        <ele>807.3</ele>
        <time>2020-09-16T12:13:43Z</time>
      </trkpt>
      <trkpt lat="44.47403" lon="6.18807">
        <ele>806.4</ele>
        <time>2020-09-16T12:13:49Z</time>
      </trkpt>
      <trkpt lat="44.47396" lon="6.18808">
        <ele>805.9</ele>
        <time>2020-09-16T12:13:50Z</time>
      </trkpt>
      <trkpt lat="44.47388" lon="6.18808">
        <ele>805</ele>
        <time>2020-09-16T12:13:51Z</time>
      </trkpt>
      <trkpt lat="44.47356" lon="6.18802">
        <ele>800.1</ele>
        <time>2020-09-16T12:13:56Z</time>
      </trkpt>
      <trkpt lat="44.4735" lon="6.18801">
        <ele>799.2</ele>
        <time>2020-09-16T12:13:57Z</time>
      </trkpt>
      <trkpt lat="44.47345" lon="6.18802">
        <ele>798.8</ele>
        <time>2020-09-16T12:13:58Z</time>
      </trkpt>
      <trkpt lat="44.47339" lon="6.18804">
        <ele>798.6</ele>
        <time>2020-09-16T12:13:59Z</time>
      </trkpt>
      <trkpt lat="44.47333" lon="6.18807">
        <ele>798.6</ele>
        <time>2020-09-16T12:14:00Z</time>
      </trkpt>
      <trkpt lat="44.47326" lon="6.1881">
        <ele>797.8</ele>
        <time>2020-09-16T12:14:01Z</time>
      </trkpt>
      <trkpt lat="44.47314" lon="6.18818">
        <ele>797</ele>
        <time>2020-09-16T12:14:03Z</time>
      </trkpt>
      <trkpt lat="44.47307" lon="6.1882">
        <ele>795.9</ele>
        <time>2020-09-16T12:14:04Z</time>
      </trkpt>
      <trkpt lat="44.473" lon="6.18821">
        <ele>794.6</ele>
        <time>2020-09-16T12:14:05Z</time>
      </trkpt>
      <trkpt lat="44.47293" lon="6.1882">
        <ele>792.8</ele>
        <time>2020-09-16T12:14:06Z</time>
      </trkpt>
      <trkpt lat="44.47287" lon="6.1882">
        <ele>791.5</ele>
        <time>2020-09-16T12:14:07Z</time>
      </trkpt>
      <trkpt lat="44.47281" lon="6.1882">
        <ele>790.2</ele>
        <time>2020-09-16T12:14:08Z</time>
      </trkpt>
      <trkpt lat="44.47275" lon="6.1882">
        <ele>788.8</ele>
        <time>2020-09-16T12:14:09Z</time>
      </trkpt>
      <trkpt lat="44.47269" lon="6.18821">
        <ele>787.7</ele>
        <time>2020-09-16T12:14:10Z</time>
      </trkpt>
      <trkpt lat="44.47263" lon="6.18824">
        <ele>787</ele>
        <time>2020-09-16T12:14:11Z</time>
      </trkpt>
      <trkpt lat="44.47257" lon="6.18826">
        <ele>786.1</ele>
        <time>2020-09-16T12:14:12Z</time>
      </trkpt>
      <trkpt lat="44.47228" lon="6.18838">
        <ele>779.2</ele>
        <time>2020-09-16T12:14:17Z</time>
      </trkpt>
      <trkpt lat="44.47218" lon="6.18842">
        <ele>776.4</ele>
        <time>2020-09-16T12:14:19Z</time>
      </trkpt>
      <trkpt lat="44.47214" lon="6.18845">
        <ele>775.4</ele>
        <time>2020-09-16T12:14:20Z</time>
      </trkpt>
      <trkpt lat="44.47211" lon="6.18849">
        <ele>775</ele>
        <time>2020-09-16T12:14:21Z</time>
      </trkpt>
      <trkpt lat="44.47208" lon="6.18854">
        <ele>774.7</ele>
        <time>2020-09-16T12:14:22Z</time>
      </trkpt>
      <trkpt lat="44.47207" lon="6.1886">
        <ele>775.3</ele>
        <time>2020-09-16T12:14:23Z</time>
      </trkpt>
      <trkpt lat="44.47207" lon="6.18868">
        <ele>776.6</ele>
        <time>2020-09-16T12:14:24Z</time>
      </trkpt>
      <trkpt lat="44.47207" lon="6.18876">
        <ele>777.9</ele>
        <time>2020-09-16T12:14:25Z</time>
      </trkpt>
      <trkpt lat="44.47207" lon="6.18884">
        <ele>779.2</ele>
        <time>2020-09-16T12:14:26Z</time>
      </trkpt>
      <trkpt lat="44.47207" lon="6.18899">
        <ele>781.6</ele>
        <time>2020-09-16T12:14:28Z</time>
      </trkpt>
      <trkpt lat="44.47206" lon="6.18906">
        <ele>782.3</ele>
        <time>2020-09-16T12:14:29Z</time>
      </trkpt>
      <trkpt lat="44.47204" lon="6.18912">
        <ele>782.4</ele>
        <time>2020-09-16T12:14:30Z</time>
      </trkpt>
      <trkpt lat="44.47202" lon="6.18916">
        <ele>782.2</ele>
        <time>2020-09-16T12:14:31Z</time>
      </trkpt>
      <trkpt lat="44.472" lon="6.1892">
        <ele>781.8</ele>
        <time>2020-09-16T12:14:32Z</time>
      </trkpt>
      <trkpt lat="44.47197" lon="6.18922">
        <ele>780.7</ele>
        <time>2020-09-16T12:14:33Z</time>
      </trkpt>
      <trkpt lat="44.47194" lon="6.18922">
        <ele>779.4</ele>
        <time>2020-09-16T12:14:34Z</time>
      </trkpt>
      <trkpt lat="44.47191" lon="6.1892">
        <ele>777.9</ele>
        <time>2020-09-16T12:14:35Z</time>
      </trkpt>
      <trkpt lat="44.47189" lon="6.18916">
        <ele>776.6</ele>
        <time>2020-09-16T12:14:36Z</time>
      </trkpt>
      <trkpt lat="44.47189" lon="6.18911">
        <ele>775.8</ele>
        <time>2020-09-16T12:14:37Z</time>
      </trkpt>
      <trkpt lat="44.4719" lon="6.18905">
        <ele>775.4</ele>
        <time>2020-09-16T12:14:38Z</time>
      </trkpt>
      <trkpt lat="44.47192" lon="6.18899">
        <ele>775.4</ele>
        <time>2020-09-16T12:14:39Z</time>
      </trkpt>
      <trkpt lat="44.47194" lon="6.18893">
        <ele>775.3</ele>
        <time>2020-09-16T12:14:40Z</time>
      </trkpt>
      <trkpt lat="44.47195" lon="6.18886">
        <ele>774.7</ele>
        <time>2020-09-16T12:14:41Z</time>
      </trkpt>
      <trkpt lat="44.47195" lon="6.18878">
        <ele>773.5</ele>
        <time>2020-09-16T12:14:42Z</time>
      </trkpt>
      <trkpt lat="44.47194" lon="6.1887">
        <ele>771.9</ele>
        <time>2020-09-16T12:14:43Z</time>
      </trkpt>
      <trkpt lat="44.47194" lon="6.18863">
        <ele>770.9</ele>
        <time>2020-09-16T12:14:44Z</time>
      </trkpt>
      <trkpt lat="44.47195" lon="6.18856">
        <ele>770.2</ele>
        <time>2020-09-16T12:14:45Z</time>
      </trkpt>
      <trkpt lat="44.47196" lon="6.1885">
        <ele>769.7</ele>
        <time>2020-09-16T12:14:46Z</time>
      </trkpt>
      <trkpt lat="44.47198" lon="6.18844">
        <ele>769.5</ele>
        <time>2020-09-16T12:14:47Z</time>
      </trkpt>
      <trkpt lat="44.47201" lon="6.18839">
        <ele>769.8</ele>
        <time>2020-09-16T12:14:48Z</time>
      </trkpt>
      <trkpt lat="44.47205" lon="6.18833">
        <ele>770.3</ele>
        <time>2020-09-16T12:14:49Z</time>
      </trkpt>
      <trkpt lat="44.47209" lon="6.18828">
        <ele>771.1</ele>
        <time>2020-09-16T12:14:50Z</time>
      </trkpt>
      <trkpt lat="44.47214" lon="6.18823">
        <ele>772.2</ele>
        <time>2020-09-16T12:14:51Z</time>
      </trkpt>
      <trkpt lat="44.47232" lon="6.18804">
        <ele>774.9</ele>
        <time>2020-09-16T12:14:55Z</time>
      </trkpt>
      <trkpt lat="44.47242" lon="6.18783">
        <ele>773.8</ele>
        <time>2020-09-16T12:15:00Z</time>
      </trkpt>
      <trkpt lat="44.4724" lon="6.18779">
        <ele>772.6</ele>
        <time>2020-09-16T12:15:01Z</time>
      </trkpt>
      <trkpt lat="44.47237" lon="6.18777">
        <ele>771.6</ele>
        <time>2020-09-16T12:15:02Z</time>
      </trkpt>
      <trkpt lat="44.47233" lon="6.18777">
        <ele>770.7</ele>
        <time>2020-09-16T12:15:03Z</time>
      </trkpt>
      <trkpt lat="44.47229" lon="6.18778">
        <ele>769.9</ele>
        <time>2020-09-16T12:15:04Z</time>
      </trkpt>
      <trkpt lat="44.47224" lon="6.1878">
        <ele>769.1</ele>
        <time>2020-09-16T12:15:05Z</time>
      </trkpt>
      <trkpt lat="44.47218" lon="6.18782">
        <ele>767.9</ele>
        <time>2020-09-16T12:15:06Z</time>
      </trkpt>
      <trkpt lat="44.47168" lon="6.18788">
        <ele>756.2</ele>
        <time>2020-09-16T12:15:14Z</time>
      </trkpt>
      <trkpt lat="44.47152" lon="6.18788">
        <ele>753</ele>
        <time>2020-09-16T12:15:17Z</time>
      </trkpt>
      <trkpt lat="44.47127" lon="6.18787">
        <ele>747.9</ele>
        <time>2020-09-16T12:15:21Z</time>
      </trkpt>
      <trkpt lat="44.47096" lon="6.18786">
        <ele>741.7</ele>
        <time>2020-09-16T12:15:26Z</time>
      </trkpt>
      <trkpt lat="44.47074" lon="6.18787">
        <ele>738.1</ele>
        <time>2020-09-16T12:15:30Z</time>
      </trkpt>
      <trkpt lat="44.47057" lon="6.18791">
        <ele>736.2</ele>
        <time>2020-09-16T12:15:33Z</time>
      </trkpt>
      <trkpt lat="44.47037" lon="6.188">
        <ele>733.8</ele>
        <time>2020-09-16T12:15:37Z</time>
      </trkpt>
      <trkpt lat="44.47014" lon="6.18816">
        <ele>730.9</ele>
        <time>2020-09-16T12:15:42Z</time>
      </trkpt>
      <trkpt lat="44.46988" lon="6.18838">
        <ele>727.1</ele>
        <time>2020-09-16T12:15:48Z</time>
      </trkpt>
      <trkpt lat="44.46963" lon="6.18858">
        <ele>722.8</ele>
        <time>2020-09-16T12:15:53Z</time>
      </trkpt>
      <trkpt lat="44.4694" lon="6.18872">
        <ele>719</ele>
        <time>2020-09-16T12:15:57Z</time>
      </trkpt>
      <trkpt lat="44.46935" lon="6.18875">
        <ele>718.1</ele>
        <time>2020-09-16T12:15:58Z</time>
      </trkpt>
      <trkpt lat="44.46919" lon="6.18882">
        <ele>715.6</ele>
        <time>2020-09-16T12:16:01Z</time>
      </trkpt>
      <trkpt lat="44.46896" lon="6.18895">
        <ele>712.5</ele>
        <time>2020-09-16T12:16:05Z</time>
      </trkpt>
      <trkpt lat="44.46873" lon="6.18912">
        <ele>709.5</ele>
        <time>2020-09-16T12:16:10Z</time>
      </trkpt>
      <trkpt lat="44.46864" lon="6.18919">
        <ele>708.2</ele>
        <time>2020-09-16T12:16:14Z</time>
      </trkpt>
      <trkpt lat="44.46857" lon="6.18928">
        <ele>707.1</ele>
        <time>2020-09-16T12:16:19Z</time>
      </trkpt>
      <trkpt lat="44.46825" lon="6.18968">
        <ele>701.7</ele>
        <time>2020-09-16T12:16:27Z</time>
      </trkpt>
      <trkpt lat="44.46798" lon="6.19006">
        <ele>697.2</ele>
        <time>2020-09-16T12:16:33Z</time>
      </trkpt>
      <trkpt lat="44.46782" lon="6.19026">
        <ele>694.5</ele>
        <time>2020-09-16T12:16:37Z</time>
      </trkpt>
      <trkpt lat="44.46772" lon="6.19037">
        <ele>692.9</ele>
        <time>2020-09-16T12:16:40Z</time>
      </trkpt>
      <trkpt lat="44.46767" lon="6.19046">
        <ele>691.9</ele>
        <time>2020-09-16T12:16:42Z</time>
      </trkpt>
      <trkpt lat="44.46765" lon="6.19052">
        <ele>691.3</ele>
        <time>2020-09-16T12:16:43Z</time>
      </trkpt>
      <trkpt lat="44.46763" lon="6.19058">
        <ele>690.8</ele>
        <time>2020-09-16T12:16:44Z</time>
      </trkpt>
      <trkpt lat="44.46761" lon="6.19066">
        <ele>690.1</ele>
        <time>2020-09-16T12:16:45Z</time>
      </trkpt>
      <trkpt lat="44.4676" lon="6.19073">
        <ele>689.6</ele>
        <time>2020-09-16T12:16:46Z</time>
      </trkpt>
      <trkpt lat="44.46759" lon="6.19081">
        <ele>689</ele>
        <time>2020-09-16T12:16:47Z</time>
      </trkpt>
      <trkpt lat="44.46755" lon="6.19135">
        <ele>686.1</ele>
        <time>2020-09-16T12:16:54Z</time>
      </trkpt>
      <trkpt lat="44.46744" lon="6.19183">
        <ele>682.6</ele>
        <time>2020-09-16T12:17:00Z</time>
      </trkpt>
      <trkpt lat="44.46734" lon="6.19222">
        <ele>679.7</ele>
        <time>2020-09-16T12:17:05Z</time>
      </trkpt>
      <trkpt lat="44.46722" lon="6.19261">
        <ele>676.6</ele>
        <time>2020-09-16T12:17:10Z</time>
      </trkpt>
      <trkpt lat="44.46712" lon="6.19291">
        <ele>674.2</ele>
        <time>2020-09-16T12:17:14Z</time>
      </trkpt>
      <trkpt lat="44.46709" lon="6.19297">
        <ele>673.6</ele>
        <time>2020-09-16T12:17:15Z</time>
      </trkpt>
      <trkpt lat="44.46695" lon="6.19327">
        <ele>670.4</ele>
        <time>2020-09-16T12:17:20Z</time>
      </trkpt>
      <trkpt lat="44.46674" lon="6.19364">
        <ele>665</ele>
        <time>2020-09-16T12:17:26Z</time>
      </trkpt>
      <trkpt lat="44.46658" lon="6.19401">
        <ele>660.4</ele>
        <time>2020-09-16T12:17:32Z</time>
      </trkpt>
      <trkpt lat="44.46646" lon="6.19431">
        <ele>657.1</ele>
        <time>2020-09-16T12:17:37Z</time>
      </trkpt>
      <trkpt lat="44.46632" lon="6.19467">
        <ele>653.4</ele>
        <time>2020-09-16T12:17:43Z</time>
      </trkpt>
      <trkpt lat="44.46624" lon="6.19489">
        <ele>651.2</ele>
        <time>2020-09-16T12:17:47Z</time>
      </trkpt>
      <trkpt lat="44.46611" lon="6.19518">
        <ele>648.7</ele>
        <time>2020-09-16T12:17:53Z</time>
      </trkpt>
      <trkpt lat="44.46594" lon="6.19554">
        <ele>645.9</ele>
        <time>2020-09-16T12:18:01Z</time>
      </trkpt>
      <trkpt lat="44.46584" lon="6.19579">
        <ele>644.2</ele>
        <time>2020-09-16T12:18:10Z</time>
      </trkpt>
      <trkpt lat="44.46583" lon="6.19582">
        <ele>644</ele>
        <time>2020-09-16T12:18:16Z</time>
      </trkpt>
      <trkpt lat="44.46579" lon="6.19594">
        <ele>643.3</ele>
        <time>2020-09-16T12:18:29Z</time>
      </trkpt>
      <trkpt lat="44.46573" lon="6.19614">
        <ele>642.2</ele>
        <time>2020-09-16T12:18:32Z</time>
      </trkpt>
      <trkpt lat="44.46572" lon="6.19624">
        <ele>641.7</ele>
        <time>2020-09-16T12:18:33Z</time>
      </trkpt>
      <trkpt lat="44.46555" lon="6.1975">
        <ele>640.7</ele>
        <time>2020-09-16T12:18:45Z</time>
      </trkpt>
      <trkpt lat="44.46536" lon="6.19896">
        <ele>640.2</ele>
        <time>2020-09-16T12:19:01Z</time>
      </trkpt>
      <trkpt lat="44.46519" lon="6.20013">
        <ele>642.3</ele>
        <time>2020-09-16T12:19:17Z</time>
      </trkpt>
      <trkpt lat="44.46516" lon="6.2002">
        <ele>642.2</ele>
        <time>2020-09-16T12:19:18Z</time>
      </trkpt>
      <trkpt lat="44.46513" lon="6.20026">
        <ele>642</ele>
        <time>2020-09-16T12:19:19Z</time>
      </trkpt>
      <trkpt lat="44.4651" lon="6.20032">
        <ele>641.9</ele>
        <time>2020-09-16T12:19:20Z</time>
      </trkpt>
      <trkpt lat="44.46506" lon="6.20037">
        <ele>641.7</ele>
        <time>2020-09-16T12:19:21Z</time>
      </trkpt>
      <trkpt lat="44.46501" lon="6.20041">
        <ele>641.5</ele>
        <time>2020-09-16T12:19:22Z</time>
      </trkpt>
      <trkpt lat="44.46496" lon="6.20044">
        <ele>641.4</ele>
        <time>2020-09-16T12:19:23Z</time>
      </trkpt>
      <trkpt lat="44.46491" lon="6.20047">
        <ele>641.2</ele>
        <time>2020-09-16T12:19:24Z</time>
      </trkpt>
      <trkpt lat="44.46486" lon="6.20048">
        <ele>641.1</ele>
        <time>2020-09-16T12:19:25Z</time>
      </trkpt>
      <trkpt lat="44.4648" lon="6.20048">
        <ele>640.9</ele>
        <time>2020-09-16T12:19:26Z</time>
      </trkpt>
      <trkpt lat="44.46475" lon="6.20046">
        <ele>640.8</ele>
        <time>2020-09-16T12:19:27Z</time>
      </trkpt>
      <trkpt lat="44.46469" lon="6.20044">
        <ele>640.7</ele>
        <time>2020-09-16T12:19:28Z</time>
      </trkpt>
      <trkpt lat="44.46458" lon="6.2004">
        <ele>640.5</ele>
        <time>2020-09-16T12:19:30Z</time>
      </trkpt>
      <trkpt lat="44.46453" lon="6.20037">
        <ele>640.4</ele>
        <time>2020-09-16T12:19:31Z</time>
      </trkpt>
      <trkpt lat="44.46356" lon="6.19987">
        <ele>640.7</ele>
        <time>2020-09-16T12:19:50Z</time>
      </trkpt>
      <trkpt lat="44.46261" lon="6.19941">
        <ele>640.1</ele>
        <time>2020-09-16T12:20:09Z</time>
      </trkpt>
      <trkpt lat="44.46161" lon="6.19894">
        <ele>640.1</ele>
        <time>2020-09-16T12:20:30Z</time>
      </trkpt>
      <trkpt lat="44.46088" lon="6.19867">
        <ele>642.1</ele>
        <time>2020-09-16T12:20:48Z</time>
      </trkpt>
      <trkpt lat="44.46013" lon="6.19849">
        <ele>641.9</ele>
        <time>2020-09-16T12:21:08Z</time>
      </trkpt>
      <trkpt lat="44.45956" lon="6.19835">
        <ele>644.1</ele>
        <time>2020-09-16T12:21:22Z</time>
      </trkpt>
      <trkpt lat="44.45882" lon="6.19815">
        <ele>646.7</ele>
        <time>2020-09-16T12:21:40Z</time>
      </trkpt>
      <trkpt lat="44.45816" lon="6.19802">
        <ele>648.4</ele>
        <time>2020-09-16T12:21:59Z</time>
      </trkpt>
      <trkpt lat="44.45782" lon="6.19796">
        <ele>649.7</ele>
        <time>2020-09-16T12:22:11Z</time>
      </trkpt>
      <trkpt lat="44.45747" lon="6.19793">
        <ele>651.3</ele>
        <time>2020-09-16T12:22:24Z</time>
      </trkpt>
      <trkpt lat="44.4571" lon="6.19789">
        <ele>654.3</ele>
        <time>2020-09-16T12:22:40Z</time>
      </trkpt>
      <trkpt lat="44.45655" lon="6.19784">
        <ele>658.6</ele>
        <time>2020-09-16T12:23:02Z</time>
      </trkpt>
      <trkpt lat="44.45601" lon="6.19787">
        <ele>662</ele>
        <time>2020-09-16T12:23:22Z</time>
      </trkpt>
      <trkpt lat="44.45592" lon="6.19792">
        <ele>662.5</ele>
        <time>2020-09-16T12:23:31Z</time>
      </trkpt>
    </trkseg>
  </trk>
</gpx>